[[{"header":{"parameterUnit":"m.s-1","parameterCategory":1,"la1":30.6,"la2":29.2853,"lo1":-89.7004,"lo2":-87.6739,"dy":0.0162,"dx":0.0183,"nx":112,"ny":82,"refTime":"2023-11-19T06:00:00:Z","depth":0,"parameterNumber":2,"parameterNumberName":"U-component_of_WINDS"},"data":[0.0,0.0,0.0,0.0,0.0,0.0,0.0,0.0,0.0,0.0,0.0,0.0,0.0,0.0,0.0,0.0,0.0,0.0,0.0,0.0,0.0,0.0,0.0,0.0,0.0,0.0,0.0,0.0,0.0,0.0,0.0,0.0,0.0,0.0,0.0,0.0,0.0,0.0,0.0,0.0,0.0,0.0,0.0,0.0,0.0,0.0,0.0,0.0,0.0,0.0,0.0,0.0,0.0,0.0,0.0,0.0,0.0,0.0,0.0,0.0,0.0,0.0,0.0,0.0,0.0,0.0,0.0,0.0,0.0,0.0,0.0,0.0,0.0,0.0,0.0,0.0,0.0,0.0,0.0,0.0,0.0,0.0,0.0,0.0,0.0,0.0,0.0,0.0,0.0,0.0,0.0,1.2491,1.2526,1.2974,1.3878,1.3484,1.262,1.1262,0.0,0.0,0.0,0.0,0.0,0.0,0.0,0.0,0.0,0.0,0.0,0.0,0.0,0.0,0.0,0.0,0.0,0.0,0.0,0.0,0.0,0.0,0.0,0.0,0.0,0.0,0.0,0.0,0.0,0.0,0.0,0.0,0.0,0.0,0.0,0.0,0.0,0.0,0.0,0.0,0.0,0.0,0.0,0.0,0.0,0.0,0.0,0.0,0.0,0.0,0.0,0.0,0.0,0.0,0.0,0.0,0.0,0.0,0.0,0.0,0.0,0.0,0.0,0.0,0.0,0.0,0.0,0.0,0.0,0.0,0.0,0.0,0.0,0.0,0.0,0.0,0.0,0.0,0.0,0.0,0.0,0.0,0.0,0.0,0.0,0.0,0.0,0.0,0.0,0.0,0.0,0.0,0.0,0.0,0.0,0.0,0.0,0.0,0.0,0.0,0.0,0.0,0.0,0.0,1.2432,1.2487,1.3109,1.37,1.4194,1.3593,1.2468,1.072,0.0,0.0,0.0,0.0,0.0,0.0,0.0,0.0,0.0,0.0,0.0,0.0,0.0,0.0,0.0,0.0,0.0,0.0,0.0,0.0,0.0,0.0,0.0,0.0,0.0,0.0,0.0,0.0,0.0,0.0,0.0,0.0,0.0,0.0,0.0,0.0,0.0,0.0,0.0,0.0,0.0,0.0,0.0,0.0,0.0,0.0,0.0,0.0,0.0,0.0,0.0,0.0,0.0,0.0,0.0,0.0,0.0,0.0,0.0,0.0,0.0,0.0,0.0,0.0,0.0,0.0,0.0,0.0,0.0,0.0,0.0,0.0,0.0,0.0,0.0,0.0,0.0,0.0,0.0,0.0,0.0,0.0,0.0,0.0,0.0,0.0,0.0,0.0,0.0,0.0,0.0,0.0,0.0,0.0,0.0,0.0,0.0,0.0,0.0,0.0,0.0,0.0,0.0,1.3728,1.3544,1.3237,1.3573,1.3944,1.4276,1.3792,1.2789,1.1191,1.0736,0.0,0.0,0.0,0.0,0.0,0.0,0.0,0.0,0.0,0.0,0.0,0.0,0.0,0.0,0.0,0.0,0.0,0.0,0.0,0.0,0.0,0.0,0.0,0.0,0.0,0.0,0.0,0.0,0.0,0.0,0.0,0.0,0.0,0.0,0.0,0.0,0.0,0.0,0.0,0.0,0.0,0.0,0.0,0.0,0.0,0.0,0.0,0.0,0.0,0.0,0.0,0.0,0.0,0.0,0.0,0.0,0.0,0.0,0.0,0.0,0.0,0.0,0.0,0.0,0.0,0.0,0.0,0.0,0.0,0.0,0.0,0.0,0.0,0.0,0.0,0.0,0.0,0.0,0.0,0.0,0.0,0.0,0.0,0.0,0.0,0.0,0.0,0.0,0.0,0.0,0.0,0.0,0.0,0.0,0.0,0.0,0.0,0.0,0.0,0.0,0.0,0.0,1.4346,1.4634,1.3901,1.4034,1.422,1.436,1.3964,1.3088,1.1635,1.1115,0.0,0.0,0.0,0.0,0.0,0.0,0.0,0.0,0.0,0.0,0.0,0.0,0.0,0.0,0.0,0.0,0.0,0.0,0.0,0.0,0.0,0.0,0.0,0.0,0.0,0.0,0.0,0.0,0.0,0.0,0.0,0.0,0.0,0.0,0.0,0.0,0.0,0.0,0.0,0.0,0.0,0.0,0.0,0.0,0.0,0.0,0.0,0.0,0.0,0.0,0.0,0.0,0.0,0.0,0.0,0.0,0.0,0.0,0.0,0.0,0.0,0.0,0.0,0.0,0.0,0.0,0.0,0.0,0.0,0.0,0.0,0.0,0.0,0.0,0.0,0.0,0.0,0.0,0.0,0.0,0.0,0.0,0.0,0.0,0.0,0.0,0.0,0.0,0.0,0.0,0.0,0.0,0.0,0.0,0.0,0.0,0.0,0.0,0.0,0.0,0.0,0.0,1.4405,1.4718,1.3964,1.457,1.4907,1.4605,1.404,1.3036,1.151,1.1322,0.0,0.0,0.0,0.0,0.0,0.0,0.0,0.0,0.0,0.0,0.0,0.0,0.0,0.0,0.0,0.0,0.0,0.0,0.0,0.0,0.0,0.0,0.0,0.0,0.0,0.0,0.0,0.0,0.0,0.0,0.0,0.0,0.0,0.0,0.0,0.0,0.0,0.0,0.0,0.0,0.0,0.0,0.0,0.0,0.0,0.0,0.0,0.0,0.0,0.0,0.0,0.0,0.0,0.0,0.0,0.0,0.0,0.0,0.0,0.0,0.0,0.0,0.0,0.0,0.0,0.0,0.0,0.0,0.0,0.0,0.0,0.0,0.0,0.0,0.0,0.0,0.0,0.0,0.0,0.0,0.0,0.0,0.0,0.0,0.0,0.0,0.0,0.0,0.0,0.0,0.0,0.0,0.0,0.0,0.0,0.0,0.0,0.0,0.0,0.0,0.0,0.0,1.5122,1.5506,0.0,1.5031,1.5069,1.4638,1.4272,1.3485,1.2116,0.0,0.0,0.0,0.0,0.0,0.0,0.0,0.0,0.0,0.0,0.0,0.0,0.0,0.0,0.0,0.0,0.0,0.0,0.0,0.0,0.0,0.0,0.0,0.0,0.0,0.0,0.0,0.0,0.0,0.0,0.0,0.0,0.0,0.0,0.0,0.0,0.0,0.0,0.0,0.0,0.0,0.0,0.0,0.0,0.0,0.0,0.0,0.0,0.0,0.0,0.0,0.0,0.0,0.0,0.0,0.0,0.0,0.0,0.0,0.0,0.0,0.0,0.0,0.0,0.0,0.0,0.0,0.0,0.0,0.0,0.0,0.0,0.0,0.0,0.0,0.0,0.0,0.0,0.0,0.0,0.0,0.0,0.0,0.0,0.0,0.0,0.0,0.0,0.0,0.0,0.0,0.0,0.0,0.0,0.0,0.0,0.0,0.0,0.0,0.0,0.0,0.0,1.4648,1.5317,1.5692,0.0,1.5299,1.513,1.4722,1.4455,1.3792,1.2571,0.0,0.0,0.0,0.0,0.0,0.0,0.0,0.0,0.0,0.0,0.0,0.0,0.0,0.0,0.0,0.0,0.0,0.0,0.0,0.0,0.0,0.0,0.0,0.0,0.0,0.0,0.0,0.0,0.0,0.0,0.0,0.0,0.0,0.0,0.0,0.0,0.0,0.0,0.0,0.0,0.0,0.0,0.0,0.0,0.0,0.0,0.0,0.0,0.0,0.0,0.0,0.0,0.0,0.0,0.0,0.0,0.0,0.0,0.0,0.0,0.0,0.0,0.0,0.0,0.0,0.0,0.0,0.0,0.0,0.0,0.0,0.0,0.0,0.0,0.0,0.0,0.0,0.0,0.0,0.0,0.0,0.0,0.0,0.0,0.0,0.0,0.0,0.0,0.0,0.0,0.0,0.0,0.0,0.0,0.0,0.0,0.0,0.0,0.0,0.0,0.0,0.0,1.4563,1.4832,1.5073,1.527,1.5307,1.5194,1.4916,1.4521,1.3845,0.0,0.0,0.0,0.0,0.0,0.0,0.0,0.0,0.0,0.0,0.0,0.0,0.0,0.0,0.0,0.0,0.0,0.0,0.0,0.0,0.0,0.0,0.0,0.0,0.0,0.0,0.0,0.0,0.0,0.0,0.0,0.0,0.0,0.0,0.0,0.0,0.0,0.0,0.0,0.0,0.0,0.0,0.0,0.0,0.0,0.0,0.0,0.0,0.0,0.0,0.0,0.0,0.0,0.0,0.0,0.0,0.0,0.0,0.0,0.0,0.0,0.0,0.0,0.0,0.0,0.0,0.0,0.0,0.0,0.0,0.0,0.0,0.0,0.0,0.0,0.0,0.0,0.0,0.0,0.0,0.0,0.0,0.0,0.0,0.0,0.0,0.0,0.0,0.0,0.0,0.0,0.0,0.0,0.0,0.0,0.0,0.0,0.0,0.0,0.0,0.0,0.0,0.0,1.5056,1.5038,1.5012,1.5271,1.5292,1.5235,1.5069,1.4588,1.3954,1.3168,0.0,0.0,0.0,0.0,0.0,0.0,0.0,0.0,0.0,0.0,0.0,0.0,0.0,0.0,0.0,0.0,0.0,0.0,0.0,0.0,0.0,0.0,0.0,0.0,0.0,0.0,0.0,0.0,0.0,0.0,0.0,0.0,0.0,0.0,0.0,0.0,0.0,0.0,0.0,0.0,0.0,0.0,0.0,0.0,0.0,0.0,0.0,0.0,0.0,0.0,0.0,0.0,0.0,0.0,0.0,0.0,0.0,0.0,0.0,0.0,0.0,0.0,0.0,0.0,0.0,0.0,0.0,0.0,0.0,0.0,0.0,0.0,0.0,0.0,0.0,0.0,0.0,0.0,0.0,0.0,0.0,0.0,0.0,0.0,0.0,0.0,0.0,0.0,0.0,0.0,0.0,0.0,0.0,0.0,0.0,0.0,0.0,0.0,0.0,0.0,0.0,0.0,1.5207,1.5064,1.4979,1.5205,1.5267,1.5251,1.5116,1.4684,1.4022,1.3068,0.0,0.0,0.0,0.0,0.0,0.0,0.0,0.0,0.0,0.0,0.0,0.0,0.0,0.0,0.0,0.0,0.0,0.0,0.0,0.0,0.0,0.0,0.0,0.0,0.0,0.0,0.0,0.0,0.0,0.0,0.0,0.0,0.0,0.0,0.0,0.0,0.0,0.0,0.0,0.0,0.0,0.0,0.0,0.0,0.0,0.0,0.0,0.0,0.0,0.0,0.0,0.0,0.0,0.0,0.0,0.0,0.0,0.0,0.0,0.0,0.0,0.0,0.0,0.0,0.0,0.0,0.0,0.0,0.0,0.0,0.0,0.0,0.0,0.0,0.0,0.0,0.0,0.0,0.0,0.0,0.0,0.0,0.0,0.0,0.0,0.0,0.0,0.0,0.0,0.0,0.0,0.0,0.0,0.0,0.0,0.0,0.0,0.0,0.0,0.0,0.0,0.0,1.5185,1.5078,1.4949,1.5081,1.5212,1.5241,1.5124,1.4794,1.4064,1.2793,0.0,0.0,0.0,0.0,0.0,0.0,0.0,0.0,0.0,0.0,0.0,0.0,0.0,0.0,0.0,0.0,0.0,0.0,0.0,0.0,0.0,0.0,0.0,0.0,0.0,0.0,0.0,0.0,0.0,0.0,0.0,0.0,0.0,0.0,0.0,0.0,0.0,0.0,0.0,0.0,0.0,0.0,0.0,0.0,0.0,0.0,0.0,0.0,0.0,0.0,0.0,0.0,0.0,0.0,0.0,0.0,0.0,0.0,0.0,0.0,0.2269,0.0,0.0,0.0,0.0,0.0,0.0,0.0,0.0,0.0,0.0,0.0,0.0,0.0,0.0,0.0,0.0,0.0,0.0,0.0,0.0,0.0,0.0,0.0,0.0,0.0,0.0,0.0,0.0,0.0,0.0,0.0,0.0,0.0,0.0,0.0,0.0,0.0,0.0,0.0,0.0,0.0,1.5913,1.538,1.4946,1.5094,1.5219,1.5292,1.5268,1.4843,1.4316,1.3654,1.235,0.0,0.0,0.0,0.0,0.0,0.0,0.0,0.0,0.0,0.0,0.0,0.0,0.0,0.0,0.0,0.0,0.0,0.0,0.0,0.0,0.0,0.0,0.0,0.0,0.0,0.0,0.0,0.0,0.0,0.0,0.0,0.0,0.0,0.0,0.0,0.0,0.0,0.0,0.0,0.0,0.0,0.0,0.0,0.0,0.0,0.0,0.0,0.0,0.0,0.0,0.0,0.0,0.0,0.0,0.0,0.0,0.0,0.0,0.0,0.0,-0.1145,0.0,0.0,0.0,0.0,0.0,0.0,0.0,0.0,0.0,0.0,0.0,0.0,0.0,0.0,0.0,0.0,0.0,0.0,0.0,0.0,0.0,0.0,0.0,0.0,0.0,0.0,0.0,0.0,0.0,0.0,0.0,0.0,0.0,0.0,0.0,0.0,0.0,0.0,0.0,0.0,1.6107,1.5459,1.4925,1.5004,1.5178,1.5307,1.5309,1.5009,1.452,1.3747,1.2829,0.0,0.0,0.0,0.0,0.0,0.0,0.0,0.0,0.0,0.0,0.0,0.0,0.0,0.0,0.0,0.0,0.0,0.0,0.0,0.0,0.0,0.0,0.0,0.0,0.0,0.0,0.0,0.0,0.0,0.0,0.0,0.0,0.0,0.0,0.0,0.0,0.0,0.0,0.0,0.0,0.0,0.0,0.0,0.0,0.0,0.0,0.0,0.0,0.0,0.0,0.0,0.0,0.0,0.0,0.116,0.2338,0.2596,0.238,0.1647,-0.1753,-0.4154,-0.5788,0.0,0.0,0.0,0.0,0.0,0.0,0.0,0.0,0.0,0.0,0.0,0.0,0.0,0.0,0.0,0.0,0.0,0.0,0.0,0.0,0.0,0.0,0.0,0.0,0.0,0.8856,0.8476,0.0,0.0,0.0,0.0,0.0,0.0,0.0,0.0,0.0,0.0,0.0,0.0,1.5869,1.5301,1.4849,1.4893,1.5127,1.5278,1.531,1.5184,1.4712,1.3773,1.3398,1.2731,0.0,0.0,0.0,0.0,0.0,0.0,0.0,0.0,0.0,0.0,0.0,0.0,0.0,0.0,0.0,0.0,0.0,0.0,0.0,0.0,0.0,0.0,0.0,0.0,0.0,0.0,0.0,0.0,0.0,0.0,0.0,0.0,-1.1619,-1.1843,0.0,0.0,0.0,0.0,0.0,0.0,0.0,0.0,0.0,0.0,0.0,0.0,0.0,0.0,-0.1129,0.0064,0.1268,0.2552,0.2348,0.2765,0.3646,0.3294,0.3424,0.3822,0.0732,0.0,-0.4422,-0.7681,0.0,0.0,0.0,0.0,0.0,0.0,0.0,0.0,0.0,0.0,0.0,0.0,0.0,0.0,0.0,0.0,0.0,0.0,0.0,0.0,0.0,0.0,0.7421,0.7148,0.7173,0.7391,0.0,0.8783,0.9941,1.1283,0.0,0.0,0.0,0.0,0.0,0.0,0.0,0.0,1.5116,1.4754,1.4571,1.4876,1.5035,1.5178,1.5286,1.5184,1.4977,1.4648,1.3523,1.2852,1.2857,1.1761,0.0,0.0,0.0,0.0,0.0,0.0,0.0,0.0,0.0,0.0,0.0,0.0,0.0,0.0,0.0,0.0,0.0,0.0,0.0,0.0,0.0,0.0,0.0,0.0,0.0,0.0,0.0,0.0,0.0,-0.9312,-1.0197,-0.9616,-1.0626,-1.0606,0.0,0.0,0.0,0.0,0.0,0.0,0.0,0.0,0.0,-0.2428,-0.063,0.0512,0.0892,0.2138,0.3038,0.3616,0.4135,0.461,0.4965,0.5226,0.5665,0.6196,0.4864,0.3349,0.1332,-0.5014,-0.6839,-0.5807,0.0,0.0,0.0,0.0,0.0,0.0035,0.0429,0.0,0.0,0.0,0.0,0.0,0.0,0.0,0.0,0.0,0.0,0.0,0.0,0.0,0.0,0.685,0.6802,0.7,0.7684,0.7768,0.8208,0.0,1.0442,1.1169,1.3084,0.0,0.0,0.0,0.0,0.0,1.476,1.4589,1.4529,1.4859,1.5009,1.5146,1.5287,1.5249,1.5145,1.4981,1.4163,1.3702,1.366,1.2573,1.1944,0.0,0.0,0.0,0.0,0.0,0.0,0.0,0.0,0.0,0.0,0.0,0.0,0.0,0.0,0.0,0.0,0.0,0.0,0.0,0.0,0.0,0.0,0.0,0.0,0.0,0.0,0.0,0.0,-0.7258,-0.7893,-0.7364,-0.8689,-0.895,0.0,0.0,0.0,0.0,0.0,0.0,-0.2048,-0.0597,0.032,0.0542,0.1943,0.2773,0.2958,0.3897,0.4514,0.4728,0.5692,0.6174,0.6303,0.6895,0.7472,0.7964,0.7888,0.7405,0.607,-0.1074,-0.4115,-0.4409,-0.594,-0.5247,-0.3485,-0.3823,-0.1841,0.1055,0.1603,0.328,0.5184,0.5152,0.0,0.5524,0.5453,0.0,0.0,0.0,0.0,0.7627,0.723,0.0,0.7193,0.6967,0.6828,0.6962,0.7714,0.7402,0.7442,0.0,0.9639,1.0372,1.1917,0.0,0.0,0.0,0.0,1.3661,1.4264,1.43,1.44,1.4747,1.4912,1.5062,1.5228,1.5242,1.5213,1.5169,1.4766,1.4422,1.4187,1.3357,1.2666,1.2164,0.0,0.0,0.0,0.0,0.0,0.0,0.0,0.0,0.0,0.0,0.0,0.0,0.0,0.0,0.0,0.0,0.0,0.0,0.0,0.0,0.0,0.0,0.0,0.0,0.0,0.0,0.0,0.0,0.0,-0.7093,-0.685,0.0,0.0,0.0,0.0,-0.2158,-0.1101,-0.0071,0.1028,0.1945,0.2809,0.3643,0.4188,0.484,0.5607,0.5676,0.6113,0.6952,0.702,0.7246,0.7598,0.7656,0.807,0.8734,0.841,0.8001,0.7282,0.4047,0.148,-0.0454,-0.1195,-0.1297,-0.0874,0.0585,0.2089,0.3557,0.4405,0.4914,0.5243,0.5424,0.5195,0.4867,0.4986,0.5455,0.0,0.0,0.6657,0.6699,0.6869,0.6789,0.6693,0.6858,0.7031,0.7178,0.7237,0.7656,0.8196,0.0,0.7774,0.7598,1.0094,0.0,1.0763,1.2133,1.3057,1.3537,1.3396,1.3711,1.4042,1.4389,1.46,1.4839,1.5094,1.5105,1.5164,1.5273,1.5031,1.4728,1.4405,1.3971,1.3776,1.3876,1.3429,0.0,0.0,0.0,0.0,0.0,0.0,0.0,0.0,0.0,0.0,0.0,0.0,0.0,0.0,0.0,0.0,0.0,0.0,0.0,0.0,0.0,0.0,0.0,0.0,0.0,0.0,0.0,0.0,-0.3622,-0.3858,0.0,-0.2534,-0.1556,-0.0536,0.0529,0.1612,0.2535,0.3237,0.3918,0.4532,0.509,0.5591,0.5945,0.6259,0.6493,0.6802,0.7118,0.7627,0.7956,0.8091,0.8578,0.8937,0.9182,0.9074,0.8695,0.8064,0.652,0.4543,0.2459,0.2226,0.215,0.2294,0.3119,0.4114,0.5124,0.5968,0.5955,0.549,0.5004,0.4679,0.4562,0.4991,0.5571,0.6182,0.6611,0.6756,0.6803,0.6888,0.6741,0.6621,0.6689,0.6761,0.6881,0.7146,0.7272,0.752,0.8144,0.7875,0.7964,0.9232,0.9119,0.9365,1.0881,1.1616,1.2143,1.2537,1.3365,1.4034,1.4366,1.4124,1.4222,1.4908,1.4571,1.4563,1.5129,1.5156,1.5069,1.4851,1.4584,1.4151,1.3493,1.3069,1.2734,0.0,0.0,0.0,0.0,0.0,0.0,0.0,0.0,0.0,0.0,0.0,0.0,0.0,0.0,0.0,0.0,0.0,0.0,0.0,0.0,0.0,0.0,0.0,0.0,0.0,0.0,-0.0086,-0.0518,-0.065,-0.0435,0.0416,0.1196,0.2056,0.3003,0.3833,0.4556,0.5125,0.5458,0.5822,0.6243,0.6532,0.676,0.6918,0.7157,0.7305,0.7305,0.7984,0.829,0.8308,0.891,0.9262,0.9408,0.9408,0.9167,0.8759,0.8275,0.7027,0.532,0.486,0.4873,0.5188,0.5321,0.5831,0.6482,0.6803,0.6836,0.6558,0.5552,0.5287,0.5421,0.584,0.6272,0.6651,0.6839,0.6902,0.6883,0.6805,0.6712,0.6599,0.6599,0.6651,0.6794,0.713,0.716,0.7282,0.7797,0.7844,0.7955,0.8478,0.8394,0.8717,1.0184,1.0893,1.155,1.2373,1.3242,1.3878,1.4103,1.3648,1.3716,1.4644,1.4156,1.4048,1.4613,1.4788,1.4815,1.4726,1.4554,1.4204,1.3671,1.3303,1.2611,1.1601,0.0,0.0,0.0,0.0,0.0,0.0,0.0,0.0,0.0,0.0,0.0,0.0,0.0,0.0,0.0,0.0,0.0,0.0,0.0,0.0,0.0,0.0,0.0,0.1418,0.2572,0.3162,0.199,0.2633,0.3079,0.2767,0.3278,0.4084,0.5176,0.5452,0.5936,0.6709,0.6633,0.6725,0.7136,0.7166,0.7353,0.7744,0.7744,0.7783,0.7793,0.8189,0.8389,0.8389,0.8734,0.9108,0.9458,0.9458,0.9408,0.9372,0.9372,0.8942,0.8161,0.6786,0.6859,0.7656,0.7266,0.7373,0.7655,0.7041,0.7578,0.8322,0.7108,0.7031,0.7404,0.7506,0.747,0.7354,0.7166,0.7031,0.6873,0.6673,0.6637,0.6649,0.6624,0.6795,0.7,0.7189,0.7466,0.7723,0.793,0.7603,0.7421,0.7827,0.8237,0.8886,0.9979,1.0938,0.0,1.2813,1.3294,1.3567,1.3584,1.3245,1.3388,1.4304,1.3896,1.365,1.378,1.3893,1.3953,1.3983,1.3859,1.4033,1.4551,1.4212,1.3223,1.1594,0.0,0.0,0.0,0.0,0.0,0.0,0.0,0.0,0.0,0.0,0.0,0.0,0.0,0.0,0.0,0.0,0.0,0.0,0.0,0.0,0.0,0.0,0.4862,0.3197,0.4182,0.5071,0.503,0.5183,0.5291,0.5297,0.6098,0.6767,0.7079,0.7332,0.7674,0.8208,0.7991,0.7935,0.8038,0.8277,0.8491,0.8723,0.8942,0.9305,0.9717,1.0087,1.0258,1.0258,1.0659,1.0657,1.0331,1.0331,0.9741,0.8762,0.8762,0.8484,0.8051,0.7821,0.7712,0.7686,0.7559,0.7927,0.8436,0.7984,0.8174,0.849,0.7576,0.7372,0.7537,0.7892,0.7623,0.7241,0.7464,0.7395,0.7252,0.72,0.7501,0.7713,0.7281,0.7701,0.8158,0.7965,0.8475,0.9049,0.9302,0.9235,0.8891,0.8049,0.8393,0.8754,0.8694,0.0,0.0,1.1415,1.2254,1.3011,1.3532,1.3285,1.3394,1.4192,1.3807,1.3547,1.3586,1.3157,1.3152,1.369,1.3713,1.367,1.3598,1.288,1.2224,0.0,0.0,0.0,0.0,0.0,0.0,0.0,0.0,0.0,0.0,0.0,0.0,0.0,0.0,0.0,0.0,0.0,0.0,0.0,0.0,0.0,0.0,0.6331,0.7376,0.6509,0.6601,0.6988,0.7505,0.7228,0.7043,0.7274,0.7601,0.7992,0.848,0.8362,0.8529,0.9097,0.8999,0.8843,0.8643,0.9256,0.9508,0.9351,0.9777,1.014,1.051,1.0845,1.1001,1.1001,1.1424,1.1412,0.0,1.0806,1.021,0.9397,0.9167,0.8905,0.0,0.0,0.0,0.0,0.0,0.8298,0.8749,0.8435,0.856,0.8778,0.8321,0.8179,0.8251,0.8763,0.8453,0.798,0.8219,0.8048,0.7776,0.7776,0.8026,0.8223,0.7864,0.8249,0.8685,0.8599,0.9058,0.9573,0.9853,0.0,0.0,0.8902,0.9068,0.9347,0.939,1.032,1.1189,0.0,1.2415,1.3045,1.3474,1.3085,1.3142,1.4011,1.3648,0.0,0.0,0.0,1.2987,1.3327,1.3717,0.0,0.0,0.0,1.2262,1.1494,0.0,0.0,0.0,0.8026,0.732,0.0,0.0,0.0,0.0,0.0,0.0,0.0,0.0,0.0,0.0,0.0,0.0,0.0,0.0,0.0,0.0,0.8426,0.9837,1.0253,0.932,0.8829,0.9427,0.8878,0.8607,0.8852,0.8433,0.8545,0.9512,0.9023,0.8983,0.9719,0.0,0.0,0.0,0.0,1.044,1.0025,1.0483,1.0741,1.0798,1.1117,1.1243,1.1274,1.161,1.1738,1.165,1.1073,1.0728,1.06,1.0141,0.9731,0.9298,0.8042,0.7885,0.8365,0.8365,0.8578,0.0,0.0,0.0,0.0,0.9189,0.9189,0.9289,0.9755,0.9554,0.9189,0.9189,0.8838,0.8487,0.8487,0.8487,0.8474,0.8411,0.8679,0.8987,0.9171,0.9483,0.983,1.0062,1.0563,1.0768,1.0309,1.0099,1.0236,1.0949,1.1345,0.0,1.2727,1.3074,1.3261,1.3396,0.0,0.0,1.3786,1.3515,1.3296,1.3323,1.3268,1.316,1.2961,1.3739,1.4052,1.3834,1.3689,1.283,1.126,1.0409,0.9277,0.7929,0.8999,0.8506,0.0,0.0,0.0,0.0,0.0,0.0,0.0,0.0,0.0,0.0,0.0,0.0,0.0,0.0,0.0,0.7909,0.9047,1.0179,1.1294,1.1006,1.0632,1.0601,1.0422,1.0228,1.0018,1.0192,1.0261,1.0137,1.0321,1.0496,1.0654,1.1091,0.0,1.1274,1.1374,1.167,1.2141,1.2049,1.2238,1.267,0.0,0.0,1.2771,1.2851,1.2634,1.2215,1.1663,1.1003,1.0286,1.0189,0.9914,0.9499,0.8806,0.859,0.8706,0.8706,0.8965,0.9277,0.9224,0.9449,0.9742,0.9742,0.9742,0.9767,0.9868,0.983,0.0,0.9742,0.9667,0.9592,0.9592,0.9592,0.9479,0.905,0.9725,1.0354,0.991,1.0634,1.1374,1.1431,1.1536,1.1745,1.2171,1.1341,1.0522,1.0203,1.0776,1.1406,1.1816,1.2057,1.2506,1.3312,1.3435,1.3522,1.3646,1.3726,1.3512,1.2875,1.2822,1.2799,1.2764,1.3531,1.3797,1.3415,1.3182,1.2584,1.1601,1.0948,1.0331,0.9729,0.7967,0.7614,0.0,0.0,0.0,0.0,0.0,0.0,0.0,0.0,0.0,0.0,0.0,0.4129,0.0,0.0,0.8843,1.0257,1.1175,1.1813,1.2274,1.2175,1.1912,1.1597,1.1334,1.1128,1.0967,1.1113,1.1152,1.0979,1.1155,1.14,1.1684,1.2171,1.2498,1.2579,1.305,1.3338,1.3395,1.3307,1.3405,1.3647,1.3323,1.3198,1.3198,1.3198,1.3048,1.276,1.2241,1.1746,1.1253,1.0701,1.0157,0.975,0.975,0.9364,0.8839,0.9322,0.9458,0.9422,0.9593,0.9764,0.9943,1.0219,1.0307,1.037,1.0659,1.0747,1.0747,1.0747,1.0533,1.0307,1.0307,1.0106,0.9881,0.9763,1.0331,1.0847,1.0686,1.1271,1.1805,1.1805,1.2059,1.2426,1.2741,1.2523,1.2104,1.1446,1.1556,1.1742,1.1892,1.2225,1.2636,1.3158,1.3412,1.3556,1.3601,1.378,1.3697,1.3182,1.3147,1.3121,1.3052,1.3446,1.3476,1.3158,1.2893,1.2395,1.1685,1.1275,1.0912,1.0567,0.9301,0.9024,0.0,0.0,0.0,0.0,0.0,0.0,0.0,0.0,0.3211,0.4843,0.5228,0.6241,0.9275,1.0242,1.099,1.2305,1.3049,1.3323,1.3066,1.3214,1.3193,1.2708,1.2171,1.1832,1.1743,1.1734,1.1694,1.1606,1.1762,1.2108,1.2573,1.3209,1.3629,1.3815,1.4533,1.4747,1.4413,1.4312,1.4249,1.4236,1.376,1.3496,1.3348,1.3348,1.3298,1.3173,1.2622,1.2352,1.2187,1.1151,1.0476,1.0135,1.0575,1.0061,0.9153,1.0026,1.0132,0.9855,1.0059,1.0166,1.0307,1.0719,1.0856,1.0985,1.145,1.1663,1.1751,1.1751,1.1412,1.1007,1.0894,1.0483,1.0109,1.0261,1.065,1.0997,1.1094,1.1612,1.2037,1.1926,1.25,1.3056,1.3175,1.3525,1.3615,1.3086,1.262,1.2328,1.2391,1.2664,1.2869,1.2924,1.3121,1.3312,1.3475,1.363,1.3678,1.3572,1.3555,1.3493,1.3329,1.3363,1.3226,1.285,1.2668,1.2305,1.1715,1.1505,1.1287,1.1085,1.1015,1.0876,-0.3343,-0.2025,-0.0502,-0.0238,0.1064,0.2468,0.0,0.0,0.5247,0.6842,0.8212,0.9489,1.059,1.1376,1.2041,1.2447,1.285,1.3208,1.3394,1.4287,1.4756,1.4208,1.331,1.2578,1.2187,1.2112,1.1992,1.1636,1.243,1.2947,1.3036,1.4053,1.4841,1.5354,1.5073,1.5103,1.5511,1.5053,1.4815,1.4815,1.4752,1.4475,1.3997,1.3997,1.3697,1.3173,1.2622,1.2164,1.1721,1.1069,1.0804,1.0799,1.0855,1.0509,1.0032,1.0654,1.1095,1.131,1.0985,1.1106,1.1412,1.1475,1.1487,1.15,1.1575,1.1927,1.2316,1.2316,1.2266,1.2115,1.1613,1.106,1.0508,1.0058,1.0573,1.1031,1.0614,1.1838,1.2885,1.2357,1.304,1.3885,1.4468,1.4139,1.378,1.3705,1.313,1.2834,1.3058,1.2619,1.2372,1.261,1.2668,1.2781,1.3051,1.3086,1.3192,1.3413,1.3413,1.3312,1.3067,1.326,1.3051,1.2291,1.2494,1.232,1.179,1.1747,1.1725,1.1681,1.14,1.1551,-0.1938,-0.0684,0.0946,0.1692,0.3096,0.4484,0.5387,0.6573,0.7793,0.889,0.9874,1.0959,1.2506,1.2958,1.3273,0.0,1.4365,1.4693,1.4522,1.5284,1.5796,1.5598,1.4803,1.3959,1.3195,1.2825,1.2529,1.239,1.3068,1.3658,1.4023,1.4829,1.5516,1.6095,1.5932,1.5944,1.617,1.563,1.5354,1.5341,1.5067,1.4626,1.4085,1.4085,1.3783,1.3185,1.2947,1.2427,1.1678,1.142,1.0962,1.0487,1.0764,1.0753,1.0609,1.0843,1.0856,1.0739,1.0865,1.0989,1.1234,1.1858,1.2065,1.2128,1.2454,1.2672,1.286,1.286,1.2429,1.1876,1.165,1.0922,1.0323,1.0585,1.0703,1.0818,1.1104,1.1532,1.1848,1.1732,1.2692,1.365,1.4143,1.4633,1.4947,1.4947,1.3745,1.2689,1.2409,1.2292,1.2312,1.2572,1.261,1.2649,1.2759,1.2906,1.3049,1.3156,1.3311,1.3294,1.3013,1.3103,1.2942,1.2435,1.2392,1.2271,1.2024,1.1891,1.1805,1.1805,1.1659,1.1726,0.0168,0.1276,0.2594,0.3782,0.5342,0.6845,0.778,0.9182,1.0409,1.1099,1.1657,1.258,1.4139,1.4295,1.4487,1.5177,1.5714,1.5923,1.5528,1.6361,1.6848,1.6373,1.5931,1.5273,1.4241,1.3626,1.3282,1.3162,1.3873,1.4503,1.4915,1.5511,1.6051,1.6479,1.6522,1.6522,1.6522,1.612,1.5919,1.5919,1.5517,1.4991,1.4299,1.3997,1.3609,1.3198,1.3047,1.2503,1.1733,1.1584,1.0978,1.018,1.0591,1.0791,1.0933,1.0933,1.0852,1.082,1.1148,1.1355,1.1576,1.2361,1.2609,1.2685,1.3073,1.3198,1.3198,1.3198,1.2622,1.1977,1.1676,1.1098,1.0664,1.0986,1.1016,1.1069,1.1562,1.171,1.1758,1.1918,1.2963,1.3916,1.4296,1.5169,1.5739,1.5559,1.4285,1.319,1.2688,1.2477,1.2447,1.2639,1.2659,1.2758,1.3009,1.3303,1.3374,1.3179,1.3421,1.3338,1.2794,1.285,1.2722,1.2396,1.2271,1.2149,1.2086,1.1876,1.1805,1.1805,1.1805,1.1805,0.3392,0.4234,0.5067,0.6231,0.7975,0.9761,1.0744,1.1934,1.2995,1.3427,1.4186,1.4825,1.4852,1.5138,1.5623,1.6358,1.6472,1.6424,1.622,1.756,1.7973,1.6227,1.6539,1.6442,0.0,1.4612,1.4192,1.381,1.4858,1.5531,1.5588,1.6139,1.6466,1.6522,1.6522,1.6522,1.6522,1.6497,1.6497,1.6497,1.6471,1.5906,1.4853,1.3747,1.3223,1.3163,1.272,1.2246,1.1752,1.1223,1.0733,1.0283,1.0293,1.0591,1.0987,1.0987,1.1619,1.2413,1.2449,1.2754,1.3113,1.3173,1.3173,1.3173,1.3198,1.3198,1.3198,1.3198,1.3173,1.2897,1.1864,1.1964,1.2065,1.0973,1.155,1.219,1.1706,1.2779,1.3784,1.3661,1.438,1.5197,1.5652,1.5769,1.5589,1.4944,1.4767,1.4722,1.4707,1.358,1.2771,1.2794,1.2794,1.3167,1.406,1.4458,1.4351,1.3626,1.39,1.3511,1.2282,1.2475,1.2356,1.1833,1.2066,1.2066,1.1826,1.179,1.1805,1.1805,1.1805,1.1805,0.5026,0.6424,0.7903,0.903,1.0319,1.1582,1.2802,1.4306,1.5433,1.5647,1.5947,1.6103,1.6103,1.5494,1.5103,1.5329,1.6395,1.7082,1.6643,1.7566,1.8033,1.7361,1.6688,0.0,0.0,0.0,0.0,1.423,1.5085,1.5588,1.5588,1.6194,1.6522,1.6522,1.6522,1.6522,1.6522,1.6522,1.6522,1.6509,1.5781,1.5229,1.4878,1.3735,1.3198,1.3198,1.3012,1.2508,1.1774,1.1627,1.1029,1.0322,1.0649,1.0867,1.1046,1.1394,1.1945,1.2508,1.2508,1.2615,1.2803,1.3094,1.3198,1.3198,1.3198,1.3198,1.3198,1.3198,1.2935,1.2605,1.2228,1.2002,1.1864,1.1821,1.1851,1.1914,1.209,1.2253,1.2393,1.2561,1.345,1.4282,1.4602,1.5313,1.5574,1.4887,1.4423,1.4139,1.4139,1.3735,1.3466,1.3466,1.3466,1.3605,1.3915,1.4208,1.4265,1.4007,1.4263,1.3961,1.2901,1.2956,1.2833,1.2471,1.2117,1.2328,1.3136,1.2673,1.2471,1.2486,1.2912,1.2882,0.7074,0.841,0.99,1.1115,1.2332,1.358,1.489,1.6466,1.7719,1.7626,1.7263,1.6889,1.6662,1.5746,1.5064,1.5174,1.6198,1.6861,1.6417,1.6885,1.7155,1.6923,1.6308,1.5719,0.0,0.0,0.0,1.4806,1.5463,1.5987,1.6211,1.6393,1.6522,1.6522,1.6522,1.6522,1.6522,1.6522,1.6522,1.6509,1.5593,1.5104,1.4878,1.3935,1.3421,1.3198,1.3012,1.2508,1.1774,1.1579,1.1019,1.0361,1.0829,1.1132,1.1356,1.1872,1.2365,1.272,1.2544,1.2615,1.2803,1.3094,1.3198,1.3198,1.3198,1.3198,1.3198,1.3198,1.2947,1.2622,1.2467,1.2291,1.2215,1.2366,1.2291,1.2278,1.263,1.2429,1.226,1.2612,1.3283,1.3891,1.4193,1.4846,1.5242,1.4961,1.4534,1.4133,1.3844,1.4019,1.4169,1.4169,1.4169,1.4259,1.4498,1.4796,1.4816,1.4445,1.4701,1.4413,1.3451,1.3397,1.3327,1.3151,1.2732,1.2822,1.3436,1.3026,1.2801,1.2816,1.3241,1.3331,0.9449,1.0315,1.1208,1.2379,1.4007,1.5641,1.6921,1.8463,1.9521,1.9216,1.8185,1.7185,0.0,0.0,1.5417,1.5821,1.5942,1.585,1.5586,1.566,1.5564,0.0,0.0,0.0,0.0,0.0,0.0,1.5423,0.0,1.6582,1.7285,1.6792,1.6522,1.6522,1.6522,1.6522,1.6522,1.6522,1.6522,1.6509,1.5957,1.5404,1.489,1.4337,1.3783,1.3163,1.272,1.2246,1.1774,1.1244,1.0764,1.0361,1.0829,1.1319,1.1811,1.2282,1.2756,1.3094,1.265,1.2803,1.3198,1.3198,1.3198,1.3198,1.3198,1.3198,1.3198,1.3198,1.3198,1.3073,1.2559,1.281,1.3073,1.258,1.2822,1.3198,1.3198,1.3198,1.3323,1.3769,1.3868,1.4019,1.4438,1.447,1.4596,1.5043,1.5074,1.479,1.3987,1.4453,1.4842,1.4842,1.4842,1.5124,1.5754,1.608,1.5875,1.4899,1.5159,1.4878,1.3885,1.3855,1.3855,1.3855,1.3825,1.3525,1.2951,1.2921,1.2906,1.2906,1.2951,1.3271,1.053,1.1918,1.314,1.3418,1.4669,1.619,1.775,1.8513,1.9025,1.9268,1.7834,1.6427,1.6254,0.0,0.0,1.5367,1.6253,0.0,1.6219,1.5967,0.0,1.5164,0.0,1.4423,1.4014,1.4188,0.0,0.0,1.5406,1.6025,1.6548,1.6515,1.6522,1.6522,1.6522,1.6522,1.6522,1.6522,1.6522,1.6509,1.5957,1.5404,1.489,1.4337,1.3783,1.3198,1.3082,1.2544,1.1774,1.1664,1.1067,1.0361,1.0829,1.1094,1.1282,1.1774,1.2282,1.265,1.2544,1.2803,1.3198,1.3198,1.3198,1.3198,1.3198,1.3198,1.3198,1.3198,1.3198,1.3173,1.3023,1.3098,1.3173,1.3023,1.3098,1.3198,1.3198,1.3198,1.3232,1.3357,1.3648,1.4019,1.4438,1.4246,1.4278,1.4982,1.4845,1.4793,1.525,1.5439,1.5559,1.5559,1.5559,1.5619,1.5784,1.5885,1.5838,1.5559,1.5628,1.5327,1.4573,1.4543,1.4543,1.4543,1.4049,1.4214,1.5034,1.4539,1.4274,1.4288,1.4809,1.4869,1.1808,1.3058,1.4216,1.4767,1.5947,1.7264,1.8387,1.8953,1.9165,1.8898,1.7251,1.5806,1.5733,1.5044,1.4659,0.0,0.0,0.0,1.5766,1.5192,1.4818,0.0,1.4344,0.0,1.3809,1.3828,1.4089,0.0,1.5244,1.573,1.6338,1.6446,1.6522,1.6522,1.6522,1.6522,1.6522,1.6522,1.6522,1.6522,1.6208,1.5643,1.4903,1.4588,1.3973,1.3198,0.0,1.2473,1.1774,1.1553,1.0992,1.0361,1.1067,1.1356,1.1431,1.2138,1.2579,1.2803,1.2803,1.2978,1.3198,1.3198,1.3198,1.3198,1.3198,1.3198,1.3198,1.3198,1.3198,1.3198,1.3198,1.3198,1.3198,1.3198,1.3198,1.3198,1.3198,1.3198,1.3198,1.3198,1.3425,1.3648,1.3901,1.3735,1.3835,1.447,1.4374,1.447,1.5134,1.5551,1.5712,1.5507,1.5668,1.5799,1.5799,1.5799,1.5799,1.5799,1.5799,1.5634,1.5259,1.5244,1.5244,1.5244,1.4857,1.4887,1.5364,1.4977,1.4797,1.4797,1.5199,1.5319,1.3008,1.393,1.4858,1.61,1.7181,1.8142,1.8681,1.9149,1.907,1.7929,1.6351,1.5141,1.4987,1.5064,1.5042,1.4912,0.0,1.5303,1.5,1.4268,1.3877,1.418,1.4223,1.4218,1.4149,1.3765,1.3972,1.4975,1.5143,1.5538,1.6326,1.6446,1.6522,1.6522,1.6522,1.6522,1.6522,1.6522,1.6522,1.6522,1.6522,1.5982,1.5016,1.4863,1.4225,1.3194,0.0,0.0,1.1774,1.1319,1.0867,1.0582,1.1367,1.1737,1.1884,1.272,1.3047,1.3094,1.3094,1.3163,1.3198,1.3198,1.3198,1.3198,1.3198,1.3198,1.3198,1.3198,1.3198,1.3198,1.3198,1.3198,1.3198,1.3198,1.3198,1.3198,1.3198,1.3198,1.3198,1.3198,1.3198,1.3198,1.3198,1.3198,1.3357,1.3835,1.3901,1.4019,1.4374,1.5165,1.5551,1.5134,1.5448,1.5712,1.5712,1.5712,1.5712,1.5712,1.577,1.5799,1.5799,1.5799,1.5799,1.5799,1.5799,1.5514,1.4917,1.4917,1.4917,1.4917,1.4917,1.5231,1.3481,1.4521,1.5549,1.6232,1.6609,1.6977,1.762,1.7365,1.6692,1.5661,1.4623,1.3892,1.3799,1.3632,1.3877,1.508,1.5361,1.5508,1.5801,1.54,1.498,0.0,1.4841,1.4769,1.4417,1.3972,0.0,0.0,0.0,0.0,1.6256,1.6414,1.6522,1.6522,1.6522,1.6522,1.6522,1.6522,1.6522,1.6522,1.6522,1.6183,1.553,1.4633,1.3903,1.3238,0.0,0.0,1.1774,1.17,1.1627,1.1516,1.1244,1.1394,1.1811,1.1993,1.2282,1.2615,1.2615,1.2873,1.3198,1.3198,1.3198,1.3198,1.3198,1.3198,1.3198,1.3198,1.3198,1.3198,1.3198,1.3198,1.3198,1.3198,1.3198,1.3198,1.3198,1.3198,1.3198,1.3198,1.3198,1.3198,1.3198,1.3198,1.3357,1.3835,1.3901,1.3934,1.4,1.4721,1.5195,1.5104,1.5165,1.5225,1.5225,1.5225,1.5225,1.5225,1.558,1.5799,1.5799,1.5799,1.5799,1.5799,1.5799,1.5739,1.5634,1.5634,1.5634,1.5634,1.5634,1.5694,1.3993,1.4915,1.5884,1.7011,1.7356,1.7392,1.7077,1.6713,1.5984,1.4306,1.3558,1.3313,1.3457,1.3576,1.3946,1.4924,1.5608,1.6024,1.6056,1.6028,1.5898,1.5695,1.5347,1.5047,1.4985,1.4566,0.0,0.0,0.0,0.0,1.5934,1.6298,1.6522,1.6522,1.6522,1.6522,1.6522,1.6522,1.6522,1.6522,1.6522,1.6233,1.568,1.4824,1.403,1.3269,1.2446,0.0,1.1356,1.1105,1.118,1.1394,1.1394,1.1726,1.2174,1.2425,1.2685,1.2873,1.2873,1.3012,1.3198,1.3198,1.3198,1.3198,1.3198,1.3198,1.3198,1.3198,1.3446,1.3596,1.3273,1.3446,1.3584,1.3261,1.3198,1.3198,1.3198,1.3198,1.3198,1.3198,1.3198,1.3198,1.3198,1.3198,1.3301,1.348,1.3547,1.3547,1.3547,1.4084,1.447,1.447,1.4845,1.5013,1.4814,1.4783,1.4876,1.5104,1.5329,1.5551,1.5799,1.5799,1.5799,1.5799,1.5799,1.5799,1.5799,1.5799,1.5799,1.5799,1.5799,1.5799,1.4411,1.5231,1.6145,1.772,1.8016,1.7626,1.6506,1.6195,1.5463,1.3242,1.2856,1.2988,1.3311,1.3643,1.4004,1.4443,1.5456,1.6162,1.5969,1.6424,1.6684,1.6686,1.6009,0.0,1.5822,1.529,0.0,0.0,0.0,0.0,1.5776,1.6238,1.6522,1.6522,1.6522,1.6522,1.6522,1.6522,1.6522,1.6522,1.6522,1.6191,1.5517,1.4815,1.4011,1.308,1.204,0.0,0.0,1.0649,1.0791,1.1356,1.1653,1.2138,1.2685,1.3047,1.3198,1.3198,1.3198,1.3198,1.3198,1.3198,1.3198,1.3198,1.3198,1.3198,1.3198,1.3198,1.3546,1.3808,1.3311,1.3546,1.3808,1.3298,1.3198,1.3198,1.3198,1.3198,1.3198,1.3198,1.3198,1.3198,1.3198,1.3198,1.3198,1.3198,1.3198,1.3198,1.3198,1.3615,1.3868,1.3769,1.4406,1.4721,1.4406,1.4374,1.4533,1.4937,1.5043,1.5329,1.577,1.5799,1.5799,1.5799,1.5799,1.5799,1.5799,1.5933,1.595,1.5862,1.5965,1.5965,1.4652,1.5522,1.671,1.7827,1.7393,1.6397,1.5376,1.4995,1.4247,1.2186,1.2341,1.2891,1.293,1.2969,1.3135,1.3555,1.4573,1.5359,1.5467,1.6662,1.7411,1.7185,0.0,0.0,1.694,1.6078,0.0,0.0,0.0,0.0,0.0,1.6466,1.6522,1.6522,1.6522,1.6522,1.6522,1.6522,1.6522,1.6522,1.6522,1.6008,1.5024,1.4011,1.3219,1.2596,0.0,0.0,0.0,1.1169,1.1505,1.2318,1.1957,1.2365,1.3129,1.3198,1.3198,1.3198,1.3198,1.3198,1.3198,1.3198,1.3198,1.3198,1.3198,1.3198,1.3198,1.3198,1.3235,1.3261,1.321,1.3235,1.3261,1.321,1.3198,1.3198,1.3198,1.3198,1.3198,1.3198,1.3198,1.3198,1.3198,1.3198,1.3198,1.3198,1.3198,1.3198,1.3198,1.3615,1.3735,1.3288,1.3702,1.4,1.3967,1.3967,1.4117,1.4533,1.4907,1.5329,1.577,1.5799,1.5799,1.5799,1.5799,1.5799,1.5799,1.6338,1.6391,1.5998,1.6527,1.6562,1.552,1.6318,1.7229,1.8302,1.7787,1.6615,1.5299,1.4839,1.4102,1.2037,1.2312,1.2881,1.2881,1.2881,1.2939,1.3105,1.4277,1.53,1.5639,1.6784,1.77,1.8024,1.7456,0.0,0.0,0.0,0.0,0.0,0.0,0.0,0.0,1.6522,1.6522,1.6522,1.6522,1.6522,1.6522,1.6522,1.6522,1.6522,1.6522,1.5954,1.4953,1.4205,1.3211,1.2149,0.0,0.0,0.0,1.1094,1.1605,1.2461,1.2282,1.2615,1.3198,1.3198,1.3198,1.3198,1.3198,1.3198,1.3198,1.3198,1.3198,1.3198,1.3198,1.3198,1.3198,1.3198,1.3471,1.3647,1.3286,1.3198,1.3198,1.3198,1.3198,1.3198,1.3198,1.3198,1.3198,1.3198,1.3198,1.3198,1.3198,1.3198,1.3198,1.3198,1.3198,1.3198,1.3198,1.3357,1.3425,1.3232,1.3615,1.3802,1.348,1.3493,1.3682,1.4117,1.4533,1.4814,1.5013,1.5255,1.5389,1.5389,1.5769,1.6097,1.6353,1.6667,1.6713,1.6546,1.6789,1.6801,1.6077,1.6828,1.7544,1.8612,1.7968,1.6731,1.5501,1.4723,1.3806,1.2152,1.2296,1.2725,1.2852,1.2881,1.2881,1.2881,1.4215,1.5342,1.5816,1.7092,1.8239,1.8979,0.0,1.7715,0.0,0.0,0.0,0.0,0.0,0.0,0.0,1.6522,1.6522,1.6522,1.6522,1.6522,1.6522,1.6522,1.6522,1.6522,1.6522,1.5837,1.4518,1.4098,1.3148,1.1836,0.0,0.0,0.0,1.0981,1.1544,1.2722,1.2424,1.2782,1.3446,1.3261,1.3198,1.3198,1.3198,1.3198,1.3198,1.3198,1.3198,1.3198,1.3198,1.3198,1.3198,1.3198,1.3509,1.3722,1.3298,1.3311,1.3433,1.3235,1.3323,1.3433,1.3235,1.3198,1.3198,1.3198,1.3198,1.3198,1.3198,1.3198,1.3198,1.3198,1.3198,1.3198,1.3198,1.3198,1.3198,1.3198,1.348,1.3547,1.3232,1.3198,1.3391,1.3868,1.4181,1.4374,1.4501,1.4876,1.519,1.5408,1.598,1.6505,1.701,1.7127,1.7106,1.6966,1.7006,1.6945,1.6077,1.6828,1.7544,1.8612,1.7688,1.636,1.5821,1.4403,1.3023,1.2425,1.2262,1.2363,1.2803,1.2881,1.2881,1.2881,1.4215,1.5342,1.5816,1.7523,1.9041,0.0,0.0,1.897,0.0,0.0,0.0,0.0,0.0,0.0,0.0,1.6522,1.6522,1.6522,1.6522,1.6522,1.6522,1.6522,1.6522,1.6522,1.6522,1.5417,1.3417,1.3417,1.2834,0.0,0.0,0.0,0.0,1.0916,1.1484,1.3184,1.2187,1.2732,1.4009,1.3433,1.3198,1.3198,1.3198,1.3198,1.3198,1.3198,1.3198,1.3198,1.3198,1.3198,1.3198,1.3198,1.3198,1.321,1.3198,1.3634,1.3946,1.3323,1.3647,1.3934,1.3311,1.3198,1.3198,1.3198,1.3198,1.3198,1.3198,1.3198,1.3198,1.3198,1.3198,1.3198,1.3198,1.3198,1.3198,1.3198,1.3198,1.3198,1.3198,1.3198,1.3391,1.3868,1.3901,1.4084,1.447,1.4876,1.5422,1.6088,1.648,1.7025,1.7682,1.7815,1.7602,1.7095,1.7223,1.7008,1.704,1.7693,1.8106,1.9169,1.8232,1.6804,1.5932,1.4391,1.2965,1.2077,1.2051,1.2275,1.2412,1.2676,1.2881,1.2881,1.3531,1.4337,1.529,0.0,0.0,1.8052,1.7627,0.0,0.0,0.0,0.0,0.0,0.0,0.0,0.0,1.6522,1.6522,1.6522,1.6522,1.6522,1.6522,1.6522,1.6522,1.6522,1.6522,1.5417,1.3406,1.3406,0.0,0.0,0.0,0.0,0.0,1.1516,1.2084,1.3261,1.3338,1.3409,1.3509,1.3709,1.3546,1.3198,1.3198,1.3198,1.3198,1.3198,1.3198,1.3198,1.3198,1.3198,1.3198,1.3198,1.3198,1.3198,1.3198,1.3323,1.3446,1.3248,1.3336,1.3446,1.3235,1.3198,1.3198,1.3198,1.3198,1.3198,1.3198,1.3198,1.3198,1.3198,1.3198,1.3198,1.3198,1.3198,1.3198,1.3198,1.3198,1.3198,1.3198,1.3198,1.3267,1.3425,1.3702,1.4006,1.4206,1.4957,1.5632,1.6215,1.717,1.7895,1.8388,1.8127,1.7777,1.7237,1.7261,1.7188,1.6836,1.7487,1.7667,1.8317,1.7412,1.6155,1.5303,1.3836,1.2479,1.1813,1.1863,1.2031,1.2151,1.2588,1.2881,1.2881,1.3359,1.4182,1.5461,0.0,0.0,1.7786,0.0,0.0,0.0,0.0,0.0,0.0,0.0,0.0,0.0,0.0,1.6522,1.6522,1.6522,1.638,1.6139,1.638,1.638,1.6139,1.6168,1.5306,1.3668,1.3283,0.0,0.0,0.0,0.0,0.0,1.1811,1.2363,1.3262,1.3421,1.3504,1.3559,1.3697,1.3521,1.3198,1.3198,1.3198,1.3198,1.3198,1.3198,1.3198,1.3198,1.3198,1.3198,1.3198,1.3198,1.3198,1.3198,1.3348,1.3483,1.3248,1.3348,1.3483,1.3248,1.3198,1.3198,1.3198,1.3198,1.3198,1.3198,1.3198,1.3198,1.3198,1.3198,1.3198,1.3198,1.3198,1.3198,1.3198,1.3198,1.3198,1.3198,1.3198,1.3198,1.3198,1.3685,1.4024,1.4109,1.5008,1.588,1.6664,1.7382,1.8072,1.8765,1.8121,1.7504,1.6993,1.6993,1.6993,0.0,1.6258,1.6397,1.6385,1.5562,1.4642,1.4177,1.2854,0.0,1.1654,1.161,1.1734,1.2109,1.2559,1.2881,1.2881,1.3535,1.4528,0.0,1.7025,0.0,0.0,0.0,0.0,0.0,0.0,0.0,0.0,0.0,0.0,0.0,0.0,1.6522,1.6522,1.6522,1.6238,1.5676,1.6157,1.6089,1.5572,1.5578,1.4995,1.3907,1.2979,0.0,0.0,0.0,0.0,0.0,1.1811,1.2415,1.3186,1.277,1.3203,1.3972,1.3458,1.3235,1.3198,1.3198,1.3198,1.3198,1.3198,1.3198,1.3198,1.3198,1.3198,1.3198,1.3198,1.3198,1.3198,1.3198,1.3609,1.3896,1.3311,1.3622,1.3883,1.3311,1.3198,1.3198,1.3198,1.3198,1.3198,1.3198,1.3198,1.3198,1.3198,1.3198,1.3198,1.3198,1.3198,1.3198,1.3198,1.3198,1.3223,1.3248,1.3223,1.3223,1.3248,1.3808,1.4123,1.4198,1.5077,1.6139,1.7325,1.7263,1.773,1.8779,1.7787,1.7034,1.6522,1.6522,1.6522,1.2626,0.0,1.5274,1.5343,1.4803,1.4128,0.0,1.2327,1.1191,1.1155,1.1388,1.1636,1.1699,1.2353,1.2881,1.2881,1.3047,1.3741,1.5254,0.0,0.0,0.0,0.0,0.0,0.0,0.0,0.0,0.0,0.0,0.0,0.0,0.0,1.6522,1.6522,1.6522,1.6423,1.6281,1.5575,1.5199,1.5133,1.4675,1.3736,1.2392,1.2164,0.0,0.0,0.0,0.0,1.1244,1.2029,1.246,1.2758,1.3434,1.3601,1.3458,1.3783,1.3596,1.3198,1.3198,1.3198,1.3198,1.3198,1.3198,1.3198,1.3198,1.3198,1.3198,1.3198,1.3198,1.3198,1.3198,1.3298,1.3396,1.3223,1.3298,1.3348,1.3223,1.3198,1.3198,1.3198,1.3198,1.3198,1.3198,1.3198,1.3198,1.3198,1.3198,1.3198,1.3198,1.3198,1.3198,1.3198,1.3198,1.3408,1.3858,1.3483,1.3421,1.3871,1.4009,1.4462,1.5279,1.5919,1.678,1.7871,1.8271,1.8226,1.7666,1.7435,1.7034,1.6522,1.6522,1.6522,1.0293,1.1876,1.3415,1.317,1.3093,1.2853,1.2114,1.1459,1.0943,1.0725,1.1163,1.1606,1.1606,1.2332,1.2881,1.2881,1.3203,1.4022,0.0,0.0,1.7279,0.0,0.0,0.0,0.0,0.0,0.0,0.0,0.0,0.0,0.0,0.0,1.6522,1.6522,1.6238,1.6095,1.6095,1.5496,1.5211,1.5258,1.4481,1.3688,1.2896,1.2185,0.0,0.0,0.0,0.0,1.0764,1.1982,1.2246,1.1895,1.2732,1.2866,1.2615,1.2926,1.2854,1.2544,1.2544,1.2685,1.2873,1.2873,1.3012,1.3248,1.3534,1.3433,1.3198,1.3198,1.3198,1.3198,1.3198,1.3198,1.3198,1.3198,1.3198,1.3198,1.3198,1.3198,1.3198,1.3198,1.3198,1.3198,1.3198,1.3198,1.3198,1.3198,1.3198,1.3198,1.3198,1.3198,1.3198,1.3198,1.3198,1.3446,1.4035,1.3808,1.3883,1.4425,1.4702,1.5104,1.5668,1.6207,1.6751,1.734,1.7907,1.7747,1.6909,1.6909,1.6795,1.6522,1.6522,1.6522,0.8553,0.9879,1.1094,1.0659,1.1004,1.1185,1.0176,1.0438,1.073,1.0214,1.0971,1.166,1.1562,1.2278,1.2881,1.2881,0.0,0.0,1.6563,1.7046,0.0,0.0,0.0,0.0,0.0,0.0,0.0,0.0,0.0,0.0,0.0,0.0,0.0,1.6396,1.5801,1.548,1.548,1.545,1.5409,1.537,1.4418,1.3925,1.3836,1.2522,0.0,0.0,0.0,0.0,1.0505,1.1836,1.1836,1.1057,1.1579,1.1811,1.1811,1.1811,1.1811,1.1811,1.1811,1.2066,1.2401,1.2401,1.272,1.3169,1.37,1.3561,1.3198,1.3198,1.3198,1.3198,1.3198,1.3198,1.3198,1.3198,1.3198,1.3198,1.3198,1.3198,1.3198,1.3198,1.3198,1.3198,1.3198,1.3198,1.3198,1.3198,1.3198,1.3223,1.3311,1.3248,1.3235,1.3311,1.3323,1.3584,1.416,1.4286,1.4576,1.513,1.548,1.5731,1.5819,1.6355,1.6595,1.6522,1.7034,1.7034,1.6522,1.6522,1.6522,1.6522,1.6522,1.6522,0.7863,0.8265,0.8569,0.8958,0.9394,0.9621,0.9062,0.96,1.0049,0.9419,1.0801,1.1935,1.1389,1.2177,1.2881,0.0,0.0,1.5509,0.0,0.0,0.0,0.0,0.0,0.0,0.0,0.0,0.0,0.0,0.0,0.0,0.0,0.0,0.0,1.5819,1.5274,1.4997,1.4997,1.4514,1.4289,1.4325,1.3706,1.3203,1.281,1.2585,1.2166,0.0,0.0,1.1431,1.0943,1.1616,1.1542,1.1057,1.1579,1.1811,1.1811,1.1811,1.1811,1.1811,1.1811,1.1847,1.192,1.192,1.221,1.2627,1.271,1.2969,1.3198,1.3198,1.3198,1.3198,1.3198,1.3198,1.3198,1.3198,1.3198,1.3198,1.3198,1.3198,1.3198,1.3198,1.3198,1.3198,1.3198,1.3198,1.3198,1.3198,1.3198,1.3396,1.3909,1.3521,1.3421,1.3909,1.3959,1.4186,1.4739,1.5178,1.568,1.6233,1.5906,1.5906,1.6371,1.6912,1.6951,1.6522,1.7034,1.7034,1.6522,1.6522,1.6522,1.6522,1.6522,1.6522,0.7118,0.732,0.7489,0.7731,0.8407,0.8903,0.8545,0.9045,0.952,0.9371,1.0291,1.1161,1.119,0.0,1.2953,1.3776,0.0,0.0,0.0,0.0,0.0,0.0,0.0,0.0,0.0,0.0,0.0,0.0,0.0,0.0,0.0,0.0,0.0,0.0,1.5205,1.4765,1.4462,1.4186,1.4354,1.4946,1.4135,1.3614,1.3388,1.3093,1.2548,1.1811,0.0,1.1726,1.1046,1.159,1.1319,1.0649,1.0878,1.0992,1.0992,1.0992,1.0992,1.0992,1.0992,1.118,1.1431,1.17,1.2102,1.2591,1.3203,1.3283,1.3261,1.3584,1.3458,1.3198,1.3198,1.3198,1.3198,1.3198,1.3198,1.3198,1.3198,1.3198,1.3198,1.3198,1.3198,1.3198,1.3198,1.3198,1.3298,1.3634,1.3672,1.3873,1.4462,1.4274,1.4212,1.45,1.4525,1.4752,1.5306,1.5542,1.5932,1.6484,1.6283,1.6258,1.6509,1.6752,1.6752,1.6522,1.6752,1.6752,1.6522,1.6522,1.6522,1.6522,1.6522,1.6522,0.6587,0.68,0.7041,0.7108,0.7757,0.8372,0.8165,0.8639,0.9183,0.9221,0.997,1.07,1.1037,1.1936,0.0,1.4437,0.0,0.0,0.0,0.0,0.0,0.0,0.0,0.0,0.0,0.0,0.0,0.0,0.0,0.0,0.0,0.0,0.0,0.0,1.5004,1.445,1.3896,1.4022,1.4513,1.5304,1.4488,1.4175,1.4283,1.3736,1.3067,1.2348,1.2448,1.2054,1.1345,1.1542,1.118,1.0467,1.0361,1.0283,1.0283,1.0283,1.0283,1.0322,1.0428,1.0687,1.1094,1.1627,1.2102,1.2651,1.3458,1.3488,1.3286,1.3783,1.3559,1.3198,1.3198,1.3198,1.3198,1.3198,1.3198,1.3198,1.3198,1.3198,1.3235,1.3396,1.3421,1.3471,1.3561,1.3622,1.376,1.4211,1.4274,1.4475,1.5029,1.4991,1.4966,1.5053,1.5104,1.5291,1.5844,1.5881,1.607,1.6497,1.6522,1.6522,1.6522,1.6522,1.6522,1.6522,1.6522,1.6522,1.6522,1.6522,1.6522,1.6522,1.6522,1.6522,0.6587,0.68,0.7088,0.7368,0.7524,0.7568,0.7551,0.8493,0.9219,0.8629,1.0186,1.1522,1.0923,1.195,1.3153,1.399,0.0,0.0,0.0,0.0,0.0,0.0,0.0,0.0,0.0,0.0,0.0,0.0,0.0,0.0,0.0,0.0,0.0,0.0,0.0,1.3883,1.3261,1.3833,1.4123,1.4198,1.4123,1.4374,1.4801,1.4299,1.3987,1.3875,1.2938,1.2473,1.2318,1.1431,1.1008,1.0905,1.0467,1.0283,1.0283,1.0283,1.0283,1.0361,1.0791,1.0981,1.1094,1.1627,1.2102,1.2508,1.2579,1.2897,1.321,1.3248,1.3223,1.3198,1.3198,1.3198,1.3198,1.3198,1.3198,1.3198,1.3198,1.3198,1.3348,1.3934,1.4035,1.4186,1.4702,1.479,1.4802,1.484,1.4853,1.5054,1.5567,1.523,1.5104,1.558,1.563,1.5856,1.6409,1.6459,1.6471,1.6522,1.6522,1.6522,1.6522,1.6522,1.6522,1.6522,1.6522,1.6522,1.6522,1.6522,1.6522,1.6522,1.6522,1.6522,0.6357,0.6841,0.7281,0.7208,0.7475,0.7802,0.7989,0.8249,0.8477,0.8437,0.9539,1.0836,0.0,0.0,1.3457,0.0,0.0,0.0,0.0,0.0,0.0,0.0,0.0,0.0,0.0,0.0,0.0,0.0,0.0,0.0,0.0,0.0,0.0,0.0,0.0,1.4148,1.4249,1.4148,1.4085,1.4097,1.479,1.5041,1.4903,1.4689,1.4223,1.3534,1.3099,1.2768,1.2437,1.1763,1.1319,1.0943,1.0467,1.0467,1.0687,1.039,1.0283,1.0361,1.0829,1.1019,1.1132,1.1957,1.2354,1.2544,1.2838,1.3047,1.3198,1.3198,1.3198,1.3198,1.3198,1.3198,1.3198,1.3198,1.3496,1.3783,1.3783,1.4011,1.4312,1.4563,1.4601,1.4664,1.4878,1.4916,1.5029,1.5329,1.5379,1.558,1.6132,1.6019,1.5969,1.6183,1.6208,1.6283,1.6497,1.6522,1.6522,1.6522,1.6522,1.6522,1.6522,1.6522,1.6522,1.6522,1.6522,1.6522,1.6522,1.6522,1.6522,1.6522,1.6522,1.6522,0.6303,0.6908,0.7486,0.7335,0.7752,0.8311,0.8762,0.8616,0.8484,0.879,0.9708,1.0904,1.2364,0.0,0.0,0.0,0.0,0.0,0.0,0.0,0.0,0.0,0.0,0.0,0.0,0.0,0.0,0.0,0.0,0.0,0.0,0.0,0.0,0.0,0.0,0.0,1.4916,1.4702,1.4614,1.4614,1.5329,1.5316,1.4651,1.4651,1.4199,1.3483,1.3273,1.3012,1.2685,1.221,1.1726,1.1207,1.0725,1.0725,1.0943,1.0649,1.0505,1.0572,1.1094,1.1356,1.1579,1.2282,1.2615,1.2791,1.3094,1.3198,1.3198,1.3198,1.3198,1.3198,1.3198,1.3198,1.3198,1.3198,1.3647,1.4085,1.4085,1.4525,1.4966,1.513,1.5128,1.523,1.5367,1.5392,1.5517,1.5906,1.5957,1.6095,1.6471,1.6522,1.6522,1.6522,1.6522,1.6522,1.6522,1.6522,1.6522,1.6522,1.6522,1.6522,1.6522,1.6522,1.6522,1.6522,1.6522,1.6522,1.6522,1.6522,1.6522,1.6522,1.6522,1.6522,0.652,0.7063,0.7587,0.7856,0.8428,0.9054,0.9664,0.961,0.946,0.9739,1.0855,1.2021,1.2764,1.2881,0.0,0.0,0.0,0.0,0.0,0.0,0.0,0.0,0.0,0.0,0.0,0.0,0.0,0.0,0.0,0.0,0.0,0.0,0.0,0.0,0.0,0.0,1.4928,1.5417,1.568,1.568,1.568,1.5155,1.4097,1.4085,1.4085,1.4047,1.3471,1.3198,1.3163,1.2685,1.221,1.1737,1.1207,1.1019,1.1008,1.1019,1.1019,1.1094,1.1627,1.2102,1.2508,1.2508,1.2838,1.3198,1.3198,1.3198,1.3198,1.3198,1.3198,1.3198,1.3198,1.3198,1.3198,1.3198,1.3647,1.4085,1.4085,1.4525,1.504,1.5593,1.5706,1.5881,1.6421,1.6522,1.6522,1.6479,1.6479,1.6479,1.6479,1.6522,1.6522,1.6479,1.6522,1.6522,1.6479,1.6522,1.6522,1.6522,1.6522,1.6522,1.6522,1.6522,1.6522,1.6522,1.6522,1.6522,1.6522,1.6522,1.6522,1.6522,1.6522,1.6522,0.6867,0.7174,0.767,0.8436,0.8741,0.9127,1.0003,0.969,0.9342,0.9756,1.0532,1.1371,1.227,0.0,0.0,0.0,0.0,0.0,0.0,0.0,0.0,0.0,0.0,0.0,0.0,0.0,0.0,0.0,0.0,0.0,0.0,0.0,0.0,0.0,0.0,0.0,1.5442,1.4878,1.4576,1.4576,1.4966,1.4979,1.4651,1.4261,1.3871,1.3471,1.3273,1.3198,1.3129,1.233,1.2102,1.2174,1.0992,1.1132,1.1982,1.1282,1.1244,1.1616,1.2138,1.2389,1.2544,1.2908,1.3094,1.3198,1.3198,1.3198,1.3198,1.3198,1.2943,1.2791,1.3129,1.2943,1.272,1.272,1.342,1.4012,1.363,1.4545,1.5492,1.5668,1.6007,1.6321,1.6497,1.6522,1.638,1.5908,1.5864,1.5864,1.5864,1.6238,1.6337,1.5908,1.6238,1.6324,1.5908,1.6238,1.6522,1.6522,1.6522,1.6522,1.6522,1.6522,1.6522,1.6522,1.6522,1.6522,1.6522,1.6522,1.6522,1.6522,1.6522,1.6522,0.7168,0.7637,0.8208,0.8907,0.9597,1.0159,1.0495,1.0238,1.0038,1.0499,1.0839,1.1277,1.1869,0.0,0.0,0.0,0.0,0.0,0.0,0.0,0.0,0.0,0.0,0.0,0.0,0.0,0.0,0.0,0.0,0.0,0.0,0.0,0.0,0.0,0.0,0.0,1.568,1.4853,1.4412,1.4412,1.4525,1.4576,1.4576,1.4236,1.3783,1.3198,1.3198,1.3198,1.3163,1.2579,1.2508,1.265,1.1394,1.1542,1.2389,1.1616,1.1653,1.2102,1.2389,1.2615,1.2791,1.2908,1.306,1.3198,1.3198,1.3082,1.2908,1.2908,1.2579,1.2282,1.2579,1.2437,1.2258,1.2473,1.3168,1.3705,1.3356,1.442,1.5476,1.5652,1.6132,1.6522,1.6522,1.6281,1.6008,1.5632,1.541,1.5231,1.5231,1.5776,1.6008,1.5632,1.6139,1.6337,1.6008,1.6281,1.6522,1.6522,1.6522,1.6522,1.6522,1.6522,1.6522,1.6522,1.6522,1.6522,1.6522,1.6522,1.6522,1.6522,1.6522,1.6522,0.752,0.8222,0.9011,0.943,1.0722,1.1776,1.117,1.1179,1.1334,1.1407,0.0,1.1547,1.1547,0.0,0.0,0.0,0.0,0.0,0.0,0.0,0.0,0.0,0.0,0.0,0.0,0.0,0.0,0.0,0.0,0.0,0.0,0.0,0.0,0.0,0.0,0.0,1.5542,1.5041,1.4765,0.0,1.4249,1.4009,1.4009,1.4009,1.3709,1.3198,1.3198,1.3198,1.3198,1.3163,1.3129,1.3047,1.2102,1.2029,1.2425,1.192,1.2066,1.2496,1.2461,1.2733,1.3012,1.2615,1.2756,1.3094,1.3116,1.2803,1.2437,1.2508,1.2138,1.1737,1.1847,1.1811,1.1847,1.2246,1.2792,1.3184,1.3231,1.4134,1.5071,1.5599,1.6132,1.6466,1.6423,1.5952,1.5543,1.5454,1.496,1.4606,1.4606,1.5141,1.5543,1.5543,1.6051,1.638,1.6337,1.6436,1.6479,1.6423,1.6466,1.6522,1.6522,1.6522,1.6522,1.6522,1.6522,1.6522,1.6522,1.6522,1.6522,1.6522,1.6522,1.6522,0.8163,0.8564,0.9158,1.0252,1.158,1.2551,1.2034,1.1953,1.1618,1.0312,1.0576,1.1055,0.0,0.0,0.0,0.0,0.0,0.0,0.0,0.0,0.0,0.0,0.0,0.0,0.0,0.0,0.0,0.0,0.0,0.0,0.0,0.0,0.0,0.0,0.0,1.3973,1.4437,1.386,1.3549,0.0,1.3471,1.3408,1.3408,1.3408,1.3311,1.3198,1.3198,1.3198,1.3163,1.2791,1.265,1.2544,1.1579,1.1726,1.2389,1.1505,1.1726,1.2437,1.2066,1.2029,1.2138,1.2389,1.2318,1.2174,1.2544,1.2318,1.2029,1.2389,1.1872,1.1356,1.2126,1.1763,1.1207,1.1308,1.173,1.223,1.2655,1.356,1.4558,1.5524,1.6132,1.6337,1.5864,1.5676,1.5264,1.4318,1.4097,1.4003,1.4003,1.4514,1.488,1.488,1.541,1.5599,1.5107,1.5976,1.6281,1.582,1.6238,1.6522,1.6522,1.6522,1.6522,1.6522,1.6522,1.6522,1.6522,1.6522,1.6522,1.6522,1.6522,1.6522,0.8806,0.9257,0.9946,1.1442,1.2363,1.2773,1.2334,1.218,1.1914,1.0781,1.0742,0.0,0.0,0.0,0.0,0.0,0.0,0.0,0.0,0.0,0.0,0.0,0.0,0.0,0.0,0.0,0.0,0.0,0.0,0.0,0.0,0.0,0.0,0.0,1.4061,1.3795,1.4085,1.3509,1.3198,1.3198,1.3198,1.3198,1.3198,1.3198,1.3198,1.3198,1.2943,1.2873,1.2838,1.2354,1.2174,1.2102,1.1319,1.1468,1.2066,1.1282,1.1505,1.2138,1.1884,1.1811,1.1847,1.2102,1.1993,1.1847,1.2102,1.1993,1.1811,1.1799,1.1383,1.1132,1.1653,1.1383,1.1019,1.1019,1.1394,1.1945,1.2478,1.3388,1.4425,1.5486,1.6132,1.6293,1.572,1.5129,1.4411,1.3505,1.3372,1.3372,1.3372,1.3873,1.4376,1.4652,1.4971,1.5287,1.5522,1.5876,1.6051,1.6051,1.6337,1.6522,1.6522,1.6522,1.6522,1.6522,1.6522,1.6522,1.6522,1.6522,1.6522,1.6522,1.6522,1.6522,0.9269,1.0043,1.0985,1.2531,1.2881,1.2783,1.2422,1.2344,1.2236,1.191,1.1377,0.0,0.0,0.0,0.0,0.0,0.0,0.0,0.0,0.0,0.0,0.0,0.0,0.0,0.0,0.0,0.0,0.0,0.0,0.0,0.0,0.0,1.5065,1.4601,1.4186,1.3946,1.3946,1.3458,1.3198,1.3198,1.3198,1.3198,1.3198,1.3198,1.3163,1.3047,1.2685,1.2461,1.2365,1.1957,1.1737,1.1627,1.1169,1.1282,1.159,1.1057,1.1207,1.1664,1.159,1.1553,1.1553,1.1627,1.1627,1.159,1.1737,1.1664,1.1479,1.1207,1.1019,1.0905,1.0981,1.0943,1.0905,1.0981,1.1496,1.208,1.2602,1.3379,1.4341,1.5583,1.6026,1.6008,1.541,1.4365,1.3457,1.2968,1.2881,1.2881,1.2881,1.3334,1.3873,1.4468,1.456,1.4971,1.6107,1.582,1.582,1.6324,1.6423,1.6522,1.6522,1.6522,1.6522,1.6522,1.6522,1.6522,1.6522,1.6522,1.6522,1.6522,1.6522,1.6522,0.9548,1.0646,1.1809,1.2706,1.2881,1.2861,1.2812,1.2793,1.2773,0.0,0.0,0.0,0.0,0.0,0.0,0.0,0.0,0.0,0.0,0.0,0.0,0.0,0.0,0.0,0.0,0.0,0.0,0.0,0.0,0.0,0.0,1.4036,1.3498,1.3423,1.3348,1.3311,1.3311,1.3235,1.3198,1.3198,1.3198,1.3198,1.3198,1.3198,1.2978,1.2579,1.2544,1.2282,1.1884,1.1811,1.1542,1.1094,1.1019,1.1046,1.1057,1.0582,1.0687,1.1057,1.0659,1.0505,1.0582,1.0981,1.084,1.0659,1.1553,1.118,1.0659,1.1479,1.1067,1.0505,1.0905,1.0687,1.0505,1.0905,1.1746,1.2625,1.3202,1.339,1.4052,1.6039,1.5608,1.4744,1.4143,1.3467,1.2968,1.2929,1.2881,1.2881,1.2881,1.2978,1.3238,1.3873,1.3909,1.419,1.488,1.5365,1.5632,1.572,1.6194,1.6522,1.6522,1.6522,1.6522,1.6522,1.6522,1.6522,1.6522,1.6522,1.6522,1.6522,1.6522,1.6522,1.0612,1.1625,1.2501,1.2822,1.2881,1.2881,1.2881,1.2881,1.2881,1.2881,0.0,0.0,0.0,0.0,0.0,0.0,0.0,0.0,0.0,0.0,0.0,0.0,0.0,0.0,0.0,0.0,0.0,0.0,0.0,0.0,1.4488,1.4249,1.3873,1.3223,1.3198,1.3198,1.3198,1.3198,1.3198,1.3198,1.3198,1.3198,1.3198,1.3198,1.2943,1.2508,1.2508,1.2066,1.1356,1.1356,1.1057,1.0611,1.0611,1.0611,1.0572,1.04,1.0428,1.0572,1.0361,1.0283,1.0322,1.0544,1.0467,1.039,1.085,1.084,1.0725,1.0916,1.084,1.0725,1.0943,1.0829,1.084,1.1319,1.203,1.2715,1.3211,1.4035,1.4969,1.5818,1.5005,1.4097,1.3862,1.3286,1.2881,1.2881,1.2881,1.2881,1.2881,1.2881,1.3152,1.3732,1.3515,1.3826,1.5096,1.5141,1.5365,1.6051,1.6337,1.6522,1.6522,1.6522,1.6522,1.6522,1.6522,1.6522,1.6522,1.6522,1.6522,1.6522,1.6522,1.6522,1.1487,1.2344,1.2881,1.2881,1.2881,1.2881,1.2881,0.0,1.2881,0.0,0.0,0.0,0.0,0.0,0.0,0.0,0.0,0.0,0.0,0.0,0.0,0.0,0.0,0.0,0.0,0.0,0.0,0.0,0.0,0.0,1.4362,1.4551,1.4224,1.3223,1.3198,1.3198,1.3198,1.3198,1.3198,1.3198,1.3198,1.3198,1.3198,1.3198,1.2943,1.2508,1.2508,1.1945,1.1019,1.1019,1.0725,1.0283,1.0283,1.0283,1.0283,1.0283,1.0283,1.0283,1.0283,1.0283,1.0283,1.0283,1.039,1.0505,1.0659,1.0916,1.1132,1.0764,1.084,1.1019,1.1019,1.0988,1.1148,1.1804,1.2346,1.2851,1.3342,1.4481,1.5405,1.5194,1.4411,1.3732,1.36,1.32,1.2881,1.2881,1.2881,1.2881,1.2881,1.2881,1.3065,1.3505,1.3152,1.3563,1.5231,1.4971,1.5197,1.6423,1.6522,1.6522,1.6522,1.6522,1.6522,1.6522,1.6522,1.6522,1.6522,1.6522,1.6522,1.6522,1.6672,1.666,1.1756,1.2344,1.2881,1.2881,1.2881,1.2881,0.0,0.0,0.0,0.0,0.0,0.0,0.0,0.0,0.0,0.0,0.0,0.0,0.0,0.0,0.0,0.0,0.0,0.0,0.0,0.0,0.0,0.0,0.0,0.0,1.4903,1.44,1.3858,1.3223,1.3198,1.3198,1.3198,1.3198,1.3198,1.3198,1.3198,1.3198,1.3198,1.3198,1.2943,1.2508,1.2508,1.1945,1.1019,1.1019,1.0725,1.0283,1.0283,1.0283,1.0283,1.0283,1.0283,1.0283,1.0283,1.0283,1.0283,1.0283,1.0611,1.1057,1.159,1.1737,1.1737,1.1737,1.1356,1.1019,1.1019,1.0953,1.1155,1.2145,1.2719,1.3235,1.3893,1.4417,1.4573,1.4003,1.3815,1.3637,1.3065,1.2929,1.2881,1.2881,1.2881,1.2881,1.2881,1.2881,1.2929,1.2929,1.2929,1.3382,1.4652,1.4709,1.5197,1.6423,1.6522,1.6522,1.6522,1.6522,1.6522,1.6522,1.6522,1.6522,1.6522,1.6522,1.6522,1.6491,1.7087,1.7049,1.2501,1.2715,1.2881,1.2881,1.2881,1.2881,1.2881,1.2881,0.0,0.0,0.0,0.0,0.0,0.0,0.0,0.0,0.0,0.0,0.0,0.0,0.0,0.0,0.0,0.0,0.0,0.0,0.0,0.0,0.0,0.0,1.4425,1.4186,1.3833,1.3223,1.3198,1.3198,1.3198,1.3198,1.3198,1.3198,1.3198,1.3198,1.3198,1.3198,1.3094,1.2943,1.2943,1.2198,1.1019,1.1356,1.1019,1.0283,1.0283,1.0283,1.0283,1.0283,1.0283,1.0283,1.0283,1.0505,1.0764,1.0764,1.1333,1.2042,1.2244,1.2321,1.2244,1.1937,1.1442,1.1082,1.1475,1.1236,1.1243,1.2521,1.2922,1.3205,1.3785,1.4025,1.405,1.3815,1.3505,1.3152,1.2929,1.2881,1.2881,1.2881,1.2881,1.2881,1.2881,1.2881,1.2881,1.2881,1.2881,1.3248,1.405,1.4468,1.5062,1.5864,1.6281,1.6522,1.6522,1.6522,1.6522,1.6522,1.6522,1.6522,1.6522,1.6522,1.671,1.7074,1.7287,1.7463,1.2881,1.2881,1.2881,1.2881,1.2881,1.2881,1.2881,0.0,0.0,0.0,0.0,0.0,0.0,0.0,0.0,0.0,0.0,0.0,0.0,0.0,0.0,0.0,0.0,0.0,0.0,0.0,0.0,0.0,0.0,0.0,1.4135,1.4085,1.3833,1.3223,1.3198,1.3198,1.3198,1.3198,1.3198,1.3198,1.3198,1.3198,1.3198,1.3198,1.3198,1.3198,1.3198,1.2567,1.1505,1.1737,1.1292,1.0505,1.0361,1.0283,1.0283,1.0283,1.0283,1.0283,1.0283,1.0495,1.0791,1.0943,1.1719,1.263,1.2785,1.2938,1.2997,1.2709,1.207,1.1551,1.1998,1.1746,1.1626,1.2791,1.3017,1.3052,1.3396,1.3505,1.3505,1.3505,1.3152,1.2881,1.2881,1.2881,1.2881,1.2881,1.2881,1.2881,1.2881,1.2881,1.2881,1.2881,1.2881,1.3248,1.405,1.4468,1.5062,1.5864,1.6281,1.6522,1.6522,1.6522,1.6522,1.6522,1.6522,1.6522,1.6522,1.6522,1.681,1.7388,1.7564,1.8041,0.0,0.0,0.0,1.2881,1.2881,1.2881,1.2881,0.0,0.0,0.0,0.0,0.0,0.0,0.0,0.0,0.0,0.0,0.0,0.0,0.0,0.0,0.0,0.0,0.0,0.0,0.0,0.0,0.0,0.0,1.4664,1.416,1.4123,1.3871,1.3261,1.3235,1.3223,1.3223,1.321,1.3198,1.3198,1.3198,1.3198,1.3198,1.3198,1.3198,1.3198,1.3198,1.2943,1.2473,1.1993,1.1468,1.0943,1.0467,1.0283,1.0283,1.0283,1.0322,1.0322,1.0322,1.0322,1.0428,1.0867,1.1757,1.2657,1.3129,1.3611,1.3986,1.4006,1.3186,1.2331,1.2529,1.2427,1.2418,1.279,1.2861,1.2861,1.2881,1.2881,1.2881,1.2881,1.2881,1.2881,1.2881,1.2881,1.2881,1.2881,1.2881,1.2881,1.2881,1.2881,1.2881,1.2881,1.2881,1.3382,1.4571,1.4698,1.5197,1.638,1.6466,1.6522,1.6522,1.6522,1.6522,1.6522,1.6522,1.6522,1.6522,1.6522,1.6823,1.7426,1.799,1.8807,1.2881,0.0,0.0,0.0,0.0,0.0,1.2881,1.3115,1.3242,0.0,0.0,0.0,0.0,0.0,0.0,0.0,0.0,0.0,0.0,0.0,0.0,0.0,0.0,0.0,0.0,0.0,0.0,0.0,1.4844,1.4742,1.4586,1.4658,1.4614,1.4425,1.3692,1.3448,1.3858,1.3092,1.2873,1.3198,1.3198,1.3198,1.3198,1.3198,1.3012,1.272,1.306,1.2943,1.2473,1.1993,1.1468,1.0943,1.0467,1.0283,1.0283,1.0283,1.0505,1.0802,1.0802,1.1057,1.1404,1.1553,1.2023,1.2619,1.2735,1.3089,1.3275,1.2674,1.2421,1.2235,1.1952,1.2183,1.2422,1.2404,1.2412,1.25,1.2812,1.2881,1.2881,1.2881,1.2881,1.2881,1.2881,1.2881,1.2881,1.2881,1.2881,1.2881,1.2881,1.2881,1.2881,1.2881,1.2881,1.3017,1.3382,1.4201,1.4835,1.5164,1.602,1.6522,1.6522,1.6522,1.6522,1.6522,1.6522,1.6522,1.6522,1.6522,1.7024,1.8003,1.8932,1.9522,0.0,1.2881,1.2881,1.2881,0.0,0.0,1.2881,1.3066,1.3263,0.0,0.0,0.0,0.0,0.0,0.0,0.0,0.0,0.0,0.0,0.0,0.0,0.0,0.0,0.0,0.0,0.0,0.0,0.0,1.4607,1.4488,1.4488,1.4725,1.4787,1.4514,1.3949,1.3655,1.3692,1.3094,1.2943,1.3198,1.3198,1.3198,1.3198,1.3012,1.2768,1.2508,1.2579,1.2473,1.2174,1.1653,1.1394,1.1244,1.0582,1.0283,1.0283,1.0283,1.0467,1.0725,1.0943,1.1094,1.1255,1.1664,1.2034,1.239,1.2749,1.2976,1.3128,1.2877,1.2496,1.2027,1.1687,1.1717,1.1908,1.2126,1.218,1.2353,1.2783,1.2881,1.2881,1.2881,1.2881,1.2881,1.2881,1.2881,1.2881,1.2881,1.2881,1.2881,1.2881,1.2881,1.2881,1.2881,1.2881,1.3017,1.3238,1.4154,1.4789,1.505,1.5964,1.6522,1.6522,1.6522,1.6522,1.6522,1.6522,1.6635,1.6886,1.6886,1.7451,1.8568,1.9409,1.9798,0.0,0.0,0.0,0.0,0.0,0.0,1.2958,1.3017,1.3152,0.0,0.0,0.0,0.0,0.0,0.0,0.0,0.0,0.0,0.0,0.0,0.0,0.0,0.0,0.0,0.0,0.0,1.5355,1.472,1.4299,1.4041,1.3988,1.4606,1.4725,1.4204,1.4132,1.3852,1.3314,1.3227,1.3226,1.3198,1.3163,1.3129,1.3094,1.265,1.2401,1.2318,1.1957,1.1774,1.1664,1.1207,1.1282,1.1627,1.0659,1.0283,1.0283,1.0283,1.0322,1.0428,1.0867,1.0725,1.0544,1.1442,1.1735,1.1882,1.2644,1.2893,1.3057,1.3707,1.2858,1.1735,1.1558,1.1162,1.1055,1.1943,1.2112,1.2285,1.2773,1.2881,1.2881,1.2881,1.2881,1.2881,1.2881,1.2881,1.2881,1.2881,1.2881,1.2881,1.2881,1.2881,1.2881,1.2881,1.2881,1.3104,1.3637,1.4329,1.4926,1.5454,1.6151,1.6522,1.6522,1.6522,1.6522,1.6522,1.6522,1.681,1.7388,1.7438,1.8003,1.8983,1.956,1.9773,0.0,0.0,0.0,0.0,0.0,0.0,1.3423,1.3637,1.3779,0.0,0.0,0.0,0.0,0.0,0.0,0.0,0.0,0.0,0.0,0.0,0.0,0.0,0.0,0.0,0.0,0.0,1.4643,1.4049,1.4338,1.4373,1.3874,1.4885,1.542,1.529,1.4507,1.4246,1.4548,1.3703,1.3252,1.3198,1.2838,1.265,1.2615,1.2138,1.1689,1.1308,1.1664,1.1542,1.1169,1.1046,1.1057,1.1094,1.0505,1.0283,1.0283,1.0283,1.0544,1.0867,1.0981,1.0943,1.0905,1.1094,1.0902,1.0655,1.0814,1.1356,1.1979,1.2428,1.1844,1.1092,1.1057,1.0723,1.0625,1.1528,1.1734,1.1949,1.2705,1.2881,1.2881,1.2881,1.2881,1.2881,1.2881,1.2881,1.2881,1.2881,1.2881,1.2881,1.2881,1.2881,1.2881,1.2881,1.2881,1.2978,1.3065,1.4061,1.4744,1.488,1.5876,1.6522,1.6522,1.6522,1.6522,1.6522,1.6522,1.681,1.7388,1.7827,1.838,1.8983,1.956,1.9572,0.0,0.0,0.0,1.2239,0.0,0.0,0.0,1.3879,1.4422,1.5005,0.0,0.0,0.0,0.0,0.0,0.0,0.0,0.0,0.0,0.0,0.0,0.0,0.0,0.0,0.0,0.0,1.4778,1.3862,1.4097,1.4097,1.3815,1.4641,1.5141,1.5141,1.4679,1.4434,1.4435,1.3937,1.3508,1.3198,1.272,1.2508,1.2473,1.1726,1.1244,1.1019,1.1029,1.0916,1.0649,1.0649,1.0649,1.0611,1.039,1.0283,1.0283,1.0283,1.0467,1.0687,1.0905,1.0829,1.0687,1.0905,1.0687,1.0322,1.0537,1.0889,1.1279,1.1504,1.1103,1.0596,1.0596,1.0439,1.0439,1.1084,1.1439,1.1783,1.2412,1.2725,1.2881,1.2881,1.2881,1.2881,1.2881,1.2881,1.2881,1.2881,1.2881,1.2881,1.2881,1.2881,1.2881,1.2881,1.2881,1.2881,1.2881,1.3742,1.4376,1.4698,1.5555,1.6194,1.6479,1.6522,1.6522,1.6522,1.6522,1.681,1.7388,1.7664,1.8078,1.8631,1.8882,1.8869,0.0,0.0,0.0,0.0,0.0,1.3384,0.0,0.0,0.0,1.562,0.0,0.0,0.0,0.0,0.0,0.0,0.0,0.0,0.0,0.0,0.0,0.0,0.0,0.0,0.0,0.0,1.4868,1.3695,1.3805,1.3815,1.3647,1.419,1.456,1.4698,1.4771,1.457,1.4197,1.4237,1.3837,1.3047,1.2579,1.2318,1.2162,1.1282,1.0867,1.0829,1.0467,1.0283,1.0283,1.0283,1.0283,1.0283,1.0283,1.0283,1.0283,1.0283,1.0283,1.0351,1.0725,1.0611,1.0361,1.0753,1.0611,1.0361,1.0781,1.0908,1.0928,1.1006,1.0732,1.04,1.04,1.04,1.0508,1.0937,1.1367,1.1816,1.2256,1.2627,1.2881,1.2881,1.2881,1.2881,1.2881,1.2881,1.2881,1.2881,1.2881,1.2881,1.2881,1.2881,1.2881,1.2881,1.2881,1.2881,1.2881,1.3467,1.405,1.4663,1.5276,1.5864,1.6479,1.6522,1.6522,1.6522,1.6522,1.6748,1.7212,1.7212,1.7551,1.8204,1.8204,1.8141,0.0,0.0,0.0,0.0,1.1836,0.0,0.0,0.0,1.5223,1.6194,0.0,0.0,0.0,0.0,0.0,0.0,0.0,0.0,0.0,0.0,0.0,0.0,0.0,0.0,0.0,0.0,0.0,1.3095,1.3826,1.3965,1.3036,1.3552,1.4143,1.4698,1.4699,1.474,1.4799,1.4814,1.4063,1.2579,1.2102,1.1616,1.1159,1.0611,1.039,1.04,1.0322,1.0283,1.0283,1.0283,1.0283,1.0283,1.0283,1.0283,1.0283,1.0283,1.0283,1.0322,1.0361,1.0361,1.0322,1.0361,1.0361,1.0361,1.0781,1.0908,1.0996,1.142,1.1172,1.084,1.084,1.084,1.0947,1.143,1.1826,1.2275,1.2715,1.2842,1.2881,1.2881,1.2881,1.2881,1.2881,1.2881,1.2881,1.2881,1.2881,1.2881,1.2881,1.2881,1.2881,1.2881,1.2881,1.2881,1.2881,1.3467,1.405,1.4663,1.5276,1.5864,1.6479,1.6522,1.6522,1.6522,1.6522,1.6547,1.6609,1.6609,1.7162,1.8204,1.8204,1.794,0.0,0.0,0.0,0.0,0.0,0.0,1.4094,0.0,1.5555,0.0,0.0,0.0,0.0,0.0,0.0,0.0,0.0,0.0,0.0,0.0,0.0,0.0,0.0,0.0,0.0,0.0,0.0,0.0,0.0,1.3342,1.2939,1.3152,1.3552,1.4143,1.4514,1.4729,1.4817,1.4871,1.4236,1.2948,1.2167,1.1516,1.0981,1.0505,1.0283,1.0283,1.0283,1.0283,1.0283,1.0283,1.0283,1.0283,1.0283,1.0283,1.0283,1.0283,1.0283,1.0283,1.0283,1.0283,1.0283,1.0283,1.0283,1.0312,1.0488,1.0713,1.0898,1.0881,1.0859,1.085,1.0605,1.0547,1.0596,1.0812,1.1348,1.1895,1.2116,1.252,1.2881,1.2881,1.2881,1.2881,1.2881,1.2881,1.2881,1.2881,1.2881,1.2881,1.2881,1.2881,1.2881,1.2881,1.2881,1.2881,1.2881,1.3152,1.3563,1.4143,1.5096,1.5864,1.6479,1.6522,1.6522,1.6522,1.6522,1.6522,1.6522,1.6522,1.676,1.7225,1.7225,1.7099,1.1136,0.0,0.0,0.0,0.0,0.0,0.0,0.0,0.0,0.0,0.0,0.0,0.0,0.0,0.0,0.0,0.0,0.0,0.0,0.0,0.0,0.0,0.0,0.0,0.0,0.0,0.0,0.0,1.2988,0.0,1.2891,1.2881,1.32,1.3768,1.4376,1.4743,1.482,1.4731,1.4142,1.308,1.2084,1.1319,1.0802,1.0467,1.0283,1.0283,1.0283,1.0283,1.0283,1.0283,1.0283,1.0283,1.0283,1.0283,1.0283,1.0283,1.0283,1.0283,1.0283,1.0283,1.0283,1.0283,1.0283,1.0283,1.0283,1.0576,1.085,1.0537,1.0674,1.084,1.0537,1.0449,1.0449,1.0449,1.1057,1.1636,1.1763,1.2246,1.2744,1.2861,1.2881,1.2881,1.2881,1.2881,1.2881,1.2881,1.2881,1.2881,1.2881,1.2881,1.2881,1.2881,1.2881,1.2881,1.2881,1.2881,1.3248,1.4003,1.5039,1.5864,1.6479,1.6522,1.6522,1.6522,1.6522,1.6522,1.6522,1.6522,1.6522,1.6522,1.6522,1.6522,0.0,0.0,0.0,1.1194,0.0,0.0,0.0,0.0,1.4215,0.0,0.0,0.0,0.0,0.0,1.427,1.5416,1.5183,0.0,0.0,0.0,0.0,0.0,0.0,0.0,0.0,0.0,0.0,1.3008,1.3262,0.0,1.29,1.2881,1.32,1.3768,1.4376,1.4743,1.482,1.4332,1.3611,1.2619,1.1545,1.0802,1.0322,1.0322,1.0283,1.0283,1.0283,1.0283,1.0283,1.0283,1.0283,1.0283,1.0283,1.0283,1.0283,1.0283,1.0283,1.0283,1.0283,1.0283,1.0283,1.0283,1.0283,1.0283,1.0283,1.0576,1.0908,1.0889,1.0898,1.0908,1.0889,1.0889,1.0889,1.0889,1.123,1.1724,1.2109,1.218,1.2383,1.2803,1.2881,1.2881,1.2881,1.2881,1.2881,1.2881,1.2881,1.2881,1.2881,1.2881,1.2881,1.2881,1.2881,1.2881,1.2881,1.2881,1.343,1.4606,1.5276,1.5864,1.6479,1.6522,1.6522,1.6522,1.6522,1.6522,1.6522,1.6522,1.6522,1.6522,1.6522,1.6522,0.0,0.0,1.04,1.0986,0.0,0.0,0.0,0.0,0.0,0.0,0.0,0.0,0.0,0.0,1.3431,1.4834,1.4658,1.4281,0.0,0.0,0.0,0.0,0.0,0.0,0.0,0.0,0.0,1.2988,1.3018,1.3027,0.0,1.2881,1.2968,1.32,1.3779,1.4299,1.4732,1.3929,1.3515,1.3561,1.1847,1.0868,1.0684,1.041,1.0283,1.0283,1.0283,1.0283,1.0283,1.0283,1.0283,1.0283,1.0283,1.0283,1.0283,1.0283,1.0283,1.0283,1.0283,1.0283,1.0283,1.0283,1.0283,1.0283,1.0283,1.0576,1.085,1.0576,1.0693,1.085,1.0566,1.0488,1.0488,1.0488,1.1035,1.1645,1.1758,1.2246,1.2705,1.2852,1.2881,1.2881,1.2881,1.2881,1.2881,1.2881,1.2881,1.2881,1.2881,1.2881,1.2881,1.2881,1.2881,1.2881,1.2881,1.2881,1.343,1.4617,1.488,1.5466,1.6479,1.6522,1.6522,1.6522,1.6522,1.6522,1.6522,1.6522,1.6522,1.6522,1.6522,1.6522,1.0542,1.0627,0.0,1.1064,1.1455,0.0,1.3121,0.0,0.0,0.0,0.0,0.0,0.0,0.0,1.2797,1.401,1.3926,1.366,0.0,1.3152,0.0,0.0,0.0,0.0,0.0,0.0,1.3552,1.2978,1.2881,1.2881,0.0,0.0,1.2881,1.2881,1.3505,1.4003,1.4376,1.3587,1.3346,1.374,1.1848,1.0955,1.0889,1.0478,1.0283,1.0283,1.0283,1.0283,1.0273,1.0117,1.0137,1.0264,1.0107,1.0146,1.0283,1.0283,1.0283,1.0283,1.0283,1.0283,1.0283,1.0283,1.0283,1.0283,1.0283,1.0684,1.1016,1.0439,1.0811,1.1211,1.0469,1.0391,1.0469,1.0312,1.082,1.141,1.1567,1.2139,1.2695,1.2852,1.2881,1.2881,1.2881,1.2881,1.2881,1.2881,1.2881,1.2881,1.2881,1.2881,1.2881,1.2881,1.2881,1.2881,1.2881,1.2881,1.3334,1.4329,1.456,1.5152,1.6139,1.638,1.6522,1.6522,1.6522,1.6522,1.6522,1.6522,1.6522,1.6522,1.6522,1.6522]},{"header":{"parameterUnit":"m.s-1","parameterCategory":1,"la1":30.6,"la2":29.2853,"lo1":-89.7004,"lo2":-87.6739,"dy":0.0162,"dx":0.0183,"nx":112,"ny":82,"refTime":"2023-11-19T06:00:00:Z","depth":0,"parameterNumber":3,"parameterNumberName":"V-component_of_WINDS"},"data":[0.0,0.0,0.0,0.0,0.0,0.0,0.0,0.0,0.0,0.0,0.0,0.0,0.0,0.0,0.0,0.0,0.0,0.0,0.0,0.0,0.0,0.0,0.0,0.0,0.0,0.0,0.0,0.0,0.0,0.0,0.0,0.0,0.0,0.0,0.0,0.0,0.0,0.0,0.0,0.0,0.0,0.0,0.0,0.0,0.0,0.0,0.0,0.0,0.0,0.0,0.0,0.0,0.0,0.0,0.0,0.0,0.0,0.0,0.0,0.0,0.0,0.0,0.0,0.0,0.0,0.0,0.0,0.0,0.0,0.0,0.0,0.0,0.0,0.0,0.0,0.0,0.0,0.0,0.0,0.0,0.0,0.0,0.0,0.0,0.0,0.0,0.0,0.0,0.0,0.0,0.0,0.37,-0.0903,-0.4436,-0.5537,-0.6834,-0.8393,-1.023,0.0,0.0,0.0,0.0,0.0,0.0,0.0,0.0,0.0,0.0,0.0,0.0,0.0,0.0,0.0,0.0,0.0,0.0,0.0,0.0,0.0,0.0,0.0,0.0,0.0,0.0,0.0,0.0,0.0,0.0,0.0,0.0,0.0,0.0,0.0,0.0,0.0,0.0,0.0,0.0,0.0,0.0,0.0,0.0,0.0,0.0,0.0,0.0,0.0,0.0,0.0,0.0,0.0,0.0,0.0,0.0,0.0,0.0,0.0,0.0,0.0,0.0,0.0,0.0,0.0,0.0,0.0,0.0,0.0,0.0,0.0,0.0,0.0,0.0,0.0,0.0,0.0,0.0,0.0,0.0,0.0,0.0,0.0,0.0,0.0,0.0,0.0,0.0,0.0,0.0,0.0,0.0,0.0,0.0,0.0,0.0,0.0,0.0,0.0,0.0,0.0,0.0,0.0,0.0,0.31,0.0901,-0.2135,-0.4353,-0.5201,-0.6703,-0.841,-1.0352,0.0,0.0,0.0,0.0,0.0,0.0,0.0,0.0,0.0,0.0,0.0,0.0,0.0,0.0,0.0,0.0,0.0,0.0,0.0,0.0,0.0,0.0,0.0,0.0,0.0,0.0,0.0,0.0,0.0,0.0,0.0,0.0,0.0,0.0,0.0,0.0,0.0,0.0,0.0,0.0,0.0,0.0,0.0,0.0,0.0,0.0,0.0,0.0,0.0,0.0,0.0,0.0,0.0,0.0,0.0,0.0,0.0,0.0,0.0,0.0,0.0,0.0,0.0,0.0,0.0,0.0,0.0,0.0,0.0,0.0,0.0,0.0,0.0,0.0,0.0,0.0,0.0,0.0,0.0,0.0,0.0,0.0,0.0,0.0,0.0,0.0,0.0,0.0,0.0,0.0,0.0,0.0,0.0,0.0,0.0,0.0,0.0,0.0,0.0,0.0,0.0,0.0,0.0,0.4263,0.2786,0.0376,-0.1938,-0.3802,-0.509,-0.6285,-0.7876,-0.9988,-1.0643,0.0,0.0,0.0,0.0,0.0,0.0,0.0,0.0,0.0,0.0,0.0,0.0,0.0,0.0,0.0,0.0,0.0,0.0,0.0,0.0,0.0,0.0,0.0,0.0,0.0,0.0,0.0,0.0,0.0,0.0,0.0,0.0,0.0,0.0,0.0,0.0,0.0,0.0,0.0,0.0,0.0,0.0,0.0,0.0,0.0,0.0,0.0,0.0,0.0,0.0,0.0,0.0,0.0,0.0,0.0,0.0,0.0,0.0,0.0,0.0,0.0,0.0,0.0,0.0,0.0,0.0,0.0,0.0,0.0,0.0,0.0,0.0,0.0,0.0,0.0,0.0,0.0,0.0,0.0,0.0,0.0,0.0,0.0,0.0,0.0,0.0,0.0,0.0,0.0,0.0,0.0,0.0,0.0,0.0,0.0,0.0,0.0,0.0,0.0,0.0,0.0,0.0,0.3811,0.2712,0.0364,-0.1568,-0.3348,-0.4909,-0.5892,-0.7367,-0.9591,-1.0275,0.0,0.0,0.0,0.0,0.0,0.0,0.0,0.0,0.0,0.0,0.0,0.0,0.0,0.0,0.0,0.0,0.0,0.0,0.0,0.0,0.0,0.0,0.0,0.0,0.0,0.0,0.0,0.0,0.0,0.0,0.0,0.0,0.0,0.0,0.0,0.0,0.0,0.0,0.0,0.0,0.0,0.0,0.0,0.0,0.0,0.0,0.0,0.0,0.0,0.0,0.0,0.0,0.0,0.0,0.0,0.0,0.0,0.0,0.0,0.0,0.0,0.0,0.0,0.0,0.0,0.0,0.0,0.0,0.0,0.0,0.0,0.0,0.0,0.0,0.0,0.0,0.0,0.0,0.0,0.0,0.0,0.0,0.0,0.0,0.0,0.0,0.0,0.0,0.0,0.0,0.0,0.0,0.0,0.0,0.0,0.0,0.0,0.0,0.0,0.0,0.0,0.0,0.3893,0.2894,0.0122,-0.1692,-0.3237,-0.4535,-0.5708,-0.7301,-0.9404,-1.0017,0.0,0.0,0.0,0.0,0.0,0.0,0.0,0.0,0.0,0.0,0.0,0.0,0.0,0.0,0.0,0.0,0.0,0.0,0.0,0.0,0.0,0.0,0.0,0.0,0.0,0.0,0.0,0.0,0.0,0.0,0.0,0.0,0.0,0.0,0.0,0.0,0.0,0.0,0.0,0.0,0.0,0.0,0.0,0.0,0.0,0.0,0.0,0.0,0.0,0.0,0.0,0.0,0.0,0.0,0.0,0.0,0.0,0.0,0.0,0.0,0.0,0.0,0.0,0.0,0.0,0.0,0.0,0.0,0.0,0.0,0.0,0.0,0.0,0.0,0.0,0.0,0.0,0.0,0.0,0.0,0.0,0.0,0.0,0.0,0.0,0.0,0.0,0.0,0.0,0.0,0.0,0.0,0.0,0.0,0.0,0.0,0.0,0.0,0.0,0.0,0.0,0.0,0.4444,0.3509,0.0,-0.1414,-0.3032,-0.3854,-0.4984,-0.6614,-0.8843,0.0,0.0,0.0,0.0,0.0,0.0,0.0,0.0,0.0,0.0,0.0,0.0,0.0,0.0,0.0,0.0,0.0,0.0,0.0,0.0,0.0,0.0,0.0,0.0,0.0,0.0,0.0,0.0,0.0,0.0,0.0,0.0,0.0,0.0,0.0,0.0,0.0,0.0,0.0,0.0,0.0,0.0,0.0,0.0,0.0,0.0,0.0,0.0,0.0,0.0,0.0,0.0,0.0,0.0,0.0,0.0,0.0,0.0,0.0,0.0,0.0,0.0,0.0,0.0,0.0,0.0,0.0,0.0,0.0,0.0,0.0,0.0,0.0,0.0,0.0,0.0,0.0,0.0,0.0,0.0,0.0,0.0,0.0,0.0,0.0,0.0,0.0,0.0,0.0,0.0,0.0,0.0,0.0,0.0,0.0,0.0,0.0,0.0,0.0,0.0,0.0,0.0,0.4724,0.461,0.3659,0.0,-0.1003,-0.26,-0.3433,-0.4558,-0.6141,-0.836,0.0,0.0,0.0,0.0,0.0,0.0,0.0,0.0,0.0,0.0,0.0,0.0,0.0,0.0,0.0,0.0,0.0,0.0,0.0,0.0,0.0,0.0,0.0,0.0,0.0,0.0,0.0,0.0,0.0,0.0,0.0,0.0,0.0,0.0,0.0,0.0,0.0,0.0,0.0,0.0,0.0,0.0,0.0,0.0,0.0,0.0,0.0,0.0,0.0,0.0,0.0,0.0,0.0,0.0,0.0,0.0,0.0,0.0,0.0,0.0,0.0,0.0,0.0,0.0,0.0,0.0,0.0,0.0,0.0,0.0,0.0,0.0,0.0,0.0,0.0,0.0,0.0,0.0,0.0,0.0,0.0,0.0,0.0,0.0,0.0,0.0,0.0,0.0,0.0,0.0,0.0,0.0,0.0,0.0,0.0,0.0,0.0,0.0,0.0,0.0,0.0,0.0,0.4732,0.4253,0.3204,0.1135,-0.0401,-0.1899,-0.3375,-0.4544,-0.602,0.0,0.0,0.0,0.0,0.0,0.0,0.0,0.0,0.0,0.0,0.0,0.0,0.0,0.0,0.0,0.0,0.0,0.0,0.0,0.0,0.0,0.0,0.0,0.0,0.0,0.0,0.0,0.0,0.0,0.0,0.0,0.0,0.0,0.0,0.0,0.0,0.0,0.0,0.0,0.0,0.0,0.0,0.0,0.0,0.0,0.0,0.0,0.0,0.0,0.0,0.0,0.0,0.0,0.0,0.0,0.0,0.0,0.0,0.0,0.0,0.0,0.0,0.0,0.0,0.0,0.0,0.0,0.0,0.0,0.0,0.0,0.0,0.0,0.0,0.0,0.0,0.0,0.0,0.0,0.0,0.0,0.0,0.0,0.0,0.0,0.0,0.0,0.0,0.0,0.0,0.0,0.0,0.0,0.0,0.0,0.0,0.0,0.0,0.0,0.0,0.0,0.0,0.0,0.5517,0.4383,0.302,0.137,-0.0133,-0.1534,-0.2827,-0.4321,-0.5816,-0.7224,0.0,0.0,0.0,0.0,0.0,0.0,0.0,0.0,0.0,0.0,0.0,0.0,0.0,0.0,0.0,0.0,0.0,0.0,0.0,0.0,0.0,0.0,0.0,0.0,0.0,0.0,0.0,0.0,0.0,0.0,0.0,0.0,0.0,0.0,0.0,0.0,0.0,0.0,0.0,0.0,0.0,0.0,0.0,0.0,0.0,0.0,0.0,0.0,0.0,0.0,0.0,0.0,0.0,0.0,0.0,0.0,0.0,0.0,0.0,0.0,0.0,0.0,0.0,0.0,0.0,0.0,0.0,0.0,0.0,0.0,0.0,0.0,0.0,0.0,0.0,0.0,0.0,0.0,0.0,0.0,0.0,0.0,0.0,0.0,0.0,0.0,0.0,0.0,0.0,0.0,0.0,0.0,0.0,0.0,0.0,0.0,0.0,0.0,0.0,0.0,0.0,0.0,0.6105,0.457,0.3082,0.1968,0.0433,-0.1133,-0.2563,-0.3832,-0.5104,-0.6444,0.0,0.0,0.0,0.0,0.0,0.0,0.0,0.0,0.0,0.0,0.0,0.0,0.0,0.0,0.0,0.0,0.0,0.0,0.0,0.0,0.0,0.0,0.0,0.0,0.0,0.0,0.0,0.0,0.0,0.0,0.0,0.0,0.0,0.0,0.0,0.0,0.0,0.0,0.0,0.0,0.0,0.0,0.0,0.0,0.0,0.0,0.0,0.0,0.0,0.0,0.0,0.0,0.0,0.0,0.0,0.0,0.0,0.0,0.0,0.0,0.0,0.0,0.0,0.0,0.0,0.0,0.0,0.0,0.0,0.0,0.0,0.0,0.0,0.0,0.0,0.0,0.0,0.0,0.0,0.0,0.0,0.0,0.0,0.0,0.0,0.0,0.0,0.0,0.0,0.0,0.0,0.0,0.0,0.0,0.0,0.0,0.0,0.0,0.0,0.0,0.0,0.0,0.6563,0.479,0.3314,0.2761,0.113,-0.0632,-0.2395,-0.3111,-0.4166,-0.5696,0.0,0.0,0.0,0.0,0.0,0.0,0.0,0.0,0.0,0.0,0.0,0.0,0.0,0.0,0.0,0.0,0.0,0.0,0.0,0.0,0.0,0.0,0.0,0.0,0.0,0.0,0.0,0.0,0.0,0.0,0.0,0.0,0.0,0.0,0.0,0.0,0.0,0.0,0.0,0.0,0.0,0.0,0.0,0.0,0.0,0.0,0.0,0.0,0.0,0.0,0.0,0.0,0.0,0.0,0.0,0.0,0.0,0.0,0.0,0.0,0.7087,0.0,0.0,0.0,0.0,0.0,0.0,0.0,0.0,0.0,0.0,0.0,0.0,0.0,0.0,0.0,0.0,0.0,0.0,0.0,0.0,0.0,0.0,0.0,0.0,0.0,0.0,0.0,0.0,0.0,0.0,0.0,0.0,0.0,0.0,0.0,0.0,0.0,0.0,0.0,0.0,0.0,0.7043,0.5184,0.3588,0.2798,0.1499,0.0167,-0.1168,-0.2651,-0.4139,-0.5621,-0.7202,0.0,0.0,0.0,0.0,0.0,0.0,0.0,0.0,0.0,0.0,0.0,0.0,0.0,0.0,0.0,0.0,0.0,0.0,0.0,0.0,0.0,0.0,0.0,0.0,0.0,0.0,0.0,0.0,0.0,0.0,0.0,0.0,0.0,0.0,0.0,0.0,0.0,0.0,0.0,0.0,0.0,0.0,0.0,0.0,0.0,0.0,0.0,0.0,0.0,0.0,0.0,0.0,0.0,0.0,0.0,0.0,0.0,0.0,0.0,0.0,0.9856,0.0,0.0,0.0,0.0,0.0,0.0,0.0,0.0,0.0,0.0,0.0,0.0,0.0,0.0,0.0,0.0,0.0,0.0,0.0,0.0,0.0,0.0,0.0,0.0,0.0,0.0,0.0,0.0,0.0,0.0,0.0,0.0,0.0,0.0,0.0,0.0,0.0,0.0,0.0,0.0,0.7468,0.5436,0.3756,0.3155,0.2302,0.1171,-0.0334,-0.2109,-0.3687,-0.5003,-0.6572,0.0,0.0,0.0,0.0,0.0,0.0,0.0,0.0,0.0,0.0,0.0,0.0,0.0,0.0,0.0,0.0,0.0,0.0,0.0,0.0,0.0,0.0,0.0,0.0,0.0,0.0,0.0,0.0,0.0,0.0,0.0,0.0,0.0,0.0,0.0,0.0,0.0,0.0,0.0,0.0,0.0,0.0,0.0,0.0,0.0,0.0,0.0,0.0,0.0,0.0,0.0,0.0,0.0,0.0,1.474,1.4975,1.4912,1.4612,1.4182,1.4543,1.3802,1.2343,0.0,0.0,0.0,0.0,0.0,0.0,0.0,0.0,0.0,0.0,0.0,0.0,0.0,0.0,0.0,0.0,0.0,0.0,0.0,0.0,0.0,0.0,0.0,0.0,0.0,0.8515,0.8893,0.0,0.0,0.0,0.0,0.0,0.0,0.0,0.0,0.0,0.0,0.0,0.0,0.774,0.5645,0.4048,0.3644,0.3043,0.2011,0.0301,-0.1462,-0.2926,-0.4047,-0.5825,-0.7166,0.0,0.0,0.0,0.0,0.0,0.0,0.0,0.0,0.0,0.0,0.0,0.0,0.0,0.0,0.0,0.0,0.0,0.0,0.0,0.0,0.0,0.0,0.0,0.0,0.0,0.0,0.0,0.0,0.0,0.0,0.0,0.0,1.4542,1.3095,0.0,0.0,0.0,0.0,0.0,0.0,0.0,0.0,0.0,0.0,0.0,0.0,0.0,0.0,1.3958,1.4629,1.4868,1.4662,1.4617,1.4564,1.449,1.4413,1.4263,1.402,1.3965,0.0,1.3411,1.1334,0.0,0.0,0.0,0.0,0.0,0.0,0.0,0.0,0.0,0.0,0.0,0.0,0.0,0.0,0.0,0.0,0.0,0.0,0.0,0.0,0.0,0.0,0.9246,0.8044,0.7625,0.7359,0.0,0.7669,0.8718,0.9765,0.0,0.0,0.0,0.0,0.0,0.0,0.0,0.0,0.7413,0.5923,0.477,0.4021,0.3196,0.2167,0.0901,-0.0597,-0.1905,-0.2847,-0.4989,-0.6655,-0.7611,-0.8197,0.0,0.0,0.0,0.0,0.0,0.0,0.0,0.0,0.0,0.0,0.0,0.0,0.0,0.0,0.0,0.0,0.0,0.0,0.0,0.0,0.0,0.0,0.0,0.0,0.0,0.0,0.0,0.0,0.0,1.6543,1.6083,1.4808,1.4101,1.3575,0.0,0.0,0.0,0.0,0.0,0.0,0.0,0.0,0.0,1.395,1.442,1.4659,1.4582,1.4748,1.4769,1.4638,1.4419,1.4294,1.4217,1.3977,1.3762,1.3596,1.3548,1.3557,1.3528,1.2256,1.335,1.5636,0.0,0.0,0.0,0.0,0.0,1.5976,1.5111,0.0,0.0,0.0,0.0,0.0,0.0,0.0,0.0,0.0,0.0,0.0,0.0,0.0,0.0,0.802,0.7621,0.7573,0.7618,0.7974,0.85,0.0,0.9361,0.9925,1.1474,0.0,0.0,0.0,0.0,0.0,0.7643,0.6118,0.4897,0.4086,0.3225,0.2501,0.1945,0.0399,-0.096,-0.1873,-0.3335,-0.4953,-0.67,-0.7705,-0.8879,0.0,0.0,0.0,0.0,0.0,0.0,0.0,0.0,0.0,0.0,0.0,0.0,0.0,0.0,0.0,0.0,0.0,0.0,0.0,0.0,0.0,0.0,0.0,0.0,0.0,0.0,0.0,0.0,1.7415,1.7523,1.654,1.528,1.4605,0.0,0.0,0.0,0.0,0.0,0.0,1.6101,1.5203,1.4645,1.4599,1.4755,1.4781,1.4705,1.4545,1.4427,1.4338,1.4089,1.3949,1.3912,1.3606,1.3343,1.3124,1.3193,1.3291,1.3396,1.3277,1.4119,1.5376,1.4431,1.5132,1.6571,1.5774,1.5555,1.557,1.4934,1.3795,1.2672,1.2832,0.0,1.3419,1.3004,0.0,0.0,0.0,0.0,1.2506,1.0719,0.0,0.9375,0.7944,0.765,0.7766,0.7918,0.7972,0.8122,0.0,0.939,1.0372,1.1558,0.0,0.0,0.0,0.0,0.9085,0.7866,0.6442,0.5206,0.4403,0.3649,0.3064,0.2719,0.1468,0.0232,-0.0895,-0.201,-0.3429,-0.5164,-0.6696,-0.8108,-0.9334,0.0,0.0,0.0,0.0,0.0,0.0,0.0,0.0,0.0,0.0,0.0,0.0,0.0,0.0,0.0,0.0,0.0,0.0,0.0,0.0,0.0,0.0,0.0,0.0,0.0,0.0,0.0,0.0,0.0,1.7124,1.604,0.0,0.0,0.0,0.0,1.8232,1.68,1.6289,1.7431,1.5838,1.4794,1.4611,1.4607,1.4466,1.4144,1.4137,1.3975,1.3644,1.363,1.3556,1.3429,1.3396,1.3105,1.2649,1.2889,1.3056,1.3136,1.3447,1.4083,1.4876,1.5187,1.561,1.6011,1.577,1.5603,1.5255,1.3457,1.2318,1.1776,1.2401,1.3988,1.532,1.3607,1.4787,0.0,0.0,1.2454,1.1963,0.9901,0.865,0.7871,0.765,0.741,0.7241,0.7237,0.7757,0.8376,0.0,0.8559,0.8402,0.9537,0.0,0.9734,0.9564,0.9574,0.9131,0.7851,0.6948,0.6106,0.5237,0.4744,0.4011,0.2798,0.2629,0.1828,0.0033,-0.1613,-0.263,-0.2865,-0.5016,-0.6906,-0.842,-0.7598,0.0,0.0,0.0,0.0,0.0,0.0,0.0,0.0,0.0,0.0,0.0,0.0,0.0,0.0,0.0,0.0,0.0,0.0,0.0,0.0,0.0,0.0,0.0,0.0,0.0,0.0,0.0,0.0,1.8854,1.777,0.0,1.775,1.7352,1.7531,1.8645,1.7543,1.696,1.7258,1.5569,1.4483,1.4276,1.4192,1.409,1.3975,1.3846,1.3719,1.3601,1.3345,1.3175,1.3138,1.2778,1.253,1.2352,1.2431,1.2247,1.19,1.2327,1.3288,1.45,1.4676,1.4825,1.4903,1.4832,1.4709,1.4471,1.3484,1.2415,1.1447,1.1305,1.1802,1.2535,1.2917,1.3124,1.3108,1.25,1.1412,1.023,0.9481,0.8589,0.7855,0.7797,0.7709,0.7576,0.7272,0.7531,0.7753,0.7561,0.7841,0.8356,0.9192,0.9,0.8887,0.9334,0.9116,0.8503,0.7385,0.681,0.6175,0.53,0.4692,0.4112,0.3579,0.3031,0.2437,0.1791,0.0099,-0.0922,-0.0973,-0.2868,-0.4735,-0.6508,-0.7282,-0.8074,0.0,0.0,0.0,0.0,0.0,0.0,0.0,0.0,0.0,0.0,0.0,0.0,0.0,0.0,0.0,0.0,0.0,0.0,0.0,0.0,0.0,0.0,0.0,0.0,0.0,0.0,1.9804,1.9798,1.8602,1.8139,1.9077,1.8242,1.8047,1.8963,1.7655,1.6856,1.6896,1.5202,1.4142,1.3939,1.3849,1.3783,1.3726,1.3603,1.3524,1.3524,1.3158,1.3013,1.2979,1.2549,1.2291,1.2205,1.2205,1.1947,1.157,1.1873,1.2742,1.3858,1.3819,1.3856,1.397,1.4045,1.399,1.3743,1.2862,1.202,1.1189,1.0387,1.0546,1.1177,1.1907,1.1796,1.1405,1.1271,1.0281,0.9218,0.8909,0.8362,0.7899,0.7899,0.7856,0.768,0.7287,0.7286,0.7219,0.6689,0.7282,0.7955,0.8259,0.8177,0.8236,0.8736,0.8549,0.8125,0.7508,0.7004,0.6471,0.5914,0.5103,0.4556,0.4407,0.353,0.2858,0.2609,0.1489,0.0517,-0.0096,-0.1658,-0.3247,-0.4808,-0.6133,-0.6776,-0.6664,0.0,0.0,0.0,0.0,0.0,0.0,0.0,0.0,0.0,0.0,0.0,0.0,0.0,0.0,0.0,0.0,0.0,0.0,0.0,0.0,0.0,0.0,0.0,1.9088,1.9538,1.9966,1.9763,1.8446,1.8159,1.9689,1.7687,1.7177,1.9318,1.7162,1.5984,1.6501,1.4899,1.3865,1.3636,1.362,1.3543,1.3413,1.3413,1.3413,1.343,1.3169,1.3043,1.3043,1.2767,1.2479,1.2216,1.2216,1.2205,1.2159,1.2159,1.2478,1.2934,1.2695,1.2899,1.3328,1.3523,1.3509,1.3126,1.1491,1.1026,1.0994,0.9828,1.0523,1.1679,1.0719,1.1075,1.1433,0.964,0.9204,0.9079,0.8167,0.7944,0.7959,0.7929,0.7783,0.7573,0.7284,0.7085,0.6893,0.6684,0.6967,0.7104,0.6685,0.7255,0.7759,0.7657,0.7838,0.0,0.8241,0.756,0.71,0.7109,0.6071,0.5341,0.5242,0.4182,0.3214,0.2492,0.2418,0.159,-0.0214,-0.1365,-0.2411,-0.3393,-0.4075,-0.3698,-0.228,0.0,0.0,0.0,0.0,0.0,0.0,0.0,0.0,0.0,0.0,0.0,0.0,0.0,0.0,0.0,0.0,0.0,0.0,0.0,0.0,0.0,0.0,2.1488,2.0475,2.0555,2.0153,1.861,1.8689,1.876,1.8474,1.8226,1.8342,1.8935,1.7702,1.6936,1.6923,1.5941,1.5003,1.428,1.4052,1.3924,1.3826,1.3639,1.3796,1.4272,1.4012,1.3863,1.3863,1.3582,1.316,1.2644,1.2644,1.2192,1.147,1.147,1.1677,1.205,1.2639,1.3093,1.3379,1.3429,1.3192,1.2685,1.1671,1.125,1.1014,1.0333,1.0431,1.0864,1.1116,1.0588,0.9876,0.9905,0.9465,0.8955,0.8695,0.8978,0.9233,0.8755,0.8781,0.871,0.8,0.8008,0.8076,0.7875,0.7923,0.7694,0.6754,0.7105,0.7313,0.6701,0.0,0.0,0.7237,0.6898,0.6773,0.7082,0.5984,0.5378,0.5698,0.4653,0.3916,0.3704,0.3007,0.2557,0.2445,0.1441,0.0209,-0.122,-0.1954,-0.221,0.0,0.0,0.0,0.0,0.0,0.0,0.0,0.0,0.0,0.0,0.0,0.0,0.0,0.0,0.0,0.0,0.0,0.0,0.0,0.0,0.0,0.0,2.2079,2.237,2.1456,2.0937,2.0151,1.8812,1.8586,1.8468,1.8231,1.7907,1.795,1.8501,1.7434,1.6829,1.693,1.607,1.5395,1.4969,1.4529,1.4365,1.4468,1.4159,1.4215,1.4599,1.4327,1.4208,1.4208,1.392,1.36,0.0,1.2936,1.2441,1.1867,1.1576,1.1606,0.0,0.0,0.0,0.0,0.0,1.2962,1.2495,1.1664,1.1206,1.0937,1.065,1.0563,1.0705,1.142,1.0771,0.9899,1.0333,0.9894,0.9308,0.9308,0.9608,0.98,0.9413,0.9365,0.9233,0.8637,0.8558,0.8545,0.8342,0.0,0.0,0.747,0.7576,0.7637,0.7238,0.7361,0.7512,0.0,0.7168,0.7083,0.7316,0.6453,0.592,0.6129,0.5103,0.0,0.0,0.0,0.345,0.354,0.2916,0.0,0.0,0.0,0.1235,0.2286,0.0,0.0,0.0,1.4331,1.5788,0.0,0.0,0.0,0.0,0.0,0.0,0.0,0.0,0.0,0.0,0.0,0.0,0.0,0.0,0.0,0.0,2.3309,2.3174,2.2114,2.1057,2.0185,1.9653,1.8508,1.7945,1.8455,1.7291,1.6953,1.808,1.6969,1.6458,1.6919,0.0,0.0,0.0,0.0,1.484,1.5217,1.4833,1.4648,1.4727,1.4488,1.439,1.4366,1.4147,1.3989,1.3885,1.3196,1.2899,1.2802,1.2193,1.2125,1.2338,1.215,1.2437,1.2942,1.2942,1.2778,0.0,0.0,0.0,0.0,1.0902,1.0902,1.1022,1.1625,1.1386,1.0902,1.0902,1.0533,1.0114,1.0114,1.0114,1.0099,1.0024,0.9767,0.9512,0.9252,0.896,0.8697,0.8518,0.8863,0.9075,0.865,0.8474,0.8401,0.8478,0.8243,0.0,0.8265,0.7934,0.7695,0.7695,0.0,0.0,0.6575,0.5598,0.4872,0.462,0.4601,0.4371,0.3901,0.381,0.37,0.361,0.4055,0.5612,0.8294,0.9455,1.1007,1.2939,1.4758,1.4958,0.0,0.0,0.0,0.0,0.0,0.0,0.0,0.0,0.0,0.0,0.0,0.0,0.0,0.0,0.0,2.2808,2.3264,2.341,2.2653,2.1836,2.0755,1.9224,1.9499,1.9337,1.8073,1.82,1.8228,1.7917,1.815,1.8364,1.8454,1.8011,0.0,1.7782,1.6094,1.5417,1.5894,1.5148,1.5046,1.5576,0.0,0.0,1.5493,1.5452,1.5124,1.4558,1.3899,1.3407,1.3106,1.2983,1.3097,1.3256,1.2694,1.2558,1.2668,1.2668,1.251,1.2256,1.2075,1.1826,1.161,1.161,1.161,1.164,1.176,1.1715,0.0,1.161,1.1521,1.1431,1.1431,1.1431,1.1296,1.0738,1.0613,1.0445,0.9867,0.9702,0.9629,0.9592,0.9679,0.9855,1.0168,0.9516,0.879,0.8411,0.8382,0.8325,0.8083,0.7792,0.7627,0.7686,0.7181,0.689,0.699,0.6473,0.6051,0.58,0.5776,0.5732,0.5616,0.5813,0.6179,0.6798,0.7157,0.8055,0.9478,1.0254,1.0982,1.1698,1.3939,1.4863,0.0,0.0,0.0,0.0,0.0,0.0,0.0,0.0,0.0,0.0,0.0,2.2833,0.0,0.0,2.3342,2.3312,2.3428,2.331,2.2605,2.2192,2.149,2.0187,2.0135,1.987,1.8995,1.9249,1.9316,1.892,1.9224,1.9353,1.916,1.8831,1.8616,1.8561,1.7239,1.6693,1.7145,1.6215,1.5905,1.6263,1.5948,1.5799,1.5799,1.5799,1.5619,1.5274,1.4588,1.4186,1.3959,1.3274,1.2884,1.2706,1.2706,1.2654,1.2623,1.283,1.2609,1.2169,1.206,1.1897,1.185,1.2179,1.2284,1.2358,1.2703,1.2807,1.2807,1.2807,1.2553,1.2284,1.2284,1.2044,1.1672,1.1181,1.0982,1.0753,1.0274,1.0016,0.9905,0.9905,1.0119,1.0381,1.0643,1.0508,1.0157,0.9604,0.9192,0.8888,0.8719,0.8246,0.7973,0.7984,0.7588,0.7246,0.7118,0.6721,0.6533,0.6608,0.6591,0.6686,0.6904,0.7037,0.7393,0.7984,0.8333,0.8923,0.9805,1.0332,1.077,1.1136,1.2287,1.2947,0.0,0.0,0.0,0.0,0.0,0.0,0.0,0.0,2.3985,2.4347,2.3828,2.3704,2.4974,2.4424,2.3839,2.3892,2.3785,2.343,2.2632,2.2546,2.2286,2.1574,2.087,2.039,2.0238,2.0221,2.0154,2.0002,2.0069,1.9953,1.9641,1.9219,1.9019,1.9102,1.8188,1.7889,1.8283,1.7362,1.6906,1.6891,1.6398,1.6084,1.5978,1.5978,1.5918,1.5769,1.5109,1.4851,1.4784,1.3588,1.2879,1.2627,1.3176,1.323,1.3071,1.3305,1.3027,1.2501,1.2312,1.2223,1.2284,1.2831,1.2996,1.3092,1.3645,1.3899,1.4004,1.4004,1.36,1.3175,1.3041,1.2493,1.1889,1.1497,1.1272,1.1045,1.0667,1.0455,1.0326,1.0186,1.0535,1.0906,1.1007,1.1349,1.1425,1.0931,1.0174,0.9632,0.9551,0.895,0.8477,0.8393,0.8119,0.7763,0.7355,0.702,0.6969,0.7216,0.7207,0.7403,0.7812,0.7754,0.7947,0.8505,0.8706,0.9147,0.983,1.0134,1.0434,1.0705,1.0777,1.0972,2.4972,2.5035,2.5581,2.7245,2.7088,2.6859,0.0,0.0,2.6995,2.6696,2.6245,2.5894,2.5886,2.5551,2.4963,2.4039,2.4424,2.4454,2.3435,2.3429,2.3275,2.2628,2.2262,2.1786,2.1109,2.1085,2.0771,2.0052,2.0283,2.0421,2.0365,1.9701,1.9606,2.01,1.8531,1.7999,1.865,1.7939,1.7578,1.7578,1.7503,1.7174,1.6607,1.6607,1.6323,1.5769,1.5109,1.4955,1.5206,1.4426,1.4601,1.5352,1.5431,1.5078,1.4529,1.4202,1.3885,1.366,1.3872,1.3776,1.36,1.3675,1.369,1.3705,1.3795,1.4214,1.4677,1.4677,1.4618,1.4438,1.384,1.3181,1.2523,1.1881,1.1951,1.1985,1.1333,1.1583,1.1755,1.1175,1.1286,1.165,1.214,1.1864,1.1563,1.15,1.0969,1.0439,1.0156,0.9639,0.9155,0.8789,0.8706,0.854,0.8195,0.8138,0.7966,0.7666,0.7627,0.7802,0.8205,0.7889,0.8195,0.9262,0.8953,0.9158,0.9893,0.9944,0.997,1.0021,1.031,1.0724,2.5336,2.6124,2.7093,2.7663,2.8268,2.8714,2.8718,2.8189,2.7633,2.7361,2.6585,2.6135,2.6666,2.6276,2.5634,0.0,2.4881,2.4575,2.3697,2.3423,2.3199,2.2909,2.3014,2.2668,2.1532,2.1664,2.1701,2.1353,2.1221,2.1032,2.0791,2.0224,1.995,1.9965,1.9241,1.9001,1.9271,1.8627,1.8298,1.8283,1.7876,1.7354,1.6712,1.6712,1.6353,1.5784,1.5499,1.5346,1.5288,1.5018,1.5019,1.5259,1.5662,1.5645,1.5365,1.5201,1.4806,1.4382,1.4288,1.4192,1.4124,1.4322,1.4378,1.4453,1.4842,1.5169,1.5394,1.5394,1.4812,1.4154,1.3885,1.3017,1.2194,1.2123,1.1887,1.1703,1.165,1.1532,1.1292,1.0845,1.1328,1.1865,1.192,1.2278,1.2542,1.2542,1.1482,1.0553,1.0094,0.9647,0.9235,0.8844,0.8789,0.8734,0.8606,0.8421,0.8233,0.8062,0.7841,0.787,0.829,0.8148,0.8365,0.9035,0.9128,0.9289,0.9607,0.9802,0.9905,0.9905,1.0046,1.0238,2.5624,2.6571,2.7573,2.7791,2.8825,2.965,2.9034,2.8683,2.8407,2.7997,2.7133,2.6674,2.7452,2.6885,2.6136,2.5765,2.5394,2.4755,2.3684,2.3474,2.3296,2.306,2.3509,2.3407,2.2353,2.2345,2.2324,2.2123,2.1568,2.1102,2.0813,2.0398,2.0,1.9726,1.969,1.969,1.969,1.9211,1.8972,1.8972,1.8493,1.7787,1.6965,1.6607,1.6219,1.5799,1.5898,1.586,1.5712,1.5798,1.5751,1.5676,1.6154,1.6303,1.6208,1.6208,1.579,1.5169,1.493,1.4798,1.475,1.4995,1.5094,1.5184,1.5649,1.5799,1.5799,1.5799,1.5109,1.4274,1.3914,1.3226,1.2596,1.2472,1.2342,1.2294,1.2399,1.2232,1.1913,1.136,1.193,1.242,1.2102,1.2672,1.3148,1.2998,1.1933,1.1019,1.0646,1.0104,0.9638,0.9352,0.9325,0.9355,0.9408,0.9058,0.881,0.8682,0.8265,0.8214,0.8589,0.8505,0.8662,0.9089,0.9289,0.9449,0.9528,0.979,0.9905,0.9905,0.9905,0.9905,2.6207,2.6361,2.6691,2.8107,2.8758,2.9172,2.9719,3.0104,3.0066,2.9124,2.8609,2.8328,2.838,2.745,2.6522,2.6052,2.598,2.5291,2.3382,2.384,2.4069,2.3282,2.3731,2.4035,0.0,2.3158,2.2384,2.1678,2.083,2.0333,2.0314,1.9929,1.9711,1.969,1.969,1.969,1.969,1.966,1.966,1.966,1.963,1.8957,1.7623,1.6383,1.5829,1.5827,1.6136,1.6474,1.6783,1.7118,1.7429,1.7721,1.7738,1.7539,1.7247,1.7247,1.6827,1.6251,1.6223,1.6034,1.5767,1.5769,1.5769,1.5769,1.5799,1.5799,1.5799,1.5799,1.5769,1.5439,1.4139,1.4259,1.4378,1.3077,1.3765,1.4528,1.3889,1.4381,1.4653,1.3601,1.3646,1.3683,1.3251,1.3173,1.3023,1.2484,1.2391,1.2354,1.2341,1.1345,1.0669,1.0641,1.0641,1.071,1.0936,1.0504,1.0049,0.9586,0.9113,0.9028,0.9339,0.8981,0.9143,0.9841,0.9555,0.9555,0.988,0.9893,0.9905,0.9905,0.9905,0.9905,2.6162,2.6759,2.7561,2.8424,2.8938,2.9403,2.9978,2.966,2.9178,2.8819,2.7621,2.6668,2.6668,2.6303,2.5898,2.5765,2.5612,2.5088,2.3991,2.3739,2.3608,2.3356,2.4056,0.0,0.0,0.0,0.0,2.2337,2.1051,2.0314,2.0314,1.9909,1.969,1.969,1.969,1.969,1.969,1.969,1.969,1.9675,1.8807,1.8149,1.7652,1.6368,1.5799,1.5799,1.5926,1.6301,1.6815,1.6917,1.7313,1.7789,1.7549,1.7392,1.7256,1.7052,1.667,1.6301,1.6301,1.6219,1.6095,1.5885,1.5799,1.5799,1.5799,1.5799,1.5799,1.5799,1.5484,1.5022,1.4573,1.4303,1.4139,1.415,1.4124,1.4199,1.4408,1.4347,1.407,1.347,1.3509,1.3494,1.3147,1.3137,1.301,1.2492,1.2102,1.1864,1.1864,1.1525,1.1299,1.1299,1.1299,1.1315,1.1369,1.1001,1.07,1.0555,1.0174,0.9958,0.9944,0.9808,0.9937,1.0418,0.9988,1.0162,1.1023,1.0634,1.0418,1.0431,1.0834,1.0809,2.617,2.6674,2.72,2.7339,2.7861,2.847,2.891,2.881,2.8495,2.8207,2.7097,2.6131,2.5905,2.5948,2.5831,2.538,2.5182,2.4648,2.3554,2.3028,2.2973,2.3507,2.4291,2.4792,0.0,0.0,0.0,2.2476,2.1381,2.0647,2.0472,1.9974,1.969,1.969,1.969,1.969,1.969,1.969,1.969,1.9675,1.8583,1.7921,1.7652,1.6608,1.5994,1.5799,1.5926,1.6301,1.6815,1.6926,1.7296,1.7766,1.7415,1.7224,1.7076,1.6722,1.6409,1.6136,1.6274,1.6219,1.6095,1.5885,1.5799,1.5799,1.5799,1.5799,1.5799,1.5799,1.5499,1.5109,1.4857,1.4648,1.4558,1.4737,1.4648,1.4633,1.5052,1.4812,1.4418,1.4007,1.3997,1.3951,1.3587,1.3604,1.3485,1.3006,1.2634,1.2232,1.1668,1.1763,1.1889,1.1889,1.1889,1.1964,1.2165,1.1769,1.1523,1.149,1.1128,1.0861,1.0699,1.0704,1.0792,1.1035,1.0684,1.0759,1.1274,1.0881,1.0694,1.0706,1.1111,1.1186,2.6137,2.6018,2.5625,2.5102,2.5665,2.6421,2.6689,2.7502,2.8009,2.7316,2.696,2.659,0.0,0.0,2.6303,2.5074,2.4905,2.429,2.2467,2.2057,2.2435,0.0,0.0,0.0,0.0,0.0,0.0,2.2128,0.0,2.1224,2.0783,2.01,1.969,1.969,1.969,1.969,1.969,1.969,1.969,1.9675,1.9016,1.8358,1.7667,1.701,1.6353,1.5827,1.6136,1.6474,1.6815,1.715,1.7479,1.7766,1.7415,1.7101,1.6789,1.6448,1.6108,1.5885,1.6191,1.6095,1.5799,1.5799,1.5799,1.5799,1.5799,1.5799,1.5799,1.5799,1.5799,1.5649,1.5034,1.5334,1.5649,1.4992,1.5349,1.5799,1.5799,1.5799,1.5668,1.5225,1.5134,1.4968,1.4564,1.4533,1.4406,1.3967,1.3934,1.3376,1.1893,1.2128,1.2454,1.2454,1.2454,1.2634,1.316,1.2791,1.2515,1.2447,1.2004,1.1729,1.165,1.1625,1.1625,1.1625,1.16,1.1349,1.0819,1.0794,1.0781,1.0781,1.0819,1.1136,2.4959,2.4848,2.4712,2.4584,2.4293,2.4229,2.4885,2.5249,2.5477,2.5686,2.5352,2.5056,2.5029,0.0,0.0,2.6219,2.6393,0.0,2.5215,2.447,0.0,2.3918,0.0,2.4486,2.4272,2.4329,0.0,0.0,2.1302,2.0791,2.1275,2.0303,1.969,1.969,1.969,1.969,1.969,1.969,1.969,1.9675,1.9016,1.8358,1.7667,1.701,1.6353,1.5799,1.587,1.6274,1.6815,1.6892,1.7288,1.7766,1.7415,1.7248,1.7126,1.6815,1.6448,1.6191,1.6274,1.6095,1.5799,1.5799,1.5799,1.5799,1.5799,1.5799,1.5799,1.5799,1.5799,1.5769,1.5589,1.5679,1.5769,1.5589,1.5679,1.5799,1.5799,1.5799,1.577,1.5639,1.5359,1.4968,1.4564,1.4752,1.4721,1.4032,1.4149,1.3977,1.291,1.2897,1.2998,1.2998,1.2998,1.3048,1.3185,1.3094,1.2998,1.2998,1.2883,1.2635,1.2228,1.2203,1.2203,1.2203,1.1789,1.1927,1.2559,1.2146,1.1977,1.1989,1.2371,1.2422,2.4077,2.3802,2.3427,2.2524,2.2356,2.2499,2.2808,2.3405,2.3987,2.4297,2.4185,2.4109,2.4226,2.5412,2.6309,0.0,0.0,0.0,2.5981,2.4913,2.418,0.0,2.4351,0.0,2.3917,2.3951,2.3799,0.0,2.1872,2.1161,2.1388,2.0309,1.969,1.969,1.969,1.969,1.969,1.969,1.969,1.969,1.9316,1.8642,1.7682,1.7309,1.6652,1.5799,0.0,1.6328,1.6815,1.6968,1.7337,1.7766,1.7288,1.7076,1.7027,1.6554,1.6246,1.6095,1.6095,1.5955,1.5799,1.5799,1.5799,1.5799,1.5799,1.5799,1.5799,1.5799,1.5799,1.5799,1.5799,1.5799,1.5799,1.5799,1.5799,1.5799,1.5799,1.5799,1.5799,1.5799,1.558,1.5359,1.5104,1.5255,1.5165,1.4533,1.4627,1.4533,1.3868,1.3459,1.3301,1.348,1.3323,1.3198,1.3198,1.3198,1.3198,1.3198,1.3198,1.306,1.2747,1.2735,1.2735,1.2735,1.2467,1.2492,1.2835,1.2567,1.2416,1.2416,1.2697,1.2797,2.3227,2.2731,2.1924,2.0061,2.0385,2.1055,2.0657,2.1836,2.3032,2.2948,2.3243,2.3539,2.3638,2.5195,2.6317,2.5828,0.0,2.6505,2.5981,2.4712,2.4036,2.456,2.4512,2.438,2.4262,2.3604,2.3254,2.3506,2.2556,2.1784,2.1372,2.0309,1.969,1.969,1.969,1.969,1.969,1.969,1.969,1.969,1.969,1.9046,1.7817,1.7792,1.7104,1.6005,0.0,0.0,1.6815,1.7101,1.7392,1.7612,1.7093,1.6841,1.6738,1.6136,1.5898,1.5885,1.5885,1.5827,1.5799,1.5799,1.5799,1.5799,1.5799,1.5799,1.5799,1.5799,1.5799,1.5799,1.5799,1.5799,1.5799,1.5799,1.5799,1.5799,1.5799,1.5799,1.5799,1.5799,1.5799,1.5799,1.5799,1.5799,1.5639,1.5165,1.5104,1.4968,1.4627,1.3835,1.3459,1.3868,1.3547,1.3301,1.3301,1.3301,1.3301,1.3301,1.3232,1.3198,1.3198,1.3198,1.3198,1.3198,1.3198,1.296,1.2517,1.2517,1.2517,1.2517,1.2517,1.278,2.1999,2.1327,2.054,1.9778,1.9794,1.979,1.9061,2.0332,2.1559,2.1164,2.2198,2.3234,2.3425,2.4466,2.5558,2.6385,2.6607,2.686,2.7368,2.6674,2.5947,0.0,2.4578,2.3751,2.3073,2.2361,0.0,0.0,0.0,0.0,2.1475,2.036,1.969,1.969,1.969,1.969,1.969,1.969,1.969,1.969,1.969,1.9286,1.8508,1.8233,1.7715,1.702,0.0,0.0,1.6815,1.6866,1.6917,1.6993,1.715,1.7052,1.6789,1.6659,1.6448,1.6219,1.6219,1.6039,1.5799,1.5799,1.5799,1.5799,1.5799,1.5799,1.5799,1.5799,1.5799,1.5799,1.5799,1.5799,1.5799,1.5799,1.5799,1.5799,1.5799,1.5799,1.5799,1.5799,1.5799,1.5799,1.5799,1.5799,1.5639,1.5165,1.5104,1.5074,1.5013,1.4278,1.3802,1.3901,1.3835,1.3769,1.3769,1.3769,1.3769,1.3769,1.3425,1.3198,1.3198,1.3198,1.3198,1.3198,1.3198,1.3148,1.306,1.306,1.306,1.306,1.306,1.311,2.1444,2.0813,2.0058,1.9059,1.9275,1.94,1.8312,1.9656,2.1019,2.0621,2.1698,2.2827,2.3308,2.4117,2.5029,2.5979,2.6235,2.6669,2.7671,2.694,2.6198,2.5864,2.468,2.3506,2.2427,2.1697,0.0,0.0,0.0,0.0,2.086,2.0127,1.969,1.969,1.969,1.969,1.969,1.969,1.969,1.969,1.969,1.9346,1.8687,1.8805,1.8284,1.7293,1.7368,0.0,1.7076,1.7264,1.7216,1.7052,1.7052,1.6825,1.6528,1.634,1.6163,1.6039,1.6039,1.5926,1.5799,1.5799,1.5799,1.5799,1.5799,1.5799,1.5799,1.5799,1.6024,1.6204,1.5888,1.6024,1.6189,1.5873,1.5799,1.5799,1.5799,1.5799,1.5799,1.5799,1.5799,1.5799,1.5799,1.5799,1.5712,1.5507,1.5448,1.5448,1.5448,1.4907,1.4533,1.4533,1.4149,1.4,1.4181,1.4214,1.4117,1.3901,1.3682,1.3459,1.3198,1.3198,1.3198,1.3198,1.3198,1.3198,1.3198,1.3198,1.3198,1.3198,1.3198,1.3198,2.1165,2.0583,1.9849,1.843,1.8903,1.932,1.7856,1.9301,2.0897,2.0488,2.1396,2.2496,2.3054,2.363,2.4255,2.5017,2.5346,2.599,2.7383,2.654,2.5937,2.6191,2.4652,0.0,2.2181,2.1337,0.0,0.0,0.0,0.0,2.0193,1.9874,1.969,1.969,1.969,1.969,1.969,1.969,1.969,1.969,1.969,1.9381,1.8823,1.9134,1.8593,1.7436,1.7935,0.0,0.0,1.7549,1.7439,1.7076,1.6876,1.6554,1.6163,1.5898,1.5799,1.5799,1.5799,1.5799,1.5799,1.5799,1.5799,1.5799,1.5799,1.5799,1.5799,1.5799,1.6144,1.6383,1.5933,1.6144,1.6383,1.5918,1.5799,1.5799,1.5799,1.5799,1.5799,1.5799,1.5799,1.5799,1.5799,1.5799,1.5799,1.5799,1.5799,1.5799,1.5799,1.5389,1.5134,1.5225,1.4596,1.4278,1.4596,1.4627,1.447,1.4052,1.3967,1.3682,1.3232,1.3198,1.3198,1.3198,1.3198,1.3198,1.3198,1.3311,1.3443,1.3547,1.3696,1.3817,2.1023,2.0413,1.9479,1.838,1.8898,1.9284,1.7611,1.9192,2.0827,2.018,2.1269,2.2327,2.2395,2.2462,2.275,2.3477,2.3781,2.458,2.6522,2.5905,2.5691,2.6846,0.0,0.0,2.2378,2.1144,0.0,0.0,0.0,0.0,0.0,1.9711,1.969,1.969,1.969,1.969,1.969,1.969,1.969,1.969,1.969,1.9506,1.9144,1.8935,1.8448,1.7741,0.0,0.0,0.0,1.7199,1.6977,1.6421,1.6686,1.6409,1.5856,1.5799,1.5799,1.5799,1.5799,1.5799,1.5799,1.5799,1.5799,1.5799,1.5799,1.5799,1.5799,1.5799,1.5844,1.5873,1.5814,1.5844,1.5873,1.5814,1.5799,1.5799,1.5799,1.5799,1.5799,1.5799,1.5799,1.5799,1.5799,1.5799,1.5799,1.5799,1.5799,1.5799,1.5799,1.5389,1.5255,1.5697,1.5285,1.5013,1.5043,1.5043,1.4876,1.447,1.4084,1.3682,1.3232,1.3198,1.3198,1.3198,1.3198,1.3198,1.3198,1.377,1.4249,1.466,1.521,1.5716,2.0317,1.9707,1.8968,1.7907,1.8419,1.8863,1.7522,1.9165,2.0809,2.0133,2.1218,2.231,2.231,2.231,2.2412,2.2699,2.3298,2.4133,2.5395,2.5359,2.5278,2.5504,2.3698,0.0,0.0,0.0,0.0,0.0,0.0,0.0,0.0,1.969,1.969,1.969,1.969,1.969,1.969,1.969,1.969,1.969,1.969,1.9526,1.9225,1.9374,1.8956,1.8097,0.0,0.0,0.0,1.7248,1.6885,1.6313,1.6448,1.6219,1.5799,1.5799,1.5799,1.5799,1.5799,1.5799,1.5799,1.5799,1.5799,1.5799,1.5799,1.5799,1.5799,1.5799,1.6054,1.6263,1.5903,1.5799,1.5799,1.5799,1.5799,1.5799,1.5799,1.5799,1.5799,1.5799,1.5799,1.5799,1.5799,1.5799,1.5799,1.5799,1.5799,1.5799,1.5799,1.5639,1.558,1.577,1.5389,1.5195,1.5507,1.5522,1.5329,1.4876,1.447,1.4181,1.4,1.3735,1.3615,1.3615,1.3951,1.3992,1.3722,1.4616,1.5181,1.5362,1.5588,1.5805,1.9854,1.9273,1.865,1.7585,1.7968,1.8339,1.7292,1.876,2.0277,1.9927,2.0979,2.204,2.226,2.231,2.231,2.231,2.3084,2.3967,2.4707,2.4869,2.4989,2.5072,0.0,2.2171,0.0,0.0,0.0,0.0,0.0,0.0,0.0,1.969,1.969,1.969,1.969,1.969,1.969,1.969,1.969,1.969,1.969,1.947,1.9092,1.9404,1.8952,1.7883,0.0,0.0,0.0,1.732,1.7115,1.658,1.6487,1.6286,1.6024,1.5873,1.5799,1.5799,1.5799,1.5799,1.5799,1.5799,1.5799,1.5799,1.5799,1.5799,1.5799,1.5799,1.6099,1.6353,1.5918,1.5933,1.6009,1.5844,1.5948,1.6009,1.5844,1.5799,1.5799,1.5799,1.5799,1.5799,1.5799,1.5799,1.5799,1.5799,1.5799,1.5799,1.5799,1.5799,1.5799,1.5799,1.5507,1.5448,1.577,1.5799,1.561,1.5134,1.4814,1.4627,1.4501,1.4117,1.398,1.4119,1.4389,1.4475,1.4337,1.5421,1.6022,1.617,1.6495,1.6725,1.9854,1.9273,1.865,1.7585,1.7611,1.7698,1.6892,1.7866,1.9038,1.941,2.0408,2.1414,2.2175,2.231,2.231,2.231,2.3084,2.3967,2.4707,2.4567,2.4927,0.0,0.0,2.2709,0.0,0.0,0.0,0.0,0.0,0.0,0.0,1.969,1.969,1.969,1.969,1.969,1.969,1.969,1.969,1.969,1.969,1.9382,1.881,1.881,1.8075,0.0,0.0,0.0,0.0,1.7384,1.76,1.7259,1.6929,1.6744,1.6622,1.6009,1.5799,1.5799,1.5799,1.5799,1.5799,1.5799,1.5799,1.5799,1.5799,1.5799,1.5799,1.5799,1.5799,1.5814,1.5799,1.6248,1.6547,1.5948,1.6263,1.6532,1.5933,1.5799,1.5799,1.5799,1.5799,1.5799,1.5799,1.5799,1.5799,1.5799,1.5799,1.5799,1.5799,1.5799,1.5799,1.5799,1.5799,1.5799,1.5799,1.5799,1.561,1.5134,1.5104,1.4907,1.4533,1.4117,1.4132,1.4677,1.4326,1.4349,1.4903,1.5971,1.6777,1.732,1.8389,1.914,1.9008,1.8482,1.8106,1.7034,1.7076,1.725,1.6788,1.7851,1.8865,1.8775,2.0056,2.1262,2.1498,2.1955,2.231,2.231,2.2971,2.3627,2.4,0.0,0.0,2.374,2.1865,0.0,0.0,0.0,0.0,0.0,0.0,0.0,0.0,1.969,1.969,1.969,1.969,1.969,1.969,1.969,1.969,1.969,1.969,1.9382,1.8795,1.8795,0.0,0.0,0.0,0.0,0.0,1.6993,1.6786,1.6303,1.6618,1.6485,1.6099,1.6338,1.6144,1.5799,1.5799,1.5799,1.5799,1.5799,1.5799,1.5799,1.5799,1.5799,1.5799,1.5799,1.5799,1.5799,1.5799,1.5948,1.6024,1.5858,1.5963,1.6024,1.5844,1.5799,1.5799,1.5799,1.5799,1.5799,1.5799,1.5799,1.5799,1.5799,1.5799,1.5799,1.5799,1.5799,1.5799,1.5799,1.5799,1.5799,1.5799,1.5799,1.5741,1.558,1.5285,1.5352,1.5987,1.5287,1.5162,1.5796,1.5665,1.5556,1.5429,1.6903,1.7855,1.8403,1.8754,1.9006,1.8454,1.803,1.7744,1.6638,1.6523,1.6656,1.6627,1.7395,1.8156,1.8365,1.9645,2.0839,2.1153,2.1803,2.231,2.231,2.3139,2.372,2.347,0.0,0.0,2.2663,0.0,0.0,0.0,0.0,0.0,0.0,0.0,0.0,0.0,0.0,1.969,1.969,1.969,1.9782,1.9929,1.9782,1.9782,1.9929,1.9527,1.9071,1.8556,1.8451,0.0,0.0,0.0,0.0,0.0,1.6789,1.6631,1.6378,1.65,1.6382,1.6159,1.6323,1.6114,1.5799,1.5799,1.5799,1.5799,1.5799,1.5799,1.5799,1.5799,1.5799,1.5799,1.5799,1.5799,1.5799,1.5799,1.5978,1.6069,1.5858,1.5978,1.6069,1.5858,1.5799,1.5799,1.5799,1.5799,1.5799,1.5799,1.5799,1.5799,1.5799,1.5799,1.5799,1.5799,1.5799,1.5799,1.5799,1.5799,1.5799,1.5799,1.5799,1.5799,1.5799,1.5743,1.5991,1.6666,1.6235,1.616,1.6592,1.6639,1.656,1.6312,1.773,1.8688,1.9207,1.9207,1.9207,0.0,1.7898,1.7584,1.6457,1.6115,1.612,1.6453,1.6676,0.0,1.8118,1.9227,2.0221,2.0974,2.1752,2.231,2.231,2.3444,2.4059,0.0,2.4201,0.0,0.0,0.0,0.0,0.0,0.0,0.0,0.0,0.0,0.0,0.0,0.0,1.969,1.969,1.969,1.9874,2.0246,1.9864,1.9869,2.0203,1.9152,1.8518,1.8206,1.7947,0.0,0.0,0.0,0.0,0.0,1.6789,1.6932,1.7184,1.6567,1.6451,1.6577,1.6039,1.5844,1.5799,1.5799,1.5799,1.5799,1.5799,1.5799,1.5799,1.5799,1.5799,1.5799,1.5799,1.5799,1.5799,1.5799,1.6219,1.6488,1.5933,1.6234,1.6473,1.5933,1.5799,1.5799,1.5799,1.5799,1.5799,1.5799,1.5799,1.5799,1.5799,1.5799,1.5799,1.5799,1.5799,1.5799,1.5799,1.5799,1.5829,1.5858,1.5829,1.5829,1.5858,1.6383,1.6756,1.6846,1.7042,1.7157,1.7174,1.7263,1.7347,1.7435,1.8419,1.9169,1.969,1.969,1.969,1.8458,0.0,1.7493,1.704,1.6658,1.6469,0.0,1.7045,1.7232,1.751,1.886,2.0052,2.0264,2.1397,2.231,2.231,2.2598,2.2983,2.3489,0.0,0.0,0.0,0.0,0.0,0.0,0.0,0.0,0.0,0.0,0.0,0.0,0.0,1.969,1.969,1.969,1.9747,1.9839,1.958,1.9454,1.9456,1.8699,1.8311,1.8286,1.8205,0.0,0.0,0.0,0.0,1.715,1.6633,1.646,1.6552,1.659,1.6353,1.6039,1.6353,1.6204,1.5799,1.5799,1.5799,1.5799,1.5799,1.5799,1.5799,1.5799,1.5799,1.5799,1.5799,1.5799,1.5799,1.5799,1.5918,1.5964,1.5829,1.5918,1.5978,1.5829,1.5799,1.5799,1.5799,1.5799,1.5799,1.5799,1.5799,1.5799,1.5799,1.5799,1.5799,1.5799,1.5799,1.5799,1.5799,1.5799,1.5979,1.6443,1.6069,1.5994,1.6458,1.6622,1.716,1.8208,1.7914,1.776,1.7871,1.749,1.7678,1.8535,1.8779,1.9169,1.969,1.969,1.969,1.8569,1.8114,1.7722,1.7319,1.691,1.675,1.7221,1.7313,1.7344,1.7502,1.8857,2.0002,2.0002,2.1252,2.231,2.231,2.2868,2.3452,0.0,0.0,2.2117,0.0,0.0,0.0,0.0,0.0,0.0,0.0,0.0,0.0,0.0,0.0,1.969,1.969,1.9874,1.9965,1.9965,1.9394,1.9295,1.9705,1.8205,1.7759,1.8247,1.7813,0.0,0.0,0.0,0.0,1.7479,1.6644,1.6474,1.6753,1.6744,1.6542,1.6292,1.662,1.6527,1.6274,1.6274,1.6163,1.6039,1.6039,1.5926,1.5858,1.6129,1.6009,1.5799,1.5799,1.5799,1.5799,1.5799,1.5799,1.5799,1.5799,1.5799,1.5799,1.5799,1.5799,1.5799,1.5799,1.5799,1.5799,1.5799,1.5799,1.5799,1.5799,1.5799,1.5799,1.5799,1.5799,1.5799,1.5799,1.5799,1.6024,1.6652,1.6383,1.6473,1.7115,1.7443,1.7921,1.8672,1.8726,1.8768,1.8841,1.8302,1.8458,1.9281,1.9281,1.9406,1.969,1.969,1.969,1.866,1.8482,1.8193,1.7566,1.719,1.7142,1.7715,1.7721,1.7683,1.8053,1.9195,2.0196,2.023,2.1373,2.231,2.231,0.0,0.0,2.4213,2.3248,0.0,0.0,0.0,0.0,0.0,0.0,0.0,0.0,0.0,0.0,0.0,0.0,0.0,1.954,1.9775,1.9903,1.9903,1.9079,1.9113,1.994,1.7804,1.7273,1.8113,1.7314,0.0,0.0,0.0,0.0,1.7658,1.6747,1.6747,1.7272,1.6926,1.6789,1.6789,1.6789,1.6789,1.6789,1.6789,1.6607,1.6382,1.6382,1.6136,1.5975,1.6473,1.6233,1.5799,1.5799,1.5799,1.5799,1.5799,1.5799,1.5799,1.5799,1.5799,1.5799,1.5799,1.5799,1.5799,1.5799,1.5799,1.5799,1.5799,1.5799,1.5799,1.5799,1.5799,1.5829,1.5933,1.5858,1.5844,1.5933,1.5948,1.6189,1.6801,1.695,1.7294,1.7951,1.8448,1.8747,1.8852,1.9319,1.9603,1.969,1.9169,1.9169,1.969,1.969,1.969,1.969,1.969,1.969,1.8983,1.8896,1.8803,1.8469,1.8142,1.8,1.8375,1.8739,1.91,1.9418,2.0315,2.1096,2.1307,2.1856,2.231,0.0,0.0,2.3882,0.0,0.0,0.0,0.0,0.0,0.0,0.0,0.0,0.0,0.0,0.0,0.0,0.0,0.0,0.0,1.8852,1.8365,1.8113,1.8113,1.8328,1.8455,1.8501,1.7622,1.7441,1.7876,1.7725,1.7375,0.0,0.0,1.7027,1.7344,1.6901,1.6952,1.7272,1.6926,1.6789,1.6789,1.6789,1.6789,1.6789,1.6789,1.6763,1.6712,1.6712,1.6501,1.6234,1.6342,1.6087,1.5799,1.5799,1.5799,1.5799,1.5799,1.5799,1.5799,1.5799,1.5799,1.5799,1.5799,1.5799,1.5799,1.5799,1.5799,1.5799,1.5799,1.5799,1.5799,1.5799,1.5799,1.5964,1.6502,1.6114,1.5994,1.6502,1.6562,1.6831,1.7488,1.8089,1.8687,1.9346,1.8957,1.8957,1.951,1.92,1.9244,1.969,1.9169,1.9169,1.969,1.969,1.969,1.969,1.969,1.969,1.8544,1.8822,1.9134,1.9016,1.8663,1.8561,1.9307,1.9509,1.9738,2.0327,2.1101,2.167,2.1611,0.0,2.3369,2.3981,0.0,0.0,0.0,0.0,0.0,0.0,0.0,0.0,0.0,0.0,0.0,0.0,0.0,0.0,0.0,0.0,0.0,0.0,1.8041,1.7518,1.716,1.7363,1.7805,1.8457,1.7455,1.7347,1.801,1.7694,1.7271,1.6789,0.0,1.6825,1.7256,1.6942,1.7101,1.7549,1.7408,1.7337,1.7337,1.7337,1.7337,1.7337,1.7337,1.7216,1.7027,1.6866,1.6581,1.6335,1.6451,1.6185,1.5873,1.6189,1.6039,1.5799,1.5799,1.5799,1.5799,1.5799,1.5799,1.5799,1.5799,1.5799,1.5799,1.5799,1.5799,1.5799,1.5799,1.5799,1.5918,1.6248,1.6293,1.6533,1.716,1.7012,1.6937,1.7204,1.7234,1.7503,1.816,1.8523,1.8986,1.9645,1.9405,1.9375,1.9675,1.9442,1.9442,1.969,1.9442,1.9442,1.969,1.969,1.969,1.969,1.969,1.969,1.8096,1.8684,1.9344,1.9528,1.9321,1.9255,2.0083,2.0352,2.0626,2.1335,2.1878,2.2183,2.2017,2.2808,0.0,2.5133,0.0,0.0,0.0,0.0,0.0,0.0,0.0,0.0,0.0,0.0,0.0,0.0,0.0,0.0,0.0,0.0,0.0,0.0,1.7802,1.7145,1.6488,1.6637,1.7219,1.8238,1.7189,1.7196,1.8037,1.7424,1.7029,1.6763,1.6445,1.6591,1.706,1.6952,1.7216,1.7681,1.7766,1.7811,1.7811,1.7811,1.7811,1.7789,1.7704,1.7526,1.7248,1.6917,1.6581,1.6339,1.6546,1.6218,1.5903,1.6353,1.6159,1.5799,1.5799,1.5799,1.5799,1.5799,1.5799,1.5799,1.5799,1.5799,1.5844,1.5964,1.5994,1.6054,1.6233,1.6234,1.6398,1.6861,1.6936,1.7174,1.7832,1.7787,1.7757,1.7939,1.7921,1.8223,1.8882,1.8927,1.9151,1.966,1.969,1.969,1.969,1.969,1.969,1.969,1.969,1.969,1.969,1.969,1.969,1.969,1.969,1.969,1.8096,1.8684,1.9473,2.0244,2.0395,2.0378,2.0468,2.1425,2.2395,2.2776,2.2745,2.2735,2.3029,2.2712,2.2897,2.4354,0.0,0.0,0.0,0.0,0.0,0.0,0.0,0.0,0.0,0.0,0.0,0.0,0.0,0.0,0.0,0.0,0.0,0.0,0.0,1.6473,1.5873,1.6413,1.6756,1.6846,1.6756,1.7055,1.7717,1.7041,1.6743,1.6683,1.6412,1.6328,1.6421,1.7027,1.728,1.7368,1.7681,1.7811,1.7811,1.7811,1.7811,1.7766,1.7439,1.732,1.7248,1.6917,1.6581,1.6301,1.632,1.607,1.5814,1.5858,1.5829,1.5799,1.5799,1.5799,1.5799,1.5799,1.5799,1.5799,1.5799,1.5799,1.5978,1.6532,1.6652,1.6831,1.7443,1.7548,1.7563,1.7608,1.7623,1.7861,1.8553,1.8071,1.7921,1.8568,1.8627,1.8897,1.9555,1.9615,1.963,1.969,1.969,1.969,1.969,1.969,1.969,1.969,1.969,1.969,1.969,1.969,1.969,1.969,1.969,1.969,1.7348,1.8669,2.0005,1.9803,2.0537,2.1437,2.1951,2.2063,2.2227,2.2868,2.3172,2.3372,0.0,0.0,2.3308,0.0,0.0,0.0,0.0,0.0,0.0,0.0,0.0,0.0,0.0,0.0,0.0,0.0,0.0,0.0,0.0,0.0,0.0,0.0,0.0,1.6786,1.6982,1.6786,1.6712,1.6726,1.7548,1.7847,1.7682,1.7428,1.6876,1.6129,1.6032,1.6123,1.6355,1.6799,1.7101,1.7344,1.7681,1.7681,1.7526,1.7726,1.7811,1.7766,1.7415,1.7296,1.7224,1.6686,1.6394,1.6274,1.6067,1.5898,1.5799,1.5799,1.5799,1.5799,1.5799,1.5799,1.5799,1.5799,1.6084,1.6353,1.6353,1.6697,1.7056,1.7279,1.7324,1.7399,1.7652,1.7697,1.7832,1.8268,1.8328,1.8568,1.9226,1.9091,1.9031,1.9286,1.9316,1.9405,1.966,1.969,1.969,1.969,1.969,1.969,1.969,1.969,1.969,1.969,1.969,1.969,1.969,1.969,1.969,1.969,1.969,1.969,1.7202,1.8852,2.0429,2.0152,2.0873,2.1935,2.2976,2.2592,2.2246,2.3049,2.3292,2.3383,2.3377,0.0,0.0,0.0,0.0,0.0,0.0,0.0,0.0,0.0,0.0,0.0,0.0,0.0,0.0,0.0,0.0,0.0,0.0,0.0,0.0,0.0,0.0,0.0,1.7697,1.7443,1.7339,1.7339,1.8268,1.8253,1.7384,1.7384,1.6922,1.6069,1.5888,1.5926,1.6163,1.6501,1.6825,1.7175,1.7502,1.7502,1.7344,1.7549,1.7658,1.7595,1.7248,1.7076,1.6926,1.6448,1.6219,1.608,1.5885,1.5799,1.5799,1.5799,1.5799,1.5799,1.5799,1.5799,1.5799,1.5799,1.6263,1.6712,1.6712,1.7234,1.7757,1.7951,1.8029,1.8071,1.8313,1.8343,1.8493,1.8957,1.9016,1.9181,1.963,1.969,1.969,1.969,1.969,1.969,1.969,1.969,1.969,1.969,1.969,1.969,1.969,1.969,1.969,1.969,1.969,1.969,1.969,1.969,1.969,1.969,1.969,1.969,1.7913,1.9274,2.0704,2.1584,2.1534,2.1724,2.3332,2.3058,2.2697,2.3512,2.3147,2.2608,2.2332,2.231,0.0,0.0,0.0,0.0,0.0,0.0,0.0,0.0,0.0,0.0,0.0,0.0,0.0,0.0,0.0,0.0,0.0,0.0,0.0,0.0,0.0,0.0,1.7712,1.8373,1.8687,1.8687,1.8687,1.7981,1.6726,1.6712,1.6712,1.6667,1.6054,1.5799,1.5827,1.6163,1.6501,1.6841,1.7175,1.7296,1.728,1.7296,1.7296,1.7248,1.6917,1.6581,1.6301,1.6301,1.6067,1.5799,1.5799,1.5799,1.5799,1.5799,1.5799,1.5799,1.5799,1.5799,1.5799,1.5799,1.6263,1.6712,1.6712,1.7234,1.7924,1.8583,1.8717,1.8927,1.957,1.969,1.969,1.9726,1.9726,1.9726,1.9726,1.969,1.969,1.9726,1.969,1.969,1.9726,1.969,1.969,1.969,1.969,1.969,1.969,1.969,1.969,1.969,1.969,1.969,1.969,1.969,1.969,1.969,1.969,1.969,1.8867,1.9711,2.0653,2.1279,2.1367,2.1502,2.2335,2.1512,2.0619,2.0686,2.0894,2.1162,2.1468,0.0,0.0,0.0,0.0,0.0,0.0,0.0,0.0,0.0,0.0,0.0,0.0,0.0,0.0,0.0,0.0,0.0,0.0,0.0,0.0,0.0,0.0,0.0,1.8403,1.7652,1.7294,1.7294,1.7757,1.7772,1.7384,1.6921,1.6458,1.6054,1.5888,1.5799,1.5856,1.6436,1.6581,1.6528,1.7337,1.7224,1.6644,1.7126,1.715,1.6901,1.6554,1.6367,1.6274,1.6011,1.5885,1.5799,1.5799,1.5799,1.5799,1.5799,1.5983,1.608,1.5856,1.5983,1.6136,1.6136,1.6426,1.6773,1.7059,1.7802,1.8463,1.8672,1.9076,1.945,1.966,1.969,1.9782,2.0089,2.0124,2.0124,2.0124,1.9874,1.9818,2.0089,1.9874,1.9803,2.0089,1.9874,1.969,1.969,1.969,1.969,1.969,1.969,1.969,1.969,1.969,1.969,1.969,1.969,1.969,1.969,1.969,1.969,1.9693,2.029,2.097,2.1637,2.181,2.1662,2.0935,2.0648,2.0355,1.9746,1.9962,2.0345,2.0662,0.0,0.0,0.0,0.0,0.0,0.0,0.0,0.0,0.0,0.0,0.0,0.0,0.0,0.0,0.0,0.0,0.0,0.0,0.0,0.0,0.0,0.0,0.0,1.8687,1.7623,1.71,1.71,1.7234,1.7294,1.7294,1.6891,1.6353,1.5799,1.5799,1.5799,1.5827,1.6246,1.6301,1.6191,1.7052,1.6952,1.6367,1.6901,1.6876,1.6581,1.6367,1.6219,1.608,1.6011,1.5913,1.5799,1.5799,1.587,1.6011,1.6011,1.6246,1.6448,1.6246,1.6355,1.649,1.6328,1.6629,1.7,1.725,1.8128,1.8857,1.8736,1.9226,1.969,1.969,1.9839,2.0035,2.028,2.0449,2.0583,2.0583,2.0193,2.0035,2.028,1.9929,1.9818,2.0035,1.9839,1.969,1.969,1.969,1.969,1.969,1.969,1.969,1.969,1.969,1.969,1.969,1.969,1.969,1.969,1.969,1.969,2.0521,2.1007,2.1488,2.235,2.2606,2.2031,1.9644,2.0377,2.1204,1.9958,0.0,1.99,1.99,0.0,0.0,0.0,0.0,0.0,0.0,0.0,0.0,0.0,0.0,0.0,0.0,0.0,0.0,0.0,0.0,0.0,0.0,0.0,0.0,0.0,0.0,0.0,1.8523,1.7847,1.7518,0.0,1.6906,1.6622,1.6622,1.6622,1.6338,1.5799,1.5799,1.5799,1.5799,1.5827,1.5856,1.5898,1.6581,1.6633,1.634,1.6712,1.6607,1.6285,1.6313,1.6151,1.5926,1.6219,1.6108,1.5885,1.5841,1.6095,1.6355,1.6301,1.6554,1.6841,1.6763,1.6789,1.6763,1.6474,1.6822,1.7259,1.7321,1.8254,1.9033,1.8755,1.9226,1.9711,1.9747,2.0054,2.0348,2.0416,2.0781,2.1055,2.1055,2.0649,2.0348,2.0348,2.0,1.9782,1.9818,1.9762,1.9726,1.9747,1.9711,1.969,1.969,1.969,1.969,1.969,1.969,1.969,1.969,1.969,1.969,1.969,1.969,1.969,2.2428,2.188,2.1574,2.2758,2.2728,2.2071,2.095,2.1019,2.0535,1.7952,1.8318,1.9147,0.0,0.0,0.0,0.0,0.0,0.0,0.0,0.0,0.0,0.0,0.0,0.0,0.0,0.0,0.0,0.0,0.0,0.0,0.0,0.0,0.0,0.0,0.0,1.6652,1.713,1.6518,1.6218,0.0,1.6054,1.5979,1.5979,1.5979,1.5933,1.5799,1.5799,1.5799,1.5827,1.608,1.6191,1.6274,1.6926,1.6825,1.6367,1.6977,1.6825,1.6355,1.6607,1.6633,1.6554,1.6367,1.6421,1.6528,1.6274,1.6421,1.6633,1.6367,1.6722,1.7076,1.6538,1.6799,1.7175,1.7085,1.6988,1.7067,1.7579,1.8077,1.8467,1.8665,1.9226,1.9818,2.0124,2.0246,2.0534,2.1228,2.1399,2.146,2.146,2.1118,2.0862,2.0862,2.0449,2.033,2.0698,2.0085,1.9839,2.0158,1.9874,1.969,1.969,1.969,1.969,1.969,1.969,1.969,1.969,1.969,1.969,1.969,1.969,1.969,2.2792,2.2211,2.1825,2.2579,2.2535,2.2124,2.1363,2.1204,2.0636,1.8674,1.8606,0.0,0.0,0.0,0.0,0.0,0.0,0.0,0.0,0.0,0.0,0.0,0.0,0.0,0.0,0.0,0.0,0.0,0.0,0.0,0.0,0.0,0.0,0.0,1.6757,1.6368,1.6712,1.6099,1.5799,1.5799,1.5799,1.5799,1.5799,1.5799,1.5799,1.5799,1.5983,1.6039,1.6067,1.6394,1.6528,1.6581,1.7101,1.7002,1.6607,1.7126,1.6977,1.6554,1.6738,1.6789,1.6763,1.6581,1.6659,1.6763,1.6581,1.6659,1.6789,1.6773,1.7035,1.7224,1.6876,1.7035,1.7296,1.7296,1.7052,1.6981,1.7657,1.801,1.8298,1.862,1.9226,1.9854,2.0212,2.0634,2.1165,2.1823,2.1928,2.1928,2.1928,2.1568,2.1213,2.1023,2.0797,2.0565,2.0413,2.0139,2.0,2.0,1.9818,1.969,1.969,1.969,1.969,1.969,1.969,1.969,1.969,1.969,1.969,1.969,1.969,1.969,2.2797,2.2424,2.2153,2.2262,2.231,2.2141,2.1515,2.138,2.1194,2.0525,1.9705,0.0,0.0,0.0,0.0,0.0,0.0,0.0,0.0,0.0,0.0,0.0,0.0,0.0,0.0,0.0,0.0,0.0,0.0,0.0,0.0,0.0,1.7954,1.7401,1.6831,1.6547,1.6547,1.6039,1.5799,1.5799,1.5799,1.5799,1.5799,1.5799,1.5827,1.5898,1.6163,1.6313,1.6409,1.6686,1.6841,1.6917,1.7199,1.7126,1.6942,1.7272,1.7175,1.6892,1.6942,1.6968,1.6968,1.6917,1.6917,1.6942,1.6841,1.6892,1.7018,1.7175,1.7296,1.7368,1.732,1.7344,1.7368,1.732,1.7124,1.7173,1.7832,1.8163,1.8439,1.882,1.9441,2.0035,2.0449,2.1197,2.1853,2.2237,2.231,2.231,2.231,2.1974,2.1568,2.115,2.1086,2.0797,1.998,2.0158,2.0158,1.9803,1.9747,1.969,1.969,1.969,1.969,1.969,1.969,1.969,1.969,1.969,1.969,1.969,1.969,1.969,2.3632,2.3094,2.2565,2.2343,2.231,2.2276,2.2192,2.2158,2.2124,0.0,0.0,0.0,0.0,0.0,0.0,0.0,0.0,0.0,0.0,0.0,0.0,0.0,0.0,0.0,0.0,0.0,0.0,0.0,0.0,0.0,0.0,1.6727,1.6158,1.6068,1.5978,1.5933,1.5933,1.5844,1.5799,1.5799,1.5799,1.5799,1.5799,1.5799,1.5955,1.6246,1.6274,1.6448,1.6738,1.6789,1.6952,1.7248,1.7296,1.7256,1.7272,1.7612,1.7526,1.7272,1.7566,1.7658,1.7612,1.732,1.7432,1.7566,1.6968,1.7216,1.7566,1.7018,1.7288,1.7658,1.7368,1.7526,1.7658,1.7368,1.7497,1.7864,1.8508,1.8686,1.8904,1.9456,2.0249,2.0959,2.1368,2.1869,2.2237,2.2282,2.231,2.231,2.231,2.2254,2.2032,2.1568,2.1521,2.1337,2.0862,2.0483,2.028,2.0212,1.9909,1.969,1.969,1.969,1.969,1.969,1.969,1.969,1.969,1.969,1.969,1.969,1.969,1.969,2.3152,2.2815,2.2436,2.2321,2.231,2.231,2.231,2.231,2.231,2.231,0.0,0.0,0.0,0.0,0.0,0.0,0.0,0.0,0.0,0.0,0.0,0.0,0.0,0.0,0.0,0.0,0.0,0.0,0.0,0.0,1.7189,1.6982,1.6533,1.5829,1.5799,1.5799,1.5799,1.5799,1.5799,1.5799,1.5799,1.5799,1.5799,1.5799,1.5983,1.6301,1.6301,1.6607,1.7076,1.7076,1.7272,1.7572,1.7572,1.7572,1.7595,1.7743,1.7704,1.7595,1.7766,1.7811,1.7789,1.7635,1.7681,1.7726,1.7448,1.7432,1.7502,1.7384,1.7432,1.7502,1.7344,1.7415,1.7432,1.7101,1.7422,1.7992,1.8693,1.8795,1.8989,1.9886,2.0748,2.1399,2.1552,2.2003,2.231,2.231,2.231,2.231,2.231,2.231,2.2106,2.1658,2.184,2.1598,2.0682,2.0649,2.0483,2.0,1.9818,1.969,1.969,1.969,1.969,1.969,1.969,1.969,1.969,1.969,1.969,1.969,1.969,1.969,2.2666,2.25,2.231,2.231,2.231,2.231,2.231,0.0,2.231,0.0,0.0,0.0,0.0,0.0,0.0,0.0,0.0,0.0,0.0,0.0,0.0,0.0,0.0,0.0,0.0,0.0,0.0,0.0,0.0,0.0,1.704,1.7264,1.6952,1.5829,1.5799,1.5799,1.5799,1.5799,1.5799,1.5799,1.5799,1.5799,1.5799,1.5799,1.5983,1.6301,1.6301,1.667,1.7296,1.7296,1.7502,1.7811,1.7811,1.7811,1.7811,1.7811,1.7811,1.7811,1.7811,1.7811,1.7811,1.7811,1.7726,1.7658,1.7566,1.7384,1.7224,1.7479,1.7432,1.7296,1.7296,1.75,1.7584,1.7175,1.7797,1.8611,1.9055,1.9217,1.9541,2.044,2.1165,2.1658,2.1764,2.2077,2.231,2.231,2.231,2.231,2.231,2.231,2.218,2.1823,2.2106,2.1811,2.0583,2.0797,2.0632,1.9747,1.969,1.969,1.969,1.969,1.969,1.969,1.969,1.969,1.969,1.969,1.969,1.969,1.9869,1.9854,2.2703,2.25,2.231,2.231,2.231,2.231,0.0,0.0,0.0,0.0,0.0,0.0,0.0,0.0,0.0,0.0,0.0,0.0,0.0,0.0,0.0,0.0,0.0,0.0,0.0,0.0,0.0,0.0,0.0,0.0,1.7682,1.7085,1.6443,1.5829,1.5799,1.5799,1.5799,1.5799,1.5799,1.5799,1.5799,1.5799,1.5799,1.5799,1.5983,1.6301,1.6301,1.667,1.7296,1.7296,1.7502,1.7811,1.7811,1.7811,1.7811,1.7811,1.7811,1.7811,1.7811,1.7811,1.7811,1.7811,1.7572,1.7272,1.6942,1.6841,1.6841,1.6841,1.7076,1.7296,1.7296,1.805,1.8658,1.8006,1.9126,2.0283,1.9933,2.04,2.1007,2.146,2.1582,2.1718,2.218,2.2282,2.231,2.231,2.231,2.231,2.231,2.231,2.2282,2.2282,2.2282,2.1945,2.1023,2.1007,2.0632,1.9747,1.969,1.969,1.969,1.969,1.969,1.969,1.969,1.969,1.969,1.969,1.969,1.9741,2.0363,2.0318,2.2436,2.236,2.231,2.231,2.231,2.231,2.231,2.231,0.0,0.0,0.0,0.0,0.0,0.0,0.0,0.0,0.0,0.0,0.0,0.0,0.0,0.0,0.0,0.0,0.0,0.0,0.0,0.0,0.0,0.0,1.7115,1.6831,1.6413,1.5829,1.5799,1.5799,1.5799,1.5799,1.5799,1.5799,1.5799,1.5799,1.5799,1.5799,1.5885,1.5983,1.5983,1.6485,1.7296,1.7076,1.7296,1.7811,1.7811,1.7811,1.7811,1.7811,1.7811,1.7811,1.7811,1.7658,1.7479,1.7479,1.7535,1.7603,1.7487,1.7433,1.7487,1.7698,1.7535,1.7395,1.7839,1.8426,1.8992,1.9465,2.009,2.0628,2.0926,2.1189,2.143,2.1582,2.1823,2.2106,2.2282,2.231,2.231,2.231,2.231,2.231,2.231,2.231,2.231,2.231,2.231,2.2049,2.143,2.115,2.0731,2.0124,1.9839,1.969,1.969,1.969,1.969,1.969,1.969,1.969,1.969,1.969,1.9914,2.0348,2.0602,2.0812,2.231,2.231,2.231,2.231,2.231,2.231,2.231,0.0,0.0,0.0,0.0,0.0,0.0,0.0,0.0,0.0,0.0,0.0,0.0,0.0,0.0,0.0,0.0,0.0,0.0,0.0,0.0,0.0,0.0,0.0,1.6771,1.6712,1.6413,1.5829,1.5799,1.5799,1.5799,1.5799,1.5799,1.5799,1.5799,1.5799,1.5799,1.5799,1.5799,1.5799,1.5799,1.6231,1.6977,1.6841,1.7142,1.7658,1.7766,1.7811,1.7811,1.7811,1.7811,1.7811,1.7811,1.7641,1.7439,1.7344,1.7539,1.7789,1.7678,1.7808,1.8054,1.8235,1.815,1.8045,1.8127,1.8616,1.9446,2.0772,2.1138,2.1299,2.1753,2.1823,2.1823,2.1823,2.2106,2.231,2.231,2.231,2.231,2.231,2.231,2.231,2.231,2.231,2.231,2.231,2.231,2.2049,2.143,2.115,2.0731,2.0124,1.9839,1.969,1.969,1.969,1.969,1.969,1.969,1.969,1.969,1.969,2.0034,2.0722,2.0932,2.15,0.0,0.0,0.0,2.231,2.231,2.231,2.231,0.0,0.0,0.0,0.0,0.0,0.0,0.0,0.0,0.0,0.0,0.0,0.0,0.0,0.0,0.0,0.0,0.0,0.0,0.0,0.0,0.0,0.0,1.7475,1.6801,1.6756,1.6458,1.5873,1.5844,1.5829,1.5829,1.5814,1.5799,1.5799,1.5799,1.5799,1.5799,1.5799,1.5799,1.5799,1.5799,1.5983,1.6328,1.6659,1.7002,1.7344,1.7681,1.7811,1.7811,1.7811,1.7789,1.7789,1.7789,1.7789,1.7704,1.7392,1.7513,1.7745,1.7423,1.7818,1.8392,1.8253,1.8831,1.9262,1.8145,1.8686,1.9969,2.1821,2.2276,2.2276,2.231,2.231,2.231,2.231,2.231,2.231,2.231,2.231,2.231,2.231,2.231,2.231,2.231,2.231,2.231,2.231,2.231,2.1945,2.1103,2.0991,2.0632,1.9782,1.9711,1.969,1.969,1.969,1.969,1.969,1.969,1.969,1.969,1.969,2.0049,2.0767,2.144,2.2413,2.231,0.0,0.0,0.0,0.0,0.0,2.231,2.2716,2.2936,0.0,0.0,0.0,0.0,0.0,0.0,0.0,0.0,0.0,0.0,0.0,0.0,0.0,0.0,0.0,0.0,0.0,0.0,0.0,1.8914,1.8869,1.8669,1.7861,1.7339,1.7191,1.6984,1.6755,1.6443,1.6239,1.6039,1.5799,1.5799,1.5799,1.5799,1.5799,1.5926,1.6136,1.5913,1.5983,1.6328,1.6659,1.7002,1.7344,1.7681,1.7811,1.7811,1.7811,1.7658,1.7455,1.7455,1.7272,1.7068,1.6968,1.7332,1.7773,1.769,1.8181,1.8696,1.8354,1.8855,1.9485,1.9408,1.9402,1.9783,2.1164,2.1498,2.1651,2.2192,2.231,2.231,2.231,2.231,2.231,2.231,2.231,2.231,2.231,2.231,2.231,2.231,2.231,2.231,2.231,2.231,2.2209,2.1945,2.1354,2.0894,2.0681,2.005,1.969,1.969,1.969,1.969,1.969,1.969,1.969,1.969,1.969,2.0288,2.1455,2.2562,2.3266,0.0,2.231,2.231,2.231,0.0,0.0,2.231,2.2632,2.2743,0.0,0.0,0.0,0.0,0.0,0.0,0.0,0.0,0.0,0.0,0.0,0.0,0.0,0.0,0.0,0.0,0.0,0.0,0.0,1.9122,1.8967,1.8967,1.8184,1.7779,1.8003,1.738,1.7014,1.6984,1.6388,1.5983,1.5799,1.5799,1.5799,1.5799,1.5926,1.6123,1.6301,1.6246,1.6328,1.6528,1.6876,1.7052,1.715,1.7612,1.7811,1.7811,1.7811,1.7681,1.7502,1.7344,1.7248,1.7167,1.6892,1.7348,1.8028,1.8207,1.8881,1.9463,1.909,1.8969,1.9154,1.9841,1.9596,1.9527,2.0897,2.1204,2.1397,2.2141,2.231,2.231,2.231,2.231,2.231,2.231,2.231,2.231,2.231,2.231,2.231,2.231,2.231,2.231,2.231,2.231,2.2209,2.2032,2.1385,2.0926,2.0715,2.007,1.969,1.969,1.969,1.969,1.969,1.969,1.9824,2.0124,2.0124,2.0797,2.2128,2.3131,2.3595,0.0,0.0,0.0,0.0,0.0,0.0,2.222,2.2209,2.2106,0.0,0.0,0.0,0.0,0.0,0.0,0.0,0.0,0.0,0.0,0.0,0.0,0.0,0.0,0.0,0.0,0.0,1.9131,1.9624,1.9061,1.8717,1.8732,1.828,1.8184,1.8594,1.7608,1.7182,1.743,1.6481,1.5902,1.5799,1.5827,1.5856,1.5885,1.6191,1.6382,1.6421,1.6686,1.6815,1.6892,1.7175,1.7126,1.6917,1.7566,1.7811,1.7811,1.7811,1.7789,1.7704,1.7392,1.7502,1.7635,1.7043,1.7481,1.8297,1.8658,1.9572,2.0397,2.0132,1.9244,1.8599,1.9622,1.9333,1.9147,2.0686,2.1085,2.1278,2.2124,2.231,2.231,2.231,2.231,2.231,2.231,2.231,2.231,2.231,2.231,2.231,2.231,2.231,2.231,2.231,2.231,2.2135,2.1718,2.1244,2.0829,2.0416,1.9945,1.969,1.969,1.969,1.969,1.969,1.969,2.0034,2.0722,2.0782,2.1455,2.2724,2.331,2.3565,0.0,0.0,0.0,0.0,0.0,0.0,2.1691,2.1718,2.1628,0.0,0.0,0.0,0.0,0.0,0.0,0.0,0.0,0.0,0.0,0.0,0.0,0.0,0.0,0.0,0.0,0.0,2.0719,2.1126,2.0765,2.0622,2.0961,2.0207,1.9826,1.9927,1.9515,1.8734,1.7648,1.7227,1.6586,1.5799,1.6067,1.6191,1.6219,1.6554,1.685,1.7085,1.6892,1.6952,1.7199,1.7256,1.7272,1.7248,1.7658,1.7811,1.7811,1.7811,1.7635,1.7392,1.732,1.7344,1.7368,1.7248,1.7531,1.791,1.7997,1.8993,2.0236,2.0787,1.9907,1.8831,1.9056,1.8572,1.8403,1.9866,2.0221,2.0593,2.2006,2.231,2.231,2.231,2.231,2.231,2.231,2.231,2.231,2.231,2.231,2.231,2.231,2.231,2.231,2.231,2.231,2.2254,2.218,2.1446,2.0959,2.0862,2.0139,1.969,1.969,1.969,1.969,1.969,1.969,2.0034,2.0722,2.1246,2.1904,2.2724,2.331,2.3325,0.0,0.0,0.0,2.1305,0.0,0.0,0.0,2.1168,2.1181,2.0748,0.0,0.0,0.0,0.0,0.0,0.0,0.0,0.0,0.0,0.0,0.0,0.0,0.0,0.0,0.0,0.0,2.091,2.1552,2.1399,2.1399,2.1582,2.1007,2.0649,2.0649,2.0019,1.9155,1.8066,1.7365,1.6606,1.5799,1.6136,1.6301,1.6328,1.6825,1.715,1.7296,1.7313,1.7384,1.7549,1.7549,1.7549,1.7572,1.7726,1.7811,1.7811,1.7811,1.7681,1.7526,1.7368,1.7415,1.7526,1.7368,1.7526,1.7879,1.8251,1.886,1.9536,1.9925,1.9232,1.8352,1.8352,1.8082,1.8082,1.9198,1.9714,2.0306,2.1498,2.204,2.231,2.231,2.231,2.231,2.231,2.231,2.231,2.231,2.231,2.231,2.231,2.231,2.231,2.231,2.231,2.231,2.231,2.1675,2.1213,2.0991,2.0364,1.9909,1.9726,1.969,1.969,1.969,1.969,2.0034,2.0722,2.1051,2.1545,2.2203,2.2503,2.2488,0.0,0.0,0.0,0.0,0.0,2.0907,0.0,0.0,0.0,2.0265,0.0,0.0,0.0,0.0,0.0,0.0,0.0,0.0,0.0,0.0,0.0,0.0,0.0,0.0,0.0,0.0,2.1038,2.1705,2.1774,2.179,2.1735,2.1337,2.1086,2.0991,2.0145,1.9248,1.8254,1.7347,1.6563,1.5898,1.6246,1.6421,1.6512,1.7126,1.7392,1.7415,1.7681,1.7811,1.7811,1.7811,1.7811,1.7811,1.7811,1.7811,1.7811,1.7811,1.7811,1.7749,1.7502,1.7572,1.7766,1.7462,1.7572,1.7946,1.8674,1.8894,1.8927,1.9063,1.8589,1.8014,1.8014,1.8014,1.82,1.8944,1.9688,2.0467,2.1228,2.187,2.231,2.231,2.231,2.231,2.231,2.231,2.231,2.231,2.231,2.231,2.231,2.231,2.231,2.231,2.231,2.231,2.231,2.1869,2.143,2.1039,2.055,2.0124,1.9726,1.969,1.969,1.969,1.969,1.9959,2.0513,2.0513,2.0917,2.1695,2.1695,2.162,0.0,0.0,0.0,0.0,1.941,0.0,0.0,0.0,1.9485,1.9733,0.0,0.0,0.0,0.0,0.0,0.0,0.0,0.0,0.0,0.0,0.0,0.0,0.0,0.0,0.0,0.0,0.0,2.2231,2.2452,2.2457,2.2242,2.1794,2.1368,2.0991,2.0895,1.9829,1.7794,1.7655,1.7136,1.6246,1.6581,1.6901,1.7183,1.7572,1.7726,1.7743,1.7789,1.7811,1.7811,1.7811,1.7811,1.7811,1.7811,1.7811,1.7811,1.7811,1.7811,1.7789,1.7766,1.7766,1.7789,1.7766,1.7766,1.7946,1.8674,1.8894,1.9046,1.9681,1.935,1.8775,1.8775,1.8775,1.8961,1.9697,2.0483,2.1262,2.2023,2.2243,2.231,2.231,2.231,2.231,2.231,2.231,2.231,2.231,2.231,2.231,2.231,2.231,2.231,2.231,2.231,2.231,2.231,2.1869,2.143,2.1039,2.055,2.0124,1.9726,1.969,1.969,1.969,1.969,1.972,1.9794,1.9794,2.0453,2.1695,2.1695,2.138,0.0,0.0,0.0,0.0,0.0,0.0,2.0222,0.0,1.982,0.0,0.0,0.0,0.0,0.0,0.0,0.0,0.0,0.0,0.0,0.0,0.0,0.0,0.0,0.0,0.0,0.0,0.0,0.0,0.0,2.2425,2.2299,2.2106,2.1794,2.1368,2.1118,2.0273,1.8711,1.804,1.7424,1.6874,1.6823,1.6993,1.732,1.7658,1.7811,1.7811,1.7811,1.7811,1.7811,1.7811,1.7811,1.7811,1.7811,1.7811,1.7811,1.7811,1.7811,1.7811,1.7811,1.7811,1.7811,1.7811,1.7811,1.7862,1.8166,1.8555,1.8877,1.8751,1.8809,1.8792,1.8369,1.8268,1.8352,1.8633,1.9655,2.0602,2.088,2.1684,2.231,2.231,2.231,2.231,2.231,2.231,2.231,2.231,2.231,2.231,2.231,2.231,2.231,2.231,2.231,2.231,2.231,2.2106,2.1811,2.1368,2.0682,2.0124,1.9726,1.969,1.969,1.969,1.969,1.969,1.969,1.969,1.9974,2.0528,2.0528,2.0378,1.9191,0.0,0.0,0.0,0.0,0.0,0.0,0.0,0.0,0.0,0.0,0.0,0.0,0.0,0.0,0.0,0.0,0.0,0.0,0.0,0.0,0.0,0.0,0.0,0.0,0.0,0.0,0.0,2.2496,0.0,2.2327,2.231,2.2077,2.1612,2.1213,2.048,1.9401,1.8355,1.77,1.7436,1.7098,1.7101,1.7455,1.7681,1.7811,1.7811,1.7811,1.7811,1.7811,1.7811,1.7811,1.7811,1.7811,1.7811,1.7811,1.7811,1.7811,1.7811,1.7811,1.7811,1.7811,1.7811,1.7811,1.7811,1.7811,1.8318,1.8792,1.8251,1.8488,1.8775,1.8251,1.8099,1.8099,1.8099,1.9056,2.0052,2.0272,2.1211,2.2073,2.2276,2.231,2.231,2.231,2.231,2.231,2.231,2.231,2.231,2.231,2.231,2.231,2.231,2.231,2.231,2.231,2.231,2.2049,2.146,2.0699,2.0124,1.9726,1.969,1.969,1.969,1.969,1.969,1.969,1.969,1.969,1.969,1.969,1.969,0.0,0.0,0.0,1.9292,0.0,0.0,0.0,0.0,1.861,0.0,0.0,0.0,0.0,0.0,2.0098,2.0273,1.9787,0.0,0.0,0.0,0.0,0.0,0.0,0.0,0.0,0.0,0.0,2.2304,2.297,0.0,2.2344,2.231,2.2077,2.1612,2.1213,2.048,1.9401,1.8594,1.8063,1.7773,1.7443,1.7455,1.7789,1.7789,1.7811,1.7811,1.7811,1.7811,1.7811,1.7811,1.7811,1.7811,1.7811,1.7811,1.7811,1.7811,1.7811,1.7811,1.7811,1.7811,1.7811,1.7811,1.7811,1.7811,1.7811,1.8318,1.8894,1.886,1.8877,1.8894,1.886,1.886,1.886,1.886,1.9452,2.0204,2.0974,2.1204,2.1448,2.2175,2.231,2.231,2.231,2.231,2.231,2.231,2.231,2.231,2.231,2.231,2.231,2.231,2.231,2.231,2.231,2.231,2.1915,2.1055,2.055,2.0124,1.9726,1.969,1.969,1.969,1.969,1.969,1.969,1.969,1.969,1.969,1.969,1.969,0.0,0.0,1.8014,1.9029,0.0,0.0,0.0,0.0,0.0,0.0,0.0,0.0,0.0,0.0,1.9634,1.9685,1.9719,2.0114,0.0,0.0,0.0,0.0,0.0,0.0,0.0,0.0,0.0,2.2271,2.2547,2.2564,0.0,2.231,2.2237,2.2077,2.1628,2.11,2.0464,1.926,1.8861,1.9188,1.7899,1.7736,1.8504,1.8031,1.7811,1.7811,1.7811,1.7811,1.7811,1.7811,1.7811,1.7811,1.7811,1.7811,1.7811,1.7811,1.7811,1.7811,1.7811,1.7811,1.7811,1.7811,1.7811,1.7811,1.7811,1.8318,1.8792,1.8318,1.8521,1.8792,1.8302,1.8166,1.8166,1.8166,1.9113,2.0069,2.0365,2.1211,2.2006,2.226,2.231,2.231,2.231,2.231,2.231,2.231,2.231,2.231,2.231,2.231,2.231,2.231,2.231,2.231,2.231,2.231,2.1915,2.1071,2.0862,2.0431,1.9726,1.969,1.969,1.969,1.969,1.969,1.969,1.969,1.969,1.969,1.969,1.969,1.8921,1.8784,0.0,1.9164,1.9841,0.0,2.0796,0.0,0.0,0.0,0.0,0.0,0.0,0.0,1.9519,1.9732,1.9981,2.054,0.0,2.2106,0.0,0.0,0.0,0.0,0.0,0.0,2.1794,2.2254,2.231,2.231,0.0,0.0,2.231,2.231,2.1823,2.146,2.1213,2.0049,1.9693,2.0086,1.8597,1.8232,1.886,1.8149,1.7811,1.7811,1.7811,1.7811,1.7794,1.7523,1.7557,1.7777,1.7507,1.7574,1.7811,1.7811,1.7811,1.7811,1.7811,1.7811,1.7811,1.7811,1.7811,1.7811,1.7811,1.8504,1.908,1.8082,1.8724,1.9418,1.8132,1.7997,1.8132,1.7862,1.8741,1.9664,1.9934,2.1025,2.1989,2.226,2.231,2.231,2.231,2.231,2.231,2.231,2.231,2.231,2.231,2.231,2.231,2.231,2.231,2.231,2.231,2.231,2.1974,2.1244,2.1086,2.0665,1.9929,1.9782,1.969,1.969,1.969,1.969,1.969,1.969,1.969,1.969,1.969,1.969]}]]